<?xml version='1.0' encoding='UTF-8'?><gpx version="1.1" creator="JPX - https://github.com/jenetics/jpx" xmlns="http://www.topografix.com/GPX/1/1"><trk><trkseg><trkpt lat="45.7595133" lon="8.9680633"><ele>385.00000000000006</ele><time>2026-04-15T12:51:22.15Z</time></trkpt><trkpt lat="45.7596217" lon="8.9680433"><ele>385.0</ele><time>2026-04-15T12:51:27.15Z</time></trkpt><trkpt lat="45.7597017" lon="8.9680417"><ele>385.0</ele><time>2026-04-15T12:51:31.151Z</time></trkpt><trkpt lat="45.7597483" lon="8.96813"><ele>385.0</ele><time>2026-04-15T12:51:34.15Z</time></trkpt><trkpt lat="45.7597767" lon="8.9682283"><ele>385.00000000000006</ele><time>2026-04-15T12:51:36.15Z</time></trkpt><trkpt lat="45.7597933" lon="8.9683433"><ele>385.0</ele><time>2026-04-15T12:51:38.151Z</time></trkpt><trkpt lat="45.7598217" lon="8.9684767"><ele>384.4</ele><time>2026-04-15T12:51:40.151Z</time></trkpt><trkpt lat="45.7598533" lon="8.96862"><ele>383.8</ele><time>2026-04-15T12:51:42.152Z</time></trkpt><trkpt lat="45.7598867" lon="8.968775"><ele>383.20000000000005</ele><time>2026-04-15T12:51:44.152Z</time></trkpt><trkpt lat="45.7599217" lon="8.9689317"><ele>382.6</ele><time>2026-04-15T12:51:46.15Z</time></trkpt><trkpt lat="45.7599567" lon="8.969085"><ele>382.0</ele><time>2026-04-15T12:51:48.152Z</time></trkpt><trkpt lat="45.7599867" lon="8.969235"><ele>381.6</ele><time>2026-04-15T12:51:50.152Z</time></trkpt><trkpt lat="45.759995" lon="8.96937"><ele>381.20000000000005</ele><time>2026-04-15T12:51:52.15Z</time></trkpt><trkpt lat="45.7599483" lon="8.96948"><ele>380.8</ele><time>2026-04-15T12:51:54.151Z</time></trkpt><trkpt lat="45.7598567" lon="8.9695417"><ele>380.4</ele><time>2026-04-15T12:51:56.151Z</time></trkpt><trkpt lat="45.75975" lon="8.9695683"><ele>380.0</ele><time>2026-04-15T12:51:58.15Z</time></trkpt><trkpt lat="45.759625" lon="8.96958"><ele>380.0</ele><time>2026-04-15T12:52:00.15Z</time></trkpt><trkpt lat="45.7595567" lon="8.9695883"><ele>380.0</ele><time>2026-04-15T12:52:01.149Z</time></trkpt><trkpt lat="45.7594917" lon="8.96959"><ele>380.0</ele><time>2026-04-15T12:52:02.149Z</time></trkpt><trkpt lat="45.7594283" lon="8.9695817"><ele>380.0</ele><time>2026-04-15T12:52:03.152Z</time></trkpt><trkpt lat="45.7593217" lon="8.9695733"><ele>380.0</ele><time>2026-04-15T12:52:05.151Z</time></trkpt><trkpt lat="45.7592433" lon="8.9696017"><ele>380.0</ele><time>2026-04-15T12:52:08.15Z</time></trkpt><trkpt lat="45.7592517" lon="8.9696967"><ele>379.4</ele><time>2026-04-15T12:52:10.148Z</time></trkpt><trkpt lat="45.7592983" lon="8.9698717"><ele>378.8</ele><time>2026-04-15T12:52:21.148Z</time></trkpt><trkpt lat="45.759275" lon="8.969995"><ele>378.20000000000005</ele><time>2026-04-15T12:52:24.149Z</time></trkpt><trkpt lat="45.7592167" lon="8.9700783"><ele>377.6</ele><time>2026-04-15T12:52:26.15Z</time></trkpt><trkpt lat="45.759175" lon="8.9701833"><ele>377.0</ele><time>2026-04-15T12:52:28.15Z</time></trkpt><trkpt lat="45.759125" lon="8.9702783"><ele>376.20000000000005</ele><time>2026-04-15T12:52:30.149Z</time></trkpt><trkpt lat="45.7590267" lon="8.9703567"><ele>375.4</ele><time>2026-04-15T12:52:32.152Z</time></trkpt><trkpt lat="45.7589183" lon="8.970365"><ele>374.6</ele><time>2026-04-15T12:52:34.153Z</time></trkpt><trkpt lat="45.7588133" lon="8.9703517"><ele>373.79999999999995</ele><time>2026-04-15T12:52:36.152Z</time></trkpt><trkpt lat="45.758715" lon="8.97036"><ele>373.0</ele><time>2026-04-15T12:52:38.152Z</time></trkpt><trkpt lat="45.758605" lon="8.970385"><ele>373.0</ele><time>2026-04-15T12:52:40.15Z</time></trkpt><trkpt lat="45.7584967" lon="8.9703933"><ele>373.0</ele><time>2026-04-15T12:52:42.151Z</time></trkpt><trkpt lat="45.758395" lon="8.970425"><ele>373.0</ele><time>2026-04-15T12:52:44.151Z</time></trkpt><trkpt lat="45.7582967" lon="8.97046"><ele>373.0</ele><time>2026-04-15T12:52:46.151Z</time></trkpt><trkpt lat="45.7582083" lon="8.9704883"><ele>373.0</ele><time>2026-04-15T12:52:48.151Z</time></trkpt><trkpt lat="45.7581133" lon="8.9705383"><ele>373.0</ele><time>2026-04-15T12:52:50.153Z</time></trkpt><trkpt lat="45.75803" lon="8.97054"><ele>373.0</ele><time>2026-04-15T12:52:52.152Z</time></trkpt><trkpt lat="45.7579633" lon="8.97051"><ele>373.0</ele><time>2026-04-15T12:52:54.152Z</time></trkpt><trkpt lat="45.7578983" lon="8.9705467"><ele>373.0</ele><time>2026-04-15T12:52:58.151Z</time></trkpt><trkpt lat="45.7578217" lon="8.97058"><ele>373.0</ele><time>2026-04-15T12:53:12.151Z</time></trkpt><trkpt lat="45.7577317" lon="8.9705417"><ele>373.0</ele><time>2026-04-15T12:53:15.149Z</time></trkpt><trkpt lat="45.7576083" lon="8.9705383"><ele>372.16666666666663</ele><time>2026-04-15T12:53:17.15Z</time></trkpt><trkpt lat="45.75754" lon="8.9705283"><ele>371.3333333333333</ele><time>2026-04-15T12:53:18.15Z</time></trkpt><trkpt lat="45.7574733" lon="8.9705217"><ele>370.5</ele><time>2026-04-15T12:53:19.15Z</time></trkpt><trkpt lat="45.7573667" lon="8.9705317"><ele>369.6666666666667</ele><time>2026-04-15T12:53:21.151Z</time></trkpt><trkpt lat="45.757285" lon="8.97057"><ele>368.83333333333337</ele><time>2026-04-15T12:53:23.15Z</time></trkpt><trkpt lat="45.7572417" lon="8.970655"><ele>368.0</ele><time>2026-04-15T12:53:25.15Z</time></trkpt><trkpt lat="45.75721" lon="8.9707517"><ele>368.0</ele><time>2026-04-15T12:53:27.15Z</time></trkpt><trkpt lat="45.757155" lon="8.9707983"><ele>368.0</ele><time>2026-04-15T12:53:29.15Z</time></trkpt><trkpt lat="45.7570783" lon="8.9707883"><ele>368.0</ele><time>2026-04-15T12:53:31.15Z</time></trkpt><trkpt lat="45.7569983" lon="8.97076"><ele>368.0</ele><time>2026-04-15T12:53:33.148Z</time></trkpt><trkpt lat="45.7569233" lon="8.9707283"><ele>368.0</ele><time>2026-04-15T12:53:35.149Z</time></trkpt><trkpt lat="45.756845" lon="8.97071"><ele>368.0</ele><time>2026-04-15T12:53:37.15Z</time></trkpt><trkpt lat="45.756765" lon="8.970685"><ele>367.1666666666667</ele><time>2026-04-15T12:53:39.15Z</time></trkpt><trkpt lat="45.756685" lon="8.970665"><ele>366.33333333333337</ele><time>2026-04-15T12:53:41.149Z</time></trkpt><trkpt lat="45.7566" lon="8.9706567"><ele>365.5</ele><time>2026-04-15T12:53:43.15Z</time></trkpt><trkpt lat="45.7565083" lon="8.9706533"><ele>364.6666666666667</ele><time>2026-04-15T12:53:45.15Z</time></trkpt><trkpt lat="45.7564233" lon="8.97066"><ele>363.8333333333333</ele><time>2026-04-15T12:53:47.15Z</time></trkpt><trkpt lat="45.7563367" lon="8.970665"><ele>363.0</ele><time>2026-04-15T12:53:49.149Z</time></trkpt><trkpt lat="45.7562533" lon="8.9706717"><ele>363.0</ele><time>2026-04-15T12:53:51.151Z</time></trkpt><trkpt lat="45.75617" lon="8.9706883"><ele>363.0</ele><time>2026-04-15T12:53:53.15Z</time></trkpt><trkpt lat="45.7560933" lon="8.9707133"><ele>363.0</ele><time>2026-04-15T12:53:55.15Z</time></trkpt><trkpt lat="45.7560233" lon="8.9707467"><ele>363.0</ele><time>2026-04-15T12:53:57.15Z</time></trkpt><trkpt lat="45.755955" lon="8.9707917"><ele>363.0</ele><time>2026-04-15T12:53:59.15Z</time></trkpt><trkpt lat="45.7559" lon="8.9708583"><ele>363.0</ele><time>2026-04-15T12:54:01.15Z</time></trkpt><trkpt lat="45.755865" lon="8.970965"><ele>363.2</ele><time>2026-04-15T12:54:03.151Z</time></trkpt><trkpt lat="45.7558433" lon="8.9710933"><ele>363.4</ele><time>2026-04-15T12:54:05.15Z</time></trkpt><trkpt lat="45.7558233" lon="8.971225"><ele>363.59999999999997</ele><time>2026-04-15T12:54:07.15Z</time></trkpt><trkpt lat="45.7558033" lon="8.97136"><ele>363.79999999999995</ele><time>2026-04-15T12:54:09.15Z</time></trkpt><trkpt lat="45.7557917" lon="8.9715"><ele>364.0</ele><time>2026-04-15T12:54:11.15Z</time></trkpt><trkpt lat="45.7558033" lon="8.971645"><ele>364.4</ele><time>2026-04-15T12:54:13.149Z</time></trkpt><trkpt lat="45.7558117" lon="8.971795"><ele>364.79999999999995</ele><time>2026-04-15T12:54:15.151Z</time></trkpt><trkpt lat="45.755825" lon="8.97195"><ele>365.20000000000005</ele><time>2026-04-15T12:54:17.15Z</time></trkpt><trkpt lat="45.7558483" lon="8.9721067"><ele>365.6</ele><time>2026-04-15T12:54:19.15Z</time></trkpt><trkpt lat="45.75586" lon="8.9722517"><ele>366.0</ele><time>2026-04-15T12:54:21.15Z</time></trkpt><trkpt lat="45.755865" lon="8.9723783"><ele>366.0</ele><time>2026-04-15T12:54:23.152Z</time></trkpt><trkpt lat="45.755865" lon="8.9724833"><ele>366.0</ele><time>2026-04-15T12:54:25.153Z</time></trkpt><trkpt lat="45.7558733" lon="8.97258"><ele>366.0</ele><time>2026-04-15T12:54:27.15Z</time></trkpt><trkpt lat="45.7558817" lon="8.97267"><ele>366.0</ele><time>2026-04-15T12:54:29.15Z</time></trkpt><trkpt lat="45.7558967" lon="8.9727967"><ele>366.0</ele><time>2026-04-15T12:54:32.151Z</time></trkpt><trkpt lat="45.7559133" lon="8.9728917"><ele>366.0</ele><time>2026-04-15T12:54:35.151Z</time></trkpt><trkpt lat="45.7559233" lon="8.9729917"><ele>366.0</ele><time>2026-04-15T12:54:38.151Z</time></trkpt><trkpt lat="45.7559267" lon="8.9730917"><ele>366.6666666666667</ele><time>2026-04-15T12:54:40.15Z</time></trkpt><trkpt lat="45.755965" lon="8.97319"><ele>367.3333333333333</ele><time>2026-04-15T12:54:42.15Z</time></trkpt><trkpt lat="45.7560183" lon="8.9732867"><ele>368.0</ele><time>2026-04-15T12:54:44.15Z</time></trkpt><trkpt lat="45.7560617" lon="8.9734033"><ele>368.66666666666663</ele><time>2026-04-15T12:54:46.15Z</time></trkpt><trkpt lat="45.7561067" lon="8.97352"><ele>369.3333333333333</ele><time>2026-04-15T12:54:48.151Z</time></trkpt><trkpt lat="45.7561533" lon="8.973635"><ele>370.0</ele><time>2026-04-15T12:54:50.151Z</time></trkpt><trkpt lat="45.7561983" lon="8.9737467"><ele>370.0</ele><time>2026-04-15T12:54:52.15Z</time></trkpt><trkpt lat="45.75624" lon="8.97386"><ele>370.0</ele><time>2026-04-15T12:54:54.149Z</time></trkpt><trkpt lat="45.7562817" lon="8.9739717"><ele>370.0</ele><time>2026-04-15T12:54:56.152Z</time></trkpt><trkpt lat="45.756325" lon="8.97408"><ele>370.0</ele><time>2026-04-15T12:54:58.149Z</time></trkpt><trkpt lat="45.756365" lon="8.9741883"><ele>370.0</ele><time>2026-04-15T12:55:00.149Z</time></trkpt><trkpt lat="45.7564017" lon="8.9742983"><ele>370.0</ele><time>2026-04-15T12:55:02.151Z</time></trkpt><trkpt lat="45.756435" lon="8.9744067"><ele>370.3333333333333</ele><time>2026-04-15T12:55:04.15Z</time></trkpt><trkpt lat="45.75646" lon="8.9745217"><ele>370.66666666666663</ele><time>2026-04-15T12:55:06.151Z</time></trkpt><trkpt lat="45.756475" lon="8.9746417"><ele>371.0</ele><time>2026-04-15T12:55:08.151Z</time></trkpt><trkpt lat="45.7564717" lon="8.9747667"><ele>371.3333333333333</ele><time>2026-04-15T12:55:10.149Z</time></trkpt><trkpt lat="45.756455" lon="8.9748917"><ele>371.6666666666667</ele><time>2026-04-15T12:55:12.15Z</time></trkpt><trkpt lat="45.7564333" lon="8.9750133"><ele>372.0</ele><time>2026-04-15T12:55:14.152Z</time></trkpt><trkpt lat="45.7564" lon="8.9751317"><ele>372.6666666666667</ele><time>2026-04-15T12:55:16.151Z</time></trkpt><trkpt lat="45.7563633" lon="8.97525"><ele>373.3333333333333</ele><time>2026-04-15T12:55:18.152Z</time></trkpt><trkpt lat="45.7563217" lon="8.975365"><ele>374.0</ele><time>2026-04-15T12:55:20.152Z</time></trkpt><trkpt lat="45.7562817" lon="8.9754717"><ele>374.66666666666663</ele><time>2026-04-15T12:55:22.151Z</time></trkpt><trkpt lat="45.7562367" lon="8.97558"><ele>375.3333333333333</ele><time>2026-04-15T12:55:24.152Z</time></trkpt><trkpt lat="45.75619" lon="8.9756783"><ele>376.0</ele><time>2026-04-15T12:55:26.153Z</time></trkpt><trkpt lat="45.7561583" lon="8.9757933"><ele>375.4</ele><time>2026-04-15T12:55:28.152Z</time></trkpt><trkpt lat="45.756135" lon="8.97592"><ele>374.8</ele><time>2026-04-15T12:55:30.15Z</time></trkpt><trkpt lat="45.7561217" lon="8.9760483"><ele>374.2</ele><time>2026-04-15T12:55:32.153Z</time></trkpt><trkpt lat="45.7561233" lon="8.9761883"><ele>373.59999999999997</ele><time>2026-04-15T12:55:34.151Z</time></trkpt><trkpt lat="45.7561167" lon="8.9763317"><ele>373.0</ele><time>2026-04-15T12:55:36.151Z</time></trkpt><trkpt lat="45.7561167" lon="8.97648"><ele>373.0</ele><time>2026-04-15T12:55:38.152Z</time></trkpt><trkpt lat="45.7561117" lon="8.976625"><ele>373.0</ele><time>2026-04-15T12:55:40.149Z</time></trkpt><trkpt lat="45.756105" lon="8.9767717"><ele>373.0</ele><time>2026-04-15T12:55:42.151Z</time></trkpt><trkpt lat="45.7560833" lon="8.9769383"><ele>373.0</ele><time>2026-04-15T12:55:44.152Z</time></trkpt><trkpt lat="45.756055" lon="8.9770217"><ele>373.0</ele><time>2026-04-15T12:55:45.151Z</time></trkpt><trkpt lat="45.7560133" lon="8.9771017"><ele>371.59999999999997</ele><time>2026-04-15T12:55:46.15Z</time></trkpt><trkpt lat="45.7559667" lon="8.97718"><ele>370.2</ele><time>2026-04-15T12:55:47.151Z</time></trkpt><trkpt lat="45.7559183" lon="8.9772567"><ele>368.8</ele><time>2026-04-15T12:55:48.15Z</time></trkpt><trkpt lat="45.755875" lon="8.97733"><ele>367.4</ele><time>2026-04-15T12:55:49.149Z</time></trkpt><trkpt lat="45.755795" lon="8.9774617"><ele>366.0</ele><time>2026-04-15T12:55:51.149Z</time></trkpt><trkpt lat="45.7557483" lon="8.9776167"><ele>365.57142857142856</ele><time>2026-04-15T12:55:53.151Z</time></trkpt><trkpt lat="45.7557633" lon="8.9777067"><ele>365.14285714285717</ele><time>2026-04-15T12:55:54.151Z</time></trkpt><trkpt lat="45.755785" lon="8.977805"><ele>364.71428571428567</ele><time>2026-04-15T12:55:55.152Z</time></trkpt><trkpt lat="45.7557967" lon="8.9779067"><ele>364.2857142857143</ele><time>2026-04-15T12:55:56.151Z</time></trkpt><trkpt lat="45.7558" lon="8.978015"><ele>363.85714285714283</ele><time>2026-04-15T12:55:57.15Z</time></trkpt><trkpt lat="45.7557967" lon="8.9781283"><ele>363.4285714285714</ele><time>2026-04-15T12:55:58.149Z</time></trkpt><trkpt lat="45.7557983" lon="8.978245"><ele>363.0</ele><time>2026-04-15T12:55:59.15Z</time></trkpt><trkpt lat="45.755795" lon="8.978365"><ele>362.5</ele><time>2026-04-15T12:56:00.15Z</time></trkpt><trkpt lat="45.7557833" lon="8.978485"><ele>362.0</ele><time>2026-04-15T12:56:01.151Z</time></trkpt><trkpt lat="45.7557783" lon="8.9786067"><ele>361.5</ele><time>2026-04-15T12:56:02.15Z</time></trkpt><trkpt lat="45.755775" lon="8.9787317"><ele>361.0</ele><time>2026-04-15T12:56:03.151Z</time></trkpt><trkpt lat="45.7557717" lon="8.978855"><ele>360.5</ele><time>2026-04-15T12:56:04.151Z</time></trkpt><trkpt lat="45.7557667" lon="8.9789767"><ele>360.0</ele><time>2026-04-15T12:56:05.15Z</time></trkpt><trkpt lat="45.75576" lon="8.9790983"><ele>359.5</ele><time>2026-04-15T12:56:06.149Z</time></trkpt><trkpt lat="45.7557533" lon="8.97922"><ele>359.0</ele><time>2026-04-15T12:56:07.151Z</time></trkpt><trkpt lat="45.7557517" lon="8.9793417"><ele>358.5</ele><time>2026-04-15T12:56:08.151Z</time></trkpt><trkpt lat="45.75575" lon="8.97946"><ele>358.0</ele><time>2026-04-15T12:56:09.151Z</time></trkpt><trkpt lat="45.7557467" lon="8.9795767"><ele>357.5</ele><time>2026-04-15T12:56:10.15Z</time></trkpt><trkpt lat="45.7557433" lon="8.9796883"><ele>357.0</ele><time>2026-04-15T12:56:11.15Z</time></trkpt><trkpt lat="45.7557383" lon="8.9798017"><ele>357.0</ele><time>2026-04-15T12:56:12.151Z</time></trkpt><trkpt lat="45.7557317" lon="8.9799117"><ele>357.0</ele><time>2026-04-15T12:56:13.15Z</time></trkpt><trkpt lat="45.7557267" lon="8.98002"><ele>357.0</ele><time>2026-04-15T12:56:14.152Z</time></trkpt><trkpt lat="45.7557217" lon="8.9801283"><ele>357.0</ele><time>2026-04-15T12:56:15.152Z</time></trkpt><trkpt lat="45.75572" lon="8.980235"><ele>357.0</ele><time>2026-04-15T12:56:16.15Z</time></trkpt><trkpt lat="45.7557217" lon="8.9803433"><ele>357.0</ele><time>2026-04-15T12:56:17.15Z</time></trkpt><trkpt lat="45.7557267" lon="8.9804533"><ele>357.0</ele><time>2026-04-15T12:56:18.152Z</time></trkpt><trkpt lat="45.75573" lon="8.980565"><ele>357.0</ele><time>2026-04-15T12:56:19.153Z</time></trkpt><trkpt lat="45.7557317" lon="8.9806767"><ele>357.0</ele><time>2026-04-15T12:56:20.151Z</time></trkpt><trkpt lat="45.755735" lon="8.98079"><ele>357.0</ele><time>2026-04-15T12:56:21.151Z</time></trkpt><trkpt lat="45.7557367" lon="8.9809"><ele>357.0</ele><time>2026-04-15T12:56:22.151Z</time></trkpt><trkpt lat="45.755735" lon="8.98101"><ele>357.0</ele><time>2026-04-15T12:56:23.15Z</time></trkpt><trkpt lat="45.7557367" lon="8.98112"><ele>357.0</ele><time>2026-04-15T12:56:24.15Z</time></trkpt><trkpt lat="45.7557383" lon="8.981225"><ele>357.0</ele><time>2026-04-15T12:56:25.149Z</time></trkpt><trkpt lat="45.7557383" lon="8.98133"><ele>357.0</ele><time>2026-04-15T12:56:26.154Z</time></trkpt><trkpt lat="45.75574" lon="8.9814317"><ele>357.0</ele><time>2026-04-15T12:56:27.149Z</time></trkpt><trkpt lat="45.75574" lon="8.9815317"><ele>357.0</ele><time>2026-04-15T12:56:28.15Z</time></trkpt><trkpt lat="45.7557417" lon="8.9816283"><ele>357.0</ele><time>2026-04-15T12:56:29.15Z</time></trkpt><trkpt lat="45.7557517" lon="8.9817317"><ele>357.0</ele><time>2026-04-15T12:56:30.15Z</time></trkpt><trkpt lat="45.7557667" lon="8.9818317"><ele>356.7142857142857</ele><time>2026-04-15T12:56:31.149Z</time></trkpt><trkpt lat="45.7557767" lon="8.9819317"><ele>356.42857142857144</ele><time>2026-04-15T12:56:32.151Z</time></trkpt><trkpt lat="45.75578" lon="8.982035"><ele>356.1428571428571</ele><time>2026-04-15T12:56:33.148Z</time></trkpt><trkpt lat="45.7557867" lon="8.9821367"><ele>355.8571428571429</ele><time>2026-04-15T12:56:34.149Z</time></trkpt><trkpt lat="45.7557933" lon="8.98224"><ele>355.57142857142856</ele><time>2026-04-15T12:56:35.15Z</time></trkpt><trkpt lat="45.7558017" lon="8.9823433"><ele>355.2857142857143</ele><time>2026-04-15T12:56:36.15Z</time></trkpt><trkpt lat="45.7558083" lon="8.9824467"><ele>355.0</ele><time>2026-04-15T12:56:37.148Z</time></trkpt><trkpt lat="45.7558167" lon="8.982545"><ele>354.6</ele><time>2026-04-15T12:56:38.149Z</time></trkpt><trkpt lat="45.7558283" lon="8.982695"><ele>354.2</ele><time>2026-04-15T12:56:40.149Z</time></trkpt><trkpt lat="45.75586" lon="8.9828083"><ele>353.79999999999995</ele><time>2026-04-15T12:56:42.149Z</time></trkpt><trkpt lat="45.7559333" lon="8.98284"><ele>353.4</ele><time>2026-04-15T12:56:44.15Z</time></trkpt><trkpt lat="45.7560133" lon="8.9828233"><ele>353.0</ele><time>2026-04-15T12:56:46.15Z</time></trkpt><trkpt lat="45.75612" lon="8.9828433"><ele>353.0</ele><time>2026-04-15T12:56:48.148Z</time></trkpt><trkpt lat="45.756215" lon="8.9828817"><ele>353.0</ele><time>2026-04-15T12:56:50.15Z</time></trkpt><trkpt lat="45.7563017" lon="8.9829533"><ele>353.0</ele><time>2026-04-15T12:56:52.15Z</time></trkpt><trkpt lat="45.7563767" lon="8.98306"><ele>353.0</ele><time>2026-04-15T12:56:54.151Z</time></trkpt><trkpt lat="45.756455" lon="8.9831917"><ele>353.0</ele><time>2026-04-15T12:56:56.153Z</time></trkpt><trkpt lat="45.756495" lon="8.9832617"><ele>353.0</ele><time>2026-04-15T12:56:57.151Z</time></trkpt><trkpt lat="45.7565267" lon="8.9833433"><ele>353.0</ele><time>2026-04-15T12:56:58.15Z</time></trkpt><trkpt lat="45.756585" lon="8.983495"><ele>353.0</ele><time>2026-04-15T12:57:00.152Z</time></trkpt><trkpt lat="45.7566133" lon="8.9835933"><ele>353.0</ele><time>2026-04-15T12:57:02.15Z</time></trkpt><trkpt lat="45.75668" lon="8.9835767"><ele>353.0</ele><time>2026-04-15T12:57:08.151Z</time></trkpt><trkpt lat="45.7567433" lon="8.9835533"><ele>353.0</ele><time>2026-04-15T12:57:10.15Z</time></trkpt><trkpt lat="45.75681" lon="8.983535"><ele>353.4285714285714</ele><time>2026-04-15T12:57:12.152Z</time></trkpt><trkpt lat="45.7568817" lon="8.98351"><ele>353.8571428571429</ele><time>2026-04-15T12:57:14.154Z</time></trkpt><trkpt lat="45.756945" lon="8.9834733"><ele>354.2857142857143</ele><time>2026-04-15T12:57:16.149Z</time></trkpt><trkpt lat="45.7570167" lon="8.9834283"><ele>354.71428571428567</ele><time>2026-04-15T12:57:18.15Z</time></trkpt><trkpt lat="45.757075" lon="8.9833917"><ele>355.1428571428571</ele><time>2026-04-15T12:57:20.152Z</time></trkpt><trkpt lat="45.757135" lon="8.9833633"><ele>355.57142857142856</ele><time>2026-04-15T12:57:22.151Z</time></trkpt><trkpt lat="45.7572067" lon="8.9833333"><ele>356.0</ele><time>2026-04-15T12:57:24.152Z</time></trkpt><trkpt lat="45.7572717" lon="8.98331"><ele>355.99999999999994</ele><time>2026-04-15T12:57:26.153Z</time></trkpt><trkpt lat="45.757335" lon="8.9832867"><ele>356.0</ele><time>2026-04-15T12:57:28.15Z</time></trkpt><trkpt lat="45.7574017" lon="8.9832733"><ele>356.0</ele><time>2026-04-15T12:57:30.15Z</time></trkpt><trkpt lat="45.7574733" lon="8.9832483"><ele>356.0</ele><time>2026-04-15T12:57:32.151Z</time></trkpt><trkpt lat="45.757545" lon="8.9832317"><ele>356.0</ele><time>2026-04-15T12:57:34.149Z</time></trkpt><trkpt lat="45.7576033" lon="8.9831967"><ele>355.99999999999994</ele><time>2026-04-15T12:57:38.15Z</time></trkpt><trkpt lat="45.7576367" lon="8.983105"><ele>356.0</ele><time>2026-04-15T12:57:43.149Z</time></trkpt><trkpt lat="45.7577333" lon="8.98313"><ele>355.6</ele><time>2026-04-15T12:57:55.15Z</time></trkpt><trkpt lat="45.7578867" lon="8.9830767"><ele>355.20000000000005</ele><time>2026-04-15T12:58:01.151Z</time></trkpt><trkpt lat="45.7579617" lon="8.983045"><ele>354.79999999999995</ele><time>2026-04-15T12:58:04.151Z</time></trkpt><trkpt lat="45.758055" lon="8.9829967"><ele>354.4</ele><time>2026-04-15T12:58:07.15Z</time></trkpt><trkpt lat="45.75812" lon="8.9829717"><ele>354.0</ele><time>2026-04-15T12:58:09.149Z</time></trkpt><trkpt lat="45.7581833" lon="8.9829367"><ele>354.0</ele><time>2026-04-15T12:58:12.15Z</time></trkpt><trkpt lat="45.758245" lon="8.9829183"><ele>354.0</ele><time>2026-04-15T12:58:14.15Z</time></trkpt><trkpt lat="45.758325" lon="8.9828883"><ele>354.0</ele><time>2026-04-15T12:58:16.149Z</time></trkpt><trkpt lat="45.7584" lon="8.98284"><ele>354.0</ele><time>2026-04-15T12:58:19.151Z</time></trkpt><trkpt lat="45.75847" lon="8.9828167"><ele>354.0</ele><time>2026-04-15T12:58:21.151Z</time></trkpt><trkpt lat="45.7585567" lon="8.9828017"><ele>354.0</ele><time>2026-04-15T12:58:24.151Z</time></trkpt><trkpt lat="45.7586267" lon="8.9827817"><ele>353.4</ele><time>2026-04-15T12:58:26.154Z</time></trkpt><trkpt lat="45.7587267" lon="8.98276"><ele>352.79999999999995</ele><time>2026-04-15T12:58:29.15Z</time></trkpt><trkpt lat="45.75879" lon="8.9827667"><ele>352.20000000000005</ele><time>2026-04-15T12:58:31.153Z</time></trkpt><trkpt lat="45.7588983" lon="8.9827733"><ele>351.6</ele><time>2026-04-15T12:58:33.151Z</time></trkpt><trkpt lat="45.7589917" lon="8.982785"><ele>351.0</ele><time>2026-04-15T12:58:35.15Z</time></trkpt><trkpt lat="45.7590767" lon="8.9828033"><ele>351.0</ele><time>2026-04-15T12:58:37.151Z</time></trkpt><trkpt lat="45.75917" lon="8.9828183"><ele>351.0</ele><time>2026-04-15T12:58:39.151Z</time></trkpt><trkpt lat="45.7592717" lon="8.9828383"><ele>351.0</ele><time>2026-04-15T12:58:41.151Z</time></trkpt><trkpt lat="45.7593667" lon="8.9828883"><ele>351.0</ele><time>2026-04-15T12:58:43.151Z</time></trkpt><trkpt lat="45.7594733" lon="8.9829533"><ele>351.0</ele><time>2026-04-15T12:58:45.151Z</time></trkpt><trkpt lat="45.7595617" lon="8.983045"><ele>351.0</ele><time>2026-04-15T12:58:47.152Z</time></trkpt><trkpt lat="45.7596133" lon="8.9830967"><ele>351.0</ele><time>2026-04-15T12:58:48.151Z</time></trkpt><trkpt lat="45.759695" lon="8.9832067"><ele>351.0</ele><time>2026-04-15T12:58:50.151Z</time></trkpt><trkpt lat="45.7597817" lon="8.9832883"><ele>351.0</ele><time>2026-04-15T12:58:52.15Z</time></trkpt><trkpt lat="45.759825" lon="8.9833667"><ele>351.0</ele><time>2026-04-15T12:58:54.15Z</time></trkpt><trkpt lat="45.7598833" lon="8.9834367"><ele>351.0</ele><time>2026-04-15T12:58:56.151Z</time></trkpt><trkpt lat="45.7599417" lon="8.9835167"><ele>350.3333333333333</ele><time>2026-04-15T12:58:58.152Z</time></trkpt><trkpt lat="45.7599683" lon="8.9836083"><ele>349.6666666666667</ele><time>2026-04-15T12:59:00.15Z</time></trkpt><trkpt lat="45.7600117" lon="8.9837217"><ele>349.0</ele><time>2026-04-15T12:59:02.15Z</time></trkpt><trkpt lat="45.76006" lon="8.9838117"><ele>348.33333333333337</ele><time>2026-04-15T12:59:04.15Z</time></trkpt><trkpt lat="45.7601233" lon="8.98391"><ele>347.6666666666667</ele><time>2026-04-15T12:59:06.152Z</time></trkpt><trkpt lat="45.76018" lon="8.9840333"><ele>347.0</ele><time>2026-04-15T12:59:08.149Z</time></trkpt><trkpt lat="45.7602367" lon="8.984155"><ele>346.5</ele><time>2026-04-15T12:59:10.148Z</time></trkpt><trkpt lat="45.760295" lon="8.9842067"><ele>346.0</ele><time>2026-04-15T12:59:12.15Z</time></trkpt><trkpt lat="45.7603733" lon="8.9841583"><ele>345.5</ele><time>2026-04-15T12:59:15.148Z</time></trkpt><trkpt lat="45.7604483" lon="8.9840867"><ele>345.0</ele><time>2026-04-15T12:59:18.15Z</time></trkpt><trkpt lat="45.7605167" lon="8.9840033"><ele>344.5</ele><time>2026-04-15T12:59:20.151Z</time></trkpt><trkpt lat="45.7605767" lon="8.9839483"><ele>344.0</ele><time>2026-04-15T12:59:22.15Z</time></trkpt><trkpt lat="45.760645" lon="8.9838683"><ele>344.0</ele><time>2026-04-15T12:59:24.151Z</time></trkpt><trkpt lat="45.7606967" lon="8.983805"><ele>344.0</ele><time>2026-04-15T12:59:26.151Z</time></trkpt><trkpt lat="45.760775" lon="8.9837317"><ele>344.0</ele><time>2026-04-15T12:59:29.15Z</time></trkpt><trkpt lat="45.7608567" lon="8.98367"><ele>344.0</ele><time>2026-04-15T12:59:32.151Z</time></trkpt><trkpt lat="45.7609167" lon="8.9836283"><ele>344.0</ele><time>2026-04-15T12:59:34.148Z</time></trkpt><trkpt lat="45.76099" lon="8.9835533"><ele>344.0</ele><time>2026-04-15T12:59:37.149Z</time></trkpt><trkpt lat="45.7610417" lon="8.9835017"><ele>344.5</ele><time>2026-04-15T12:59:39.149Z</time></trkpt><trkpt lat="45.7610967" lon="8.98345"><ele>345.0</ele><time>2026-04-15T12:59:41.151Z</time></trkpt><trkpt lat="45.7611683" lon="8.983355"><ele>345.5</ele><time>2026-04-15T12:59:44.152Z</time></trkpt><trkpt lat="45.761215" lon="8.9832833"><ele>346.0</ele><time>2026-04-15T12:59:46.149Z</time></trkpt><trkpt lat="45.7612817" lon="8.983205"><ele>346.5</ele><time>2026-04-15T12:59:49.149Z</time></trkpt><trkpt lat="45.7613383" lon="8.9831417"><ele>347.0</ele><time>2026-04-15T12:59:52.15Z</time></trkpt><trkpt lat="45.761395" lon="8.9830867"><ele>348.6666666666667</ele><time>2026-04-15T12:59:56.15Z</time></trkpt><trkpt lat="45.7614267" lon="8.9829883"><ele>350.33333333333337</ele><time>2026-04-15T12:59:59.15Z</time></trkpt><trkpt lat="45.7614217" lon="8.9828867"><ele>352.0</ele><time>2026-04-15T13:00:02.152Z</time></trkpt><trkpt lat="45.7614317" lon="8.98277"><ele>353.6666666666667</ele><time>2026-04-15T13:00:05.151Z</time></trkpt><trkpt lat="45.761445" lon="8.9826583"><ele>355.3333333333333</ele><time>2026-04-15T13:00:08.15Z</time></trkpt><trkpt lat="45.7614367" lon="8.98254"><ele>357.0</ele><time>2026-04-15T13:00:12.15Z</time></trkpt><trkpt lat="45.7614533" lon="8.9824367"><ele>357.6666666666667</ele><time>2026-04-15T13:00:16.15Z</time></trkpt><trkpt lat="45.7614917" lon="8.98235"><ele>358.3333333333333</ele><time>2026-04-15T13:00:19.151Z</time></trkpt><trkpt lat="45.7615367" lon="8.9822517"><ele>359.0</ele><time>2026-04-15T13:00:23.151Z</time></trkpt><trkpt lat="45.76158" lon="8.9821667"><ele>359.66666666666663</ele><time>2026-04-15T13:00:27.15Z</time></trkpt><trkpt lat="45.7616233" lon="8.9820817"><ele>360.3333333333333</ele><time>2026-04-15T13:00:30.151Z</time></trkpt><trkpt lat="45.7616683" lon="8.9820067"><ele>361.0</ele><time>2026-04-15T13:00:33.15Z</time></trkpt><trkpt lat="45.7617167" lon="8.9819017"><ele>361.0</ele><time>2026-04-15T13:00:36.151Z</time></trkpt><trkpt lat="45.7617567" lon="8.9818183"><ele>361.0</ele><time>2026-04-15T13:00:39.15Z</time></trkpt><trkpt lat="45.7617667" lon="8.9817217"><ele>361.0</ele><time>2026-04-15T13:00:42.151Z</time></trkpt><trkpt lat="45.7617833" lon="8.9816267"><ele>361.0</ele><time>2026-04-15T13:00:45.151Z</time></trkpt><trkpt lat="45.761815" lon="8.981535"><ele>361.0</ele><time>2026-04-15T13:00:49.15Z</time></trkpt><trkpt lat="45.7618567" lon="8.9814633"><ele>361.0</ele><time>2026-04-15T13:00:52.15Z</time></trkpt><trkpt lat="45.7619083" lon="8.9813717"><ele>361.0</ele><time>2026-04-15T13:00:56.15Z</time></trkpt><trkpt lat="45.761965" lon="8.98131"><ele>361.7142857142857</ele><time>2026-04-15T13:00:59.15Z</time></trkpt><trkpt lat="45.7620033" lon="8.9812133"><ele>362.4285714285714</ele><time>2026-04-15T13:01:03.151Z</time></trkpt><trkpt lat="45.7620333" lon="8.9811017"><ele>363.1428571428571</ele><time>2026-04-15T13:01:07.15Z</time></trkpt><trkpt lat="45.762035" lon="8.98099"><ele>363.8571428571429</ele><time>2026-04-15T13:01:12.149Z</time></trkpt><trkpt lat="45.7620867" lon="8.9809133"><ele>364.57142857142856</ele><time>2026-04-15T13:01:17.151Z</time></trkpt><trkpt lat="45.7621317" lon="8.98085"><ele>365.2857142857143</ele><time>2026-04-15T13:01:20.152Z</time></trkpt><trkpt lat="45.7621367" lon="8.9807467"><ele>366.0</ele><time>2026-04-15T13:01:24.149Z</time></trkpt><trkpt lat="45.7621167" lon="8.9806433"><ele>366.57142857142856</ele><time>2026-04-15T13:01:27.149Z</time></trkpt><trkpt lat="45.7621067" lon="8.98055"><ele>367.14285714285717</ele><time>2026-04-15T13:01:30.15Z</time></trkpt><trkpt lat="45.7621133" lon="8.980455"><ele>367.71428571428567</ele><time>2026-04-15T13:01:33.15Z</time></trkpt><trkpt lat="45.76212" lon="8.9803483"><ele>368.2857142857143</ele><time>2026-04-15T13:01:36.15Z</time></trkpt><trkpt lat="45.7621333" lon="8.980255"><ele>368.85714285714283</ele><time>2026-04-15T13:01:39.15Z</time></trkpt><trkpt lat="45.7621567" lon="8.9801433"><ele>369.4285714285714</ele><time>2026-04-15T13:01:43.15Z</time></trkpt><trkpt lat="45.762165" lon="8.9800467"><ele>370.0</ele><time>2026-04-15T13:01:46.15Z</time></trkpt><trkpt lat="45.76217" lon="8.9799383"><ele>369.99999999999994</ele><time>2026-04-15T13:01:49.149Z</time></trkpt><trkpt lat="45.7621883" lon="8.9798433"><ele>370.0</ele><time>2026-04-15T13:01:52.148Z</time></trkpt><trkpt lat="45.7621883" lon="8.97973"><ele>370.0</ele><time>2026-04-15T13:01:56.151Z</time></trkpt><trkpt lat="45.7621183" lon="8.979685"><ele>370.0</ele><time>2026-04-15T13:01:59.15Z</time></trkpt><trkpt lat="45.7620333" lon="8.9797033"><ele>370.0</ele><time>2026-04-15T13:02:02.15Z</time></trkpt><trkpt lat="45.7619667" lon="8.9797067"><ele>369.99999999999994</ele><time>2026-04-15T13:02:04.149Z</time></trkpt><trkpt lat="45.7619017" lon="8.9797233"><ele>370.0</ele><time>2026-04-15T13:02:06.15Z</time></trkpt><trkpt lat="45.761835" lon="8.9797333"><ele>370.1428571428571</ele><time>2026-04-15T13:02:08.151Z</time></trkpt><trkpt lat="45.7617583" lon="8.979725"><ele>370.2857142857143</ele><time>2026-04-15T13:02:10.149Z</time></trkpt><trkpt lat="45.7616867" lon="8.9797117"><ele>370.42857142857144</ele><time>2026-04-15T13:02:12.15Z</time></trkpt><trkpt lat="45.7616117" lon="8.9797033"><ele>370.57142857142856</ele><time>2026-04-15T13:02:14.15Z</time></trkpt><trkpt lat="45.76154" lon="8.9796983"><ele>370.7142857142857</ele><time>2026-04-15T13:02:16.151Z</time></trkpt><trkpt lat="45.7614667" lon="8.9796967"><ele>370.85714285714283</ele><time>2026-04-15T13:02:18.15Z</time></trkpt><trkpt lat="45.7613917" lon="8.9797083"><ele>371.0</ele><time>2026-04-15T13:02:20.15Z</time></trkpt><trkpt lat="45.7613033" lon="8.9797233"><ele>371.0</ele><time>2026-04-15T13:02:22.15Z</time></trkpt><trkpt lat="45.7612133" lon="8.97971"><ele>371.0</ele><time>2026-04-15T13:02:24.149Z</time></trkpt><trkpt lat="45.76113" lon="8.9797133"><ele>371.0</ele><time>2026-04-15T13:02:26.151Z</time></trkpt><trkpt lat="45.7610517" lon="8.9797067"><ele>371.0</ele><time>2026-04-15T13:02:28.15Z</time></trkpt><trkpt lat="45.7609733" lon="8.9797033"><ele>371.0</ele><time>2026-04-15T13:02:30.151Z</time></trkpt><trkpt lat="45.7608917" lon="8.97971"><ele>371.0</ele><time>2026-04-15T13:02:32.15Z</time></trkpt><trkpt lat="45.7607983" lon="8.9797217"><ele>370.6666666666667</ele><time>2026-04-15T13:02:34.15Z</time></trkpt><trkpt lat="45.7607083" lon="8.979725"><ele>370.33333333333337</ele><time>2026-04-15T13:02:36.149Z</time></trkpt><trkpt lat="45.760625" lon="8.9797167"><ele>370.0</ele><time>2026-04-15T13:02:38.15Z</time></trkpt><trkpt lat="45.7605417" lon="8.9797017"><ele>369.6666666666667</ele><time>2026-04-15T13:02:40.15Z</time></trkpt><trkpt lat="45.7604617" lon="8.9796833"><ele>369.3333333333333</ele><time>2026-04-15T13:02:42.149Z</time></trkpt><trkpt lat="45.760385" lon="8.97966"><ele>369.0</ele><time>2026-04-15T13:02:44.151Z</time></trkpt><trkpt lat="45.7603167" lon="8.9796667"><ele>369.0</ele><time>2026-04-15T13:02:46.15Z</time></trkpt><trkpt lat="45.760295" lon="8.9795567"><ele>369.0</ele><time>2026-04-15T13:02:50.15Z</time></trkpt><trkpt lat="45.760295" lon="8.9794417"><ele>369.0</ele><time>2026-04-15T13:02:53.15Z</time></trkpt><trkpt lat="45.76031" lon="8.9793483"><ele>369.0</ele><time>2026-04-15T13:02:56.152Z</time></trkpt><trkpt lat="45.760315" lon="8.9792467"><ele>369.0</ele><time>2026-04-15T13:02:59.151Z</time></trkpt><trkpt lat="45.7603083" lon="8.9791217"><ele>369.0</ele><time>2026-04-15T13:03:02.151Z</time></trkpt><trkpt lat="45.76032" lon="8.9789967"><ele>369.8333333333333</ele><time>2026-04-15T13:03:06.15Z</time></trkpt><trkpt lat="45.7603517" lon="8.9789083"><ele>370.6666666666667</ele><time>2026-04-15T13:03:09.149Z</time></trkpt><trkpt lat="45.760375" lon="8.9787967"><ele>371.5</ele><time>2026-04-15T13:03:12.15Z</time></trkpt><trkpt lat="45.760435" lon="8.9787133"><ele>372.33333333333337</ele><time>2026-04-15T13:03:15.15Z</time></trkpt><trkpt lat="45.7604967" lon="8.97864"><ele>373.1666666666667</ele><time>2026-04-15T13:03:18.15Z</time></trkpt><trkpt lat="45.7605667" lon="8.9785917"><ele>374.0</ele><time>2026-04-15T13:03:20.151Z</time></trkpt><trkpt lat="45.7606383" lon="8.978555"><ele>374.0</ele><time>2026-04-15T13:03:22.15Z</time></trkpt><trkpt lat="45.7607133" lon="8.9785117"><ele>374.0</ele><time>2026-04-15T13:03:24.151Z</time></trkpt><trkpt lat="45.76079" lon="8.978465"><ele>374.0</ele><time>2026-04-15T13:03:26.151Z</time></trkpt><trkpt lat="45.7608867" lon="8.978415"><ele>374.0</ele><time>2026-04-15T13:03:28.149Z</time></trkpt><trkpt lat="45.76096" lon="8.978375"><ele>374.0</ele><time>2026-04-15T13:03:30.15Z</time></trkpt><trkpt lat="45.761025" lon="8.9783183"><ele>374.0</ele><time>2026-04-15T13:03:32.151Z</time></trkpt><trkpt lat="45.7610983" lon="8.978275"><ele>372.6666666666667</ele><time>2026-04-15T13:03:34.15Z</time></trkpt><trkpt lat="45.7611683" lon="8.9782317"><ele>371.33333333333337</ele><time>2026-04-15T13:03:36.151Z</time></trkpt><trkpt lat="45.76124" lon="8.978155"><ele>370.0</ele><time>2026-04-15T13:03:38.152Z</time></trkpt><trkpt lat="45.7612833" lon="8.9780817"><ele>368.6666666666667</ele><time>2026-04-15T13:03:40.15Z</time></trkpt><trkpt lat="45.7613317" lon="8.97802"><ele>367.3333333333333</ele><time>2026-04-15T13:03:42.151Z</time></trkpt><trkpt lat="45.7614017" lon="8.97796"><ele>366.0</ele><time>2026-04-15T13:03:45.149Z</time></trkpt><trkpt lat="45.7614917" lon="8.9779267"><ele>366.0</ele><time>2026-04-15T13:03:48.148Z</time></trkpt><trkpt lat="45.7615633" lon="8.9778917"><ele>366.0</ele><time>2026-04-15T13:03:50.149Z</time></trkpt><trkpt lat="45.76164" lon="8.9778417"><ele>366.0</ele><time>2026-04-15T13:03:52.148Z</time></trkpt><trkpt lat="45.7617" lon="8.9777917"><ele>366.0</ele><time>2026-04-15T13:03:54.149Z</time></trkpt><trkpt lat="45.761765" lon="8.977735"><ele>366.0</ele><time>2026-04-15T13:03:56.149Z</time></trkpt><trkpt lat="45.76182" lon="8.977675"><ele>366.0</ele><time>2026-04-15T13:03:58.15Z</time></trkpt><trkpt lat="45.7618883" lon="8.97762"><ele>366.14285714285717</ele><time>2026-04-15T13:04:00.15Z</time></trkpt><trkpt lat="45.7619583" lon="8.9775617"><ele>366.28571428571433</ele><time>2026-04-15T13:04:02.15Z</time></trkpt><trkpt lat="45.7620233" lon="8.9775233"><ele>366.42857142857144</ele><time>2026-04-15T13:04:04.148Z</time></trkpt><trkpt lat="45.7620833" lon="8.9774683"><ele>366.57142857142856</ele><time>2026-04-15T13:04:06.15Z</time></trkpt><trkpt lat="45.76215" lon="8.977425"><ele>366.7142857142857</ele><time>2026-04-15T13:04:08.149Z</time></trkpt><trkpt lat="45.7622183" lon="8.977395"><ele>366.85714285714283</ele><time>2026-04-15T13:04:10.149Z</time></trkpt><trkpt lat="45.7622883" lon="8.9773733"><ele>367.0</ele><time>2026-04-15T13:04:12.149Z</time></trkpt><trkpt lat="45.762355" lon="8.9773617"><ele>367.0</ele><time>2026-04-15T13:04:14.15Z</time></trkpt><trkpt lat="45.762435" lon="8.97737"><ele>367.0</ele><time>2026-04-15T13:04:17.15Z</time></trkpt><trkpt lat="45.7625067" lon="8.9774383"><ele>367.0</ele><time>2026-04-15T13:04:20.149Z</time></trkpt><trkpt lat="45.7625267" lon="8.9775417"><ele>367.0</ele><time>2026-04-15T13:04:23.152Z</time></trkpt><trkpt lat="45.7625033" lon="8.977635"><ele>367.0</ele><time>2026-04-15T13:04:25.15Z</time></trkpt><trkpt lat="45.7624717" lon="8.97775"><ele>367.0</ele><time>2026-04-15T13:04:27.149Z</time></trkpt><trkpt lat="45.762455" lon="8.9778833"><ele>367.0</ele><time>2026-04-15T13:04:29.149Z</time></trkpt><trkpt lat="45.7624383" lon="8.978005"><ele>367.0</ele><time>2026-04-15T13:04:31.149Z</time></trkpt><trkpt lat="45.7624317" lon="8.9781417"><ele>367.0</ele><time>2026-04-15T13:04:33.148Z</time></trkpt><trkpt lat="45.7624167" lon="8.97826"><ele>367.0</ele><time>2026-04-15T13:04:35.149Z</time></trkpt><trkpt lat="45.7624517" lon="8.9783583"><ele>367.0</ele><time>2026-04-15T13:04:39.149Z</time></trkpt><trkpt lat="45.7625417" lon="8.9783767"><ele>367.0</ele><time>2026-04-15T13:04:42.15Z</time></trkpt><trkpt lat="45.7626133" lon="8.9783717"><ele>366.85714285714283</ele><time>2026-04-15T13:04:44.15Z</time></trkpt><trkpt lat="45.7626783" lon="8.9783733"><ele>366.7142857142857</ele><time>2026-04-15T13:04:46.15Z</time></trkpt><trkpt lat="45.7627433" lon="8.9783717"><ele>366.57142857142856</ele><time>2026-04-15T13:04:48.151Z</time></trkpt><trkpt lat="45.7628317" lon="8.9783567"><ele>366.42857142857144</ele><time>2026-04-15T13:04:51.15Z</time></trkpt><trkpt lat="45.7629" lon="8.978365"><ele>366.28571428571433</ele><time>2026-04-15T13:04:53.151Z</time></trkpt><trkpt lat="45.762975" lon="8.978375"><ele>366.14285714285717</ele><time>2026-04-15T13:04:55.153Z</time></trkpt><trkpt lat="45.76305" lon="8.978385"><ele>366.0</ele><time>2026-04-15T13:04:57.15Z</time></trkpt><trkpt lat="45.7631333" lon="8.9783867"><ele>367.0</ele><time>2026-04-15T13:04:59.15Z</time></trkpt><trkpt lat="45.7632117" lon="8.9783917"><ele>368.0</ele><time>2026-04-15T13:05:01.151Z</time></trkpt><trkpt lat="45.7632933" lon="8.9783883"><ele>369.0</ele><time>2026-04-15T13:05:03.15Z</time></trkpt><trkpt lat="45.7633783" lon="8.9783917"><ele>370.0</ele><time>2026-04-15T13:05:05.151Z</time></trkpt><trkpt lat="45.7634583" lon="8.978395"><ele>371.0</ele><time>2026-04-15T13:05:07.15Z</time></trkpt><trkpt lat="45.7635333" lon="8.978385"><ele>372.0</ele><time>2026-04-15T13:05:09.151Z</time></trkpt><trkpt lat="45.76362" lon="8.978375"><ele>372.5</ele><time>2026-04-15T13:05:12.148Z</time></trkpt><trkpt lat="45.76369" lon="8.9783317"><ele>373.0</ele><time>2026-04-15T13:05:15.148Z</time></trkpt><trkpt lat="45.76378" lon="8.978365"><ele>373.5</ele><time>2026-04-15T13:05:18.148Z</time></trkpt><trkpt lat="45.76386" lon="8.9784"><ele>374.0</ele><time>2026-04-15T13:05:20.149Z</time></trkpt><trkpt lat="45.7639267" lon="8.9784233"><ele>374.5</ele><time>2026-04-15T13:05:22.148Z</time></trkpt><trkpt lat="45.7640233" lon="8.9784233"><ele>375.0</ele><time>2026-04-15T13:05:24.151Z</time></trkpt><trkpt lat="45.7641133" lon="8.9784433"><ele>375.0</ele><time>2026-04-15T13:05:26.15Z</time></trkpt><trkpt lat="45.7642267" lon="8.978455"><ele>375.0</ele><time>2026-04-15T13:05:28.15Z</time></trkpt><trkpt lat="45.764325" lon="8.978465"><ele>375.0</ele><time>2026-04-15T13:05:30.15Z</time></trkpt><trkpt lat="45.7644167" lon="8.9784767"><ele>375.0</ele><time>2026-04-15T13:05:32.149Z</time></trkpt><trkpt lat="45.7645" lon="8.9785033"><ele>375.0</ele><time>2026-04-15T13:05:34.149Z</time></trkpt><trkpt lat="45.764595" lon="8.978515"><ele>375.3333333333333</ele><time>2026-04-15T13:05:36.149Z</time></trkpt><trkpt lat="45.7646667" lon="8.978505"><ele>375.6666666666667</ele><time>2026-04-15T13:05:38.15Z</time></trkpt><trkpt lat="45.76474" lon="8.9784667"><ele>376.0</ele><time>2026-04-15T13:05:40.149Z</time></trkpt><trkpt lat="45.7648117" lon="8.9783883"><ele>376.33333333333337</ele><time>2026-04-15T13:05:42.149Z</time></trkpt><trkpt lat="45.7648817" lon="8.9783167"><ele>376.6666666666667</ele><time>2026-04-15T13:05:44.15Z</time></trkpt><trkpt lat="45.7649417" lon="8.9782467"><ele>377.0</ele><time>2026-04-15T13:05:46.149Z</time></trkpt><trkpt lat="45.76502" lon="8.978165"><ele>377.0</ele><time>2026-04-15T13:05:48.149Z</time></trkpt><trkpt lat="45.7650583" lon="8.9780933"><ele>377.0</ele><time>2026-04-15T13:05:50.153Z</time></trkpt><trkpt lat="45.7651167" lon="8.9779817"><ele>377.0</ele><time>2026-04-15T13:05:53.151Z</time></trkpt><trkpt lat="45.76517" lon="8.9779067"><ele>377.0</ele><time>2026-04-15T13:05:55.151Z</time></trkpt><trkpt lat="45.76524" lon="8.9778517"><ele>377.0</ele><time>2026-04-15T13:05:58.151Z</time></trkpt><trkpt lat="45.7653117" lon="8.9778"><ele>377.0</ele><time>2026-04-15T13:06:01.15Z</time></trkpt><trkpt lat="45.7653717" lon="8.9777517"><ele>377.57142857142856</ele><time>2026-04-15T13:06:03.149Z</time></trkpt><trkpt lat="45.765425" lon="8.9777"><ele>378.1428571428571</ele><time>2026-04-15T13:06:05.151Z</time></trkpt><trkpt lat="45.7654817" lon="8.9776333"><ele>378.71428571428567</ele><time>2026-04-15T13:06:07.15Z</time></trkpt><trkpt lat="45.7655417" lon="8.977555"><ele>379.2857142857143</ele><time>2026-04-15T13:06:10.15Z</time></trkpt><trkpt lat="45.765595" lon="8.9775067"><ele>379.8571428571429</ele><time>2026-04-15T13:06:12.149Z</time></trkpt><trkpt lat="45.7656533" lon="8.977445"><ele>380.4285714285714</ele><time>2026-04-15T13:06:15.151Z</time></trkpt><trkpt lat="45.765735" lon="8.9773867"><ele>381.0</ele><time>2026-04-15T13:06:18.151Z</time></trkpt><trkpt lat="45.76582" lon="8.9773017"><ele>381.1666666666667</ele><time>2026-04-15T13:06:21.149Z</time></trkpt><trkpt lat="45.7658817" lon="8.9772"><ele>381.3333333333333</ele><time>2026-04-15T13:06:24.151Z</time></trkpt><trkpt lat="45.7659367" lon="8.97713"><ele>381.5</ele><time>2026-04-15T13:06:27.15Z</time></trkpt><trkpt lat="45.7660017" lon="8.9770717"><ele>381.66666666666663</ele><time>2026-04-15T13:06:31.151Z</time></trkpt><trkpt lat="45.7660667" lon="8.9770267"><ele>381.8333333333333</ele><time>2026-04-15T13:06:34.15Z</time></trkpt><trkpt lat="45.7661267" lon="8.9769883"><ele>382.0</ele><time>2026-04-15T13:06:36.151Z</time></trkpt><trkpt lat="45.7662133" lon="8.9769433"><ele>383.0</ele><time>2026-04-15T13:06:39.151Z</time></trkpt><trkpt lat="45.7663017" lon="8.976915"><ele>384.0</ele><time>2026-04-15T13:06:42.152Z</time></trkpt><trkpt lat="45.76637" lon="8.976885"><ele>385.0</ele><time>2026-04-15T13:06:45.152Z</time></trkpt><trkpt lat="45.7664383" lon="8.9768167"><ele>386.0</ele><time>2026-04-15T13:06:49.15Z</time></trkpt><trkpt lat="45.7665017" lon="8.9767883"><ele>387.00000000000006</ele><time>2026-04-15T13:06:52.15Z</time></trkpt><trkpt lat="45.7665783" lon="8.976775"><ele>388.0</ele><time>2026-04-15T13:06:57.15Z</time></trkpt><trkpt lat="45.7666567" lon="8.976785"><ele>388.00000000000006</ele><time>2026-04-15T13:07:01.151Z</time></trkpt><trkpt lat="45.7667333" lon="8.9768017"><ele>388.0</ele><time>2026-04-15T13:07:04.15Z</time></trkpt><trkpt lat="45.76681" lon="8.97681"><ele>388.0</ele><time>2026-04-15T13:07:07.151Z</time></trkpt><trkpt lat="45.7668567" lon="8.9768717"><ele>388.0</ele><time>2026-04-15T13:07:09.151Z</time></trkpt><trkpt lat="45.7669283" lon="8.9769783"><ele>388.00000000000006</ele><time>2026-04-15T13:07:11.15Z</time></trkpt><trkpt lat="45.7669967" lon="8.977105"><ele>388.0</ele><time>2026-04-15T13:07:13.151Z</time></trkpt><trkpt lat="45.7670533" lon="8.9772167"><ele>388.00000000000006</ele><time>2026-04-15T13:07:15.151Z</time></trkpt><trkpt lat="45.76711" lon="8.9773267"><ele>388.0</ele><time>2026-04-15T13:07:17.15Z</time></trkpt><trkpt lat="45.76716" lon="8.9774267"><ele>388.0</ele><time>2026-04-15T13:07:19.152Z</time></trkpt><trkpt lat="45.7672367" lon="8.9775067"><ele>388.0</ele><time>2026-04-15T13:07:22.15Z</time></trkpt><trkpt lat="45.7672933" lon="8.97756"><ele>388.00000000000006</ele><time>2026-04-15T13:07:24.151Z</time></trkpt><trkpt lat="45.7673133" lon="8.977655"><ele>388.0</ele><time>2026-04-15T13:07:26.149Z</time></trkpt><trkpt lat="45.76729" lon="8.9777617"><ele>386.0</ele><time>2026-04-15T13:07:29.149Z</time></trkpt><trkpt lat="45.7672167" lon="8.9778317"><ele>384.0</ele><time>2026-04-15T13:07:32.149Z</time></trkpt><trkpt lat="45.7671367" lon="8.9778933"><ele>382.0</ele><time>2026-04-15T13:07:35.149Z</time></trkpt><trkpt lat="45.7670917" lon="8.978035"><ele>380.0</ele><time>2026-04-15T13:07:38.151Z</time></trkpt><trkpt lat="45.7670767" lon="8.9781517"><ele>378.0</ele><time>2026-04-15T13:07:40.15Z</time></trkpt><trkpt lat="45.76706" lon="8.9782833"><ele>377.1666666666667</ele><time>2026-04-15T13:07:42.15Z</time></trkpt><trkpt lat="45.767045" lon="8.9784133"><ele>376.3333333333333</ele><time>2026-04-15T13:07:44.15Z</time></trkpt><trkpt lat="45.7670233" lon="8.978535"><ele>375.5</ele><time>2026-04-15T13:07:46.15Z</time></trkpt><trkpt lat="45.7670283" lon="8.9786417"><ele>374.66666666666663</ele><time>2026-04-15T13:07:48.15Z</time></trkpt><trkpt lat="45.767045" lon="8.9787767"><ele>373.8333333333333</ele><time>2026-04-15T13:07:51.15Z</time></trkpt><trkpt lat="45.7670617" lon="8.97888"><ele>373.0</ele><time>2026-04-15T13:07:53.15Z</time></trkpt><trkpt lat="45.7671" lon="8.9789967"><ele>373.0</ele><time>2026-04-15T13:07:55.15Z</time></trkpt><trkpt lat="45.7671383" lon="8.9791483"><ele>373.0</ele><time>2026-04-15T13:07:57.15Z</time></trkpt><trkpt lat="45.767155" lon="8.979245"><ele>373.0</ele><time>2026-04-15T13:07:58.149Z</time></trkpt><trkpt lat="45.767175" lon="8.9793317"><ele>373.0</ele><time>2026-04-15T13:07:59.149Z</time></trkpt><trkpt lat="45.7672067" lon="8.9794967"><ele>373.0</ele><time>2026-04-15T13:08:01.149Z</time></trkpt><trkpt lat="45.767235" lon="8.979625"><ele>372.8333333333333</ele><time>2026-04-15T13:08:03.15Z</time></trkpt><trkpt lat="45.767235" lon="8.9797383"><ele>372.66666666666663</ele><time>2026-04-15T13:08:06.151Z</time></trkpt><trkpt lat="45.7671917" lon="8.9798383"><ele>372.5</ele><time>2026-04-15T13:08:09.15Z</time></trkpt><trkpt lat="45.7671367" lon="8.9799117"><ele>372.3333333333333</ele><time>2026-04-15T13:08:11.151Z</time></trkpt><trkpt lat="45.7670633" lon="8.9799467"><ele>372.1666666666667</ele><time>2026-04-15T13:08:14.152Z</time></trkpt><trkpt lat="45.766985" lon="8.97995"><ele>372.0</ele><time>2026-04-15T13:08:17.149Z</time></trkpt><trkpt lat="45.766905" lon="8.9799283"><ele>373.40000000000003</ele><time>2026-04-15T13:08:20.152Z</time></trkpt><trkpt lat="45.7668117" lon="8.979935"><ele>374.8</ele><time>2026-04-15T13:08:23.15Z</time></trkpt><trkpt lat="45.7667233" lon="8.9798917"><ele>376.2</ele><time>2026-04-15T13:08:26.152Z</time></trkpt><trkpt lat="45.7666383" lon="8.9798517"><ele>377.6</ele><time>2026-04-15T13:08:29.15Z</time></trkpt><trkpt lat="45.766555" lon="8.979805"><ele>379.0</ele><time>2026-04-15T13:08:32.15Z</time></trkpt><trkpt lat="45.7664683" lon="8.979765"><ele>379.0</ele><time>2026-04-15T13:08:35.149Z</time></trkpt><trkpt lat="45.7664033" lon="8.979755"><ele>379.0</ele><time>2026-04-15T13:08:37.151Z</time></trkpt><trkpt lat="45.7663167" lon="8.979735"><ele>379.0</ele><time>2026-04-15T13:08:40.15Z</time></trkpt><trkpt lat="45.76624" lon="8.9797033"><ele>379.0</ele><time>2026-04-15T13:08:43.15Z</time></trkpt><trkpt lat="45.766155" lon="8.9796683"><ele>379.0</ele><time>2026-04-15T13:08:46.149Z</time></trkpt><trkpt lat="45.7660733" lon="8.979605"><ele>379.0</ele><time>2026-04-15T13:08:49.15Z</time></trkpt><trkpt lat="45.7659933" lon="8.9796067"><ele>378.5</ele><time>2026-04-15T13:08:52.149Z</time></trkpt><trkpt lat="45.7659267" lon="8.97962"><ele>378.0</ele><time>2026-04-15T13:08:54.15Z</time></trkpt><trkpt lat="45.7658333" lon="8.9796067"><ele>377.5</ele><time>2026-04-15T13:08:57.15Z</time></trkpt><trkpt lat="45.765755" lon="8.979595"><ele>377.0</ele><time>2026-04-15T13:08:59.149Z</time></trkpt><trkpt lat="45.7656917" lon="8.9795933"><ele>376.5</ele><time>2026-04-15T13:09:01.15Z</time></trkpt><trkpt lat="45.7656183" lon="8.979585"><ele>376.0</ele><time>2026-04-15T13:09:03.15Z</time></trkpt><trkpt lat="45.7655317" lon="8.9795967"><ele>376.0</ele><time>2026-04-15T13:09:05.151Z</time></trkpt><trkpt lat="45.76544" lon="8.9796117"><ele>376.0</ele><time>2026-04-15T13:09:07.15Z</time></trkpt><trkpt lat="45.7653533" lon="8.979585"><ele>376.0</ele><time>2026-04-15T13:09:09.15Z</time></trkpt><trkpt lat="45.7652667" lon="8.9795733"><ele>376.0</ele><time>2026-04-15T13:09:11.151Z</time></trkpt><trkpt lat="45.76518" lon="8.9795683"><ele>376.0</ele><time>2026-04-15T13:09:13.15Z</time></trkpt><trkpt lat="45.76509" lon="8.97957"><ele>376.0</ele><time>2026-04-15T13:09:15.15Z</time></trkpt><trkpt lat="45.7650083" lon="8.9795617"><ele>376.0</ele><time>2026-04-15T13:09:17.15Z</time></trkpt><trkpt lat="45.7649233" lon="8.97957"><ele>376.0</ele><time>2026-04-15T13:09:19.149Z</time></trkpt><trkpt lat="45.76485" lon="8.97961"><ele>376.0</ele><time>2026-04-15T13:09:22.149Z</time></trkpt><trkpt lat="45.7647817" lon="8.97961"><ele>376.0</ele><time>2026-04-15T13:09:25.148Z</time></trkpt><trkpt lat="45.7647183" lon="8.9796017"><ele>376.0</ele><time>2026-04-15T13:09:27.147Z</time></trkpt><trkpt lat="45.76463" lon="8.97959"><ele>376.0</ele><time>2026-04-15T13:09:30.148Z</time></trkpt><trkpt lat="45.7645567" lon="8.9796067"><ele>376.0</ele><time>2026-04-15T13:09:34.148Z</time></trkpt><trkpt lat="45.7644833" lon="8.9796283"><ele>376.0</ele><time>2026-04-15T13:09:37.148Z</time></trkpt><trkpt lat="45.764415" lon="8.97963"><ele>376.0</ele><time>2026-04-15T13:09:39.149Z</time></trkpt><trkpt lat="45.7643467" lon="8.97963"><ele>376.0</ele><time>2026-04-15T13:09:41.15Z</time></trkpt><trkpt lat="45.7642817" lon="8.9796283"><ele>376.0</ele><time>2026-04-15T13:09:43.148Z</time></trkpt><trkpt lat="45.7642183" lon="8.9796383"><ele>376.0</ele><time>2026-04-15T13:09:45.151Z</time></trkpt><trkpt lat="45.7641467" lon="8.9796333"><ele>376.0</ele><time>2026-04-15T13:09:47.151Z</time></trkpt><trkpt lat="45.7640683" lon="8.9796367"><ele>376.1428571428571</ele><time>2026-04-15T13:09:49.151Z</time></trkpt><trkpt lat="45.7639967" lon="8.9796683"><ele>376.2857142857143</ele><time>2026-04-15T13:09:52.15Z</time></trkpt><trkpt lat="45.7639467" lon="8.979735"><ele>376.42857142857144</ele><time>2026-04-15T13:09:54.15Z</time></trkpt><trkpt lat="45.7638983" lon="8.979805"><ele>376.57142857142856</ele><time>2026-04-15T13:09:56.151Z</time></trkpt><trkpt lat="45.7638467" lon="8.979885"><ele>376.7142857142857</ele><time>2026-04-15T13:09:58.149Z</time></trkpt><trkpt lat="45.7638083" lon="8.9799767"><ele>376.85714285714283</ele><time>2026-04-15T13:10:00.15Z</time></trkpt><trkpt lat="45.7638067" lon="8.9800717"><ele>377.0</ele><time>2026-04-15T13:10:02.151Z</time></trkpt><trkpt lat="45.763805" lon="8.9801633"><ele>376.99999999999994</ele><time>2026-04-15T13:10:04.15Z</time></trkpt><trkpt lat="45.763785" lon="8.9802567"><ele>377.0</ele><time>2026-04-15T13:10:06.15Z</time></trkpt><trkpt lat="45.7637583" lon="8.9803483"><ele>377.0</ele><time>2026-04-15T13:10:08.151Z</time></trkpt><trkpt lat="45.7637283" lon="8.98044"><ele>377.0</ele><time>2026-04-15T13:10:10.149Z</time></trkpt><trkpt lat="45.7636867" lon="8.9805317"><ele>377.0</ele><time>2026-04-15T13:10:12.15Z</time></trkpt><trkpt lat="45.7636483" lon="8.980635"><ele>376.99999999999994</ele><time>2026-04-15T13:10:14.149Z</time></trkpt><trkpt lat="45.76364" lon="8.9807417"><ele>377.0</ele><time>2026-04-15T13:10:16.149Z</time></trkpt><trkpt lat="45.7636583" lon="8.98088"><ele>375.8</ele><time>2026-04-15T13:10:18.149Z</time></trkpt><trkpt lat="45.763685" lon="8.9810217"><ele>374.6</ele><time>2026-04-15T13:10:20.15Z</time></trkpt><trkpt lat="45.7637317" lon="8.9811767"><ele>373.40000000000003</ele><time>2026-04-15T13:10:22.15Z</time></trkpt><trkpt lat="45.763755" lon="8.9813067"><ele>372.20000000000005</ele><time>2026-04-15T13:10:24.15Z</time></trkpt><trkpt lat="45.7637783" lon="8.98142"><ele>371.0</ele><time>2026-04-15T13:10:26.153Z</time></trkpt><trkpt lat="45.7638483" lon="8.9815517"><ele>369.6</ele><time>2026-04-15T13:10:28.15Z</time></trkpt><trkpt lat="45.7639033" lon="8.98169"><ele>368.20000000000005</ele><time>2026-04-15T13:10:30.15Z</time></trkpt><trkpt lat="45.76396" lon="8.9818317"><ele>366.79999999999995</ele><time>2026-04-15T13:10:32.152Z</time></trkpt><trkpt lat="45.7638983" lon="8.9819167"><ele>365.4</ele><time>2026-04-15T13:10:37.15Z</time></trkpt><trkpt lat="45.7638183" lon="8.9819217"><ele>364.0</ele><time>2026-04-15T13:10:39.149Z</time></trkpt><trkpt lat="45.763755" lon="8.9819567"><ele>364.0</ele><time>2026-04-15T13:10:41.15Z</time></trkpt><trkpt lat="45.7636917" lon="8.9819983"><ele>364.0</ele><time>2026-04-15T13:10:44.151Z</time></trkpt><trkpt lat="45.76363" lon="8.982075"><ele>364.0</ele><time>2026-04-15T13:10:49.15Z</time></trkpt><trkpt lat="45.7635867" lon="8.9821617"><ele>364.0</ele><time>2026-04-15T13:10:55.149Z</time></trkpt><trkpt lat="45.7635333" lon="8.982225"><ele>364.0</ele><time>2026-04-15T13:11:01.149Z</time></trkpt><trkpt lat="45.76346" lon="8.9822483"><ele>364.0</ele><time>2026-04-15T13:11:04.149Z</time></trkpt><trkpt lat="45.7633967" lon="8.9822317"><ele>364.0</ele><time>2026-04-15T13:11:06.151Z</time></trkpt><trkpt lat="45.763325" lon="8.9822583"><ele>363.16666666666663</ele><time>2026-04-15T13:11:08.151Z</time></trkpt><trkpt lat="45.76326" lon="8.98233"><ele>362.3333333333333</ele><time>2026-04-15T13:11:10.149Z</time></trkpt><trkpt lat="45.7632267" lon="8.9824233"><ele>361.5</ele><time>2026-04-15T13:11:12.149Z</time></trkpt><trkpt lat="45.7631833" lon="8.9825267"><ele>360.6666666666667</ele><time>2026-04-15T13:11:14.149Z</time></trkpt><trkpt lat="45.7631167" lon="8.9826267"><ele>359.83333333333337</ele><time>2026-04-15T13:11:16.151Z</time></trkpt><trkpt lat="45.763045" lon="8.9827467"><ele>359.0</ele><time>2026-04-15T13:11:18.151Z</time></trkpt><trkpt lat="45.763005" lon="8.9828667"><ele>358.2</ele><time>2026-04-15T13:11:20.153Z</time></trkpt><trkpt lat="45.7630017" lon="8.9830033"><ele>357.4</ele><time>2026-04-15T13:11:22.15Z</time></trkpt><trkpt lat="45.7630483" lon="8.9831633"><ele>356.6</ele><time>2026-04-15T13:11:24.151Z</time></trkpt><trkpt lat="45.763115" lon="8.9832667"><ele>355.8</ele><time>2026-04-15T13:11:26.15Z</time></trkpt><trkpt lat="45.763165" lon="8.9833567"><ele>355.0</ele><time>2026-04-15T13:11:28.151Z</time></trkpt><trkpt lat="45.7632233" lon="8.983455"><ele>354.5</ele><time>2026-04-15T13:11:31.15Z</time></trkpt><trkpt lat="45.7632733" lon="8.9835267"><ele>354.0</ele><time>2026-04-15T13:11:33.151Z</time></trkpt><trkpt lat="45.7633167" lon="8.9836517"><ele>353.5</ele><time>2026-04-15T13:11:35.148Z</time></trkpt><trkpt lat="45.76333" lon="8.9837933"><ele>353.0</ele><time>2026-04-15T13:11:37.15Z</time></trkpt><trkpt lat="45.7633183" lon="8.9838967"><ele>352.5</ele><time>2026-04-15T13:11:39.15Z</time></trkpt><trkpt lat="45.76338" lon="8.9839383"><ele>352.0</ele><time>2026-04-15T13:11:43.152Z</time></trkpt><trkpt lat="45.7634567" lon="8.983925"><ele>351.8333333333333</ele><time>2026-04-15T13:11:46.15Z</time></trkpt><trkpt lat="45.7635533" lon="8.9839067"><ele>351.66666666666663</ele><time>2026-04-15T13:11:49.15Z</time></trkpt><trkpt lat="45.7636183" lon="8.9839083"><ele>351.5</ele><time>2026-04-15T13:11:51.149Z</time></trkpt><trkpt lat="45.7637167" lon="8.9839117"><ele>351.3333333333333</ele><time>2026-04-15T13:11:54.149Z</time></trkpt><trkpt lat="45.763785" lon="8.98392"><ele>351.1666666666667</ele><time>2026-04-15T13:11:56.151Z</time></trkpt><trkpt lat="45.76387" lon="8.9839383"><ele>351.0</ele><time>2026-04-15T13:11:58.15Z</time></trkpt><trkpt lat="45.7639517" lon="8.9839467"><ele>351.0</ele><time>2026-04-15T13:12:00.151Z</time></trkpt><trkpt lat="45.7640283" lon="8.9839633"><ele>351.0</ele><time>2026-04-15T13:12:02.151Z</time></trkpt><trkpt lat="45.7641167" lon="8.9839833"><ele>351.0</ele><time>2026-04-15T13:12:04.15Z</time></trkpt><trkpt lat="45.7641967" lon="8.9839917"><ele>351.0</ele><time>2026-04-15T13:12:06.151Z</time></trkpt><trkpt lat="45.76434" lon="8.984"><ele>351.0</ele><time>2026-04-15T13:12:09.149Z</time></trkpt><trkpt lat="45.7644283" lon="8.9840067"><ele>351.5</ele><time>2026-04-15T13:12:11.15Z</time></trkpt><trkpt lat="45.7645133" lon="8.984005"><ele>352.0</ele><time>2026-04-15T13:12:14.149Z</time></trkpt><trkpt lat="45.7645833" lon="8.98402"><ele>352.5</ele><time>2026-04-15T13:12:16.148Z</time></trkpt><trkpt lat="45.7646683" lon="8.9840233"><ele>353.0</ele><time>2026-04-15T13:12:18.15Z</time></trkpt><trkpt lat="45.7647817" lon="8.984025"><ele>353.5</ele><time>2026-04-15T13:12:21.149Z</time></trkpt><trkpt lat="45.7648483" lon="8.9840417"><ele>354.0</ele><time>2026-04-15T13:12:23.151Z</time></trkpt><trkpt lat="45.7649283" lon="8.9840433"><ele>354.0</ele><time>2026-04-15T13:12:25.15Z</time></trkpt><trkpt lat="45.7649933" lon="8.9840333"><ele>354.0</ele><time>2026-04-15T13:12:27.15Z</time></trkpt><trkpt lat="45.7650817" lon="8.98403"><ele>354.0</ele><time>2026-04-15T13:12:29.149Z</time></trkpt><trkpt lat="45.7651817" lon="8.9840367"><ele>354.0</ele><time>2026-04-15T13:12:31.15Z</time></trkpt><trkpt lat="45.76527" lon="8.9840567"><ele>354.0</ele><time>2026-04-15T13:12:33.151Z</time></trkpt><trkpt lat="45.7653583" lon="8.9840867"><ele>354.0</ele><time>2026-04-15T13:12:35.15Z</time></trkpt><trkpt lat="45.7654417" lon="8.98412"><ele>353.8333333333333</ele><time>2026-04-15T13:12:37.15Z</time></trkpt><trkpt lat="45.7655267" lon="8.9841417"><ele>353.6666666666667</ele><time>2026-04-15T13:12:39.151Z</time></trkpt><trkpt lat="45.7656017" lon="8.9841683"><ele>353.5</ele><time>2026-04-15T13:12:41.149Z</time></trkpt><trkpt lat="45.7656833" lon="8.9841983"><ele>353.33333333333337</ele><time>2026-04-15T13:12:43.15Z</time></trkpt><trkpt lat="45.7657567" lon="8.9842483"><ele>353.1666666666667</ele><time>2026-04-15T13:12:45.15Z</time></trkpt><trkpt lat="45.7657833" lon="8.984355"><ele>353.0</ele><time>2026-04-15T13:12:47.151Z</time></trkpt><trkpt lat="45.7657767" lon="8.9844783"><ele>351.59999999999997</ele><time>2026-04-15T13:12:49.15Z</time></trkpt><trkpt lat="45.7657633" lon="8.984615"><ele>350.2</ele><time>2026-04-15T13:12:51.15Z</time></trkpt><trkpt lat="45.765755" lon="8.984765"><ele>348.8</ele><time>2026-04-15T13:12:53.149Z</time></trkpt><trkpt lat="45.7657333" lon="8.9849133"><ele>347.4</ele><time>2026-04-15T13:12:55.15Z</time></trkpt><trkpt lat="45.765705" lon="8.98507"><ele>346.0</ele><time>2026-04-15T13:12:57.151Z</time></trkpt><trkpt lat="45.7656767" lon="8.9852267"><ele>345.0</ele><time>2026-04-15T13:12:59.15Z</time></trkpt><trkpt lat="45.765645" lon="8.9853817"><ele>344.0</ele><time>2026-04-15T13:13:01.149Z</time></trkpt><trkpt lat="45.7656167" lon="8.9855383"><ele>343.0</ele><time>2026-04-15T13:13:03.151Z</time></trkpt><trkpt lat="45.7655883" lon="8.9857"><ele>342.0</ele><time>2026-04-15T13:13:05.151Z</time></trkpt><trkpt lat="45.7655767" lon="8.98586"><ele>342.0</ele><time>2026-04-15T13:13:07.151Z</time></trkpt><trkpt lat="45.7656067" lon="8.98601"><ele>342.0</ele><time>2026-04-15T13:13:09.151Z</time></trkpt><trkpt lat="45.76566" lon="8.9861483"><ele>342.0</ele><time>2026-04-15T13:13:11.15Z</time></trkpt><trkpt lat="45.7657217" lon="8.986275"><ele>342.0</ele><time>2026-04-15T13:13:13.149Z</time></trkpt><trkpt lat="45.765775" lon="8.9864017"><ele>342.0</ele><time>2026-04-15T13:13:15.149Z</time></trkpt><trkpt lat="45.765835" lon="8.9865217"><ele>342.0</ele><time>2026-04-15T13:13:17.153Z</time></trkpt><trkpt lat="45.7658867" lon="8.98664"><ele>342.0</ele><time>2026-04-15T13:13:19.152Z</time></trkpt><trkpt lat="45.765935" lon="8.9867617"><ele>342.0</ele><time>2026-04-15T13:13:21.15Z</time></trkpt><trkpt lat="45.7659867" lon="8.9868767"><ele>342.0</ele><time>2026-04-15T13:13:23.151Z</time></trkpt><trkpt lat="45.76604" lon="8.98699"><ele>342.0</ele><time>2026-04-15T13:13:25.15Z</time></trkpt><trkpt lat="45.7660883" lon="8.9871067"><ele>342.20000000000005</ele><time>2026-04-15T13:13:27.15Z</time></trkpt><trkpt lat="45.7661467" lon="8.9872183"><ele>342.4</ele><time>2026-04-15T13:13:29.15Z</time></trkpt><trkpt lat="45.7662033" lon="8.98733"><ele>342.6</ele><time>2026-04-15T13:13:31.15Z</time></trkpt><trkpt lat="45.7662617" lon="8.98744"><ele>342.79999999999995</ele><time>2026-04-15T13:13:33.15Z</time></trkpt><trkpt lat="45.7663167" lon="8.9875533"><ele>343.0</ele><time>2026-04-15T13:13:35.151Z</time></trkpt><trkpt lat="45.7663683" lon="8.9876733"><ele>343.0</ele><time>2026-04-15T13:13:37.153Z</time></trkpt><trkpt lat="45.7664183" lon="8.9877983"><ele>343.0</ele><time>2026-04-15T13:13:39.151Z</time></trkpt><trkpt lat="45.7664683" lon="8.9879217"><ele>343.0</ele><time>2026-04-15T13:13:41.15Z</time></trkpt><trkpt lat="45.7665217" lon="8.9880367"><ele>343.0</ele><time>2026-04-15T13:13:43.15Z</time></trkpt><trkpt lat="45.7665867" lon="8.9881517"><ele>343.0</ele><time>2026-04-15T13:13:45.149Z</time></trkpt><trkpt lat="45.7666517" lon="8.988265"><ele>342.79999999999995</ele><time>2026-04-15T13:13:47.15Z</time></trkpt><trkpt lat="45.7667033" lon="8.988375"><ele>342.6</ele><time>2026-04-15T13:13:49.15Z</time></trkpt><trkpt lat="45.7667567" lon="8.988485"><ele>342.4</ele><time>2026-04-15T13:13:51.149Z</time></trkpt><trkpt lat="45.7668083" lon="8.9885983"><ele>342.20000000000005</ele><time>2026-04-15T13:13:53.15Z</time></trkpt><trkpt lat="45.7668667" lon="8.98871"><ele>342.0</ele><time>2026-04-15T13:13:55.149Z</time></trkpt><trkpt lat="45.7669233" lon="8.9888267"><ele>341.8</ele><time>2026-04-15T13:13:57.15Z</time></trkpt><trkpt lat="45.766975" lon="8.988945"><ele>341.6</ele><time>2026-04-15T13:13:59.15Z</time></trkpt><trkpt lat="45.7670317" lon="8.98906"><ele>341.40000000000003</ele><time>2026-04-15T13:14:01.15Z</time></trkpt><trkpt lat="45.767085" lon="8.98918"><ele>341.20000000000005</ele><time>2026-04-15T13:14:03.15Z</time></trkpt><trkpt lat="45.7671367" lon="8.989305"><ele>341.0</ele><time>2026-04-15T13:14:05.15Z</time></trkpt><trkpt lat="45.7671933" lon="8.9894367"><ele>341.33333333333337</ele><time>2026-04-15T13:14:07.151Z</time></trkpt><trkpt lat="45.7672467" lon="8.989545"><ele>341.6666666666667</ele><time>2026-04-15T13:14:09.154Z</time></trkpt><trkpt lat="45.767295" lon="8.9896033"><ele>342.0</ele><time>2026-04-15T13:14:11.15Z</time></trkpt><trkpt lat="45.7673583" lon="8.989605"><ele>342.3333333333333</ele><time>2026-04-15T13:14:13.15Z</time></trkpt><trkpt lat="45.76743" lon="8.9895833"><ele>342.66666666666663</ele><time>2026-04-15T13:14:15.149Z</time></trkpt><trkpt lat="45.7675017" lon="8.9895383"><ele>343.0</ele><time>2026-04-15T13:14:17.15Z</time></trkpt><trkpt lat="45.7675733" lon="8.9894867"><ele>343.0</ele><time>2026-04-15T13:14:19.15Z</time></trkpt><trkpt lat="45.7676483" lon="8.98943"><ele>343.0</ele><time>2026-04-15T13:14:21.151Z</time></trkpt><trkpt lat="45.7677217" lon="8.9893733"><ele>343.0</ele><time>2026-04-15T13:14:23.151Z</time></trkpt><trkpt lat="45.767795" lon="8.9893217"><ele>343.0</ele><time>2026-04-15T13:14:25.151Z</time></trkpt><trkpt lat="45.76787" lon="8.989265"><ele>343.0</ele><time>2026-04-15T13:14:27.149Z</time></trkpt><trkpt lat="45.7679417" lon="8.9892083"><ele>343.0</ele><time>2026-04-15T13:14:29.15Z</time></trkpt><trkpt lat="45.7680217" lon="8.98916"><ele>343.16666666666663</ele><time>2026-04-15T13:14:31.149Z</time></trkpt><trkpt lat="45.76809" lon="8.9890933"><ele>343.3333333333333</ele><time>2026-04-15T13:14:33.15Z</time></trkpt><trkpt lat="45.768165" lon="8.98903"><ele>343.5</ele><time>2026-04-15T13:14:35.149Z</time></trkpt><trkpt lat="45.7682417" lon="8.9889733"><ele>343.6666666666667</ele><time>2026-04-15T13:14:37.149Z</time></trkpt><trkpt lat="45.7683217" lon="8.98892"><ele>343.83333333333337</ele><time>2026-04-15T13:14:39.148Z</time></trkpt><trkpt lat="45.7684" lon="8.98886"><ele>344.0</ele><time>2026-04-15T13:14:41.15Z</time></trkpt><trkpt lat="45.7684783" lon="8.9888033"><ele>343.83333333333337</ele><time>2026-04-15T13:14:43.15Z</time></trkpt><trkpt lat="45.7685567" lon="8.988745"><ele>343.6666666666667</ele><time>2026-04-15T13:14:45.149Z</time></trkpt><trkpt lat="45.7686333" lon="8.9886917"><ele>343.5</ele><time>2026-04-15T13:14:47.15Z</time></trkpt><trkpt lat="45.76871" lon="8.9886383"><ele>343.3333333333333</ele><time>2026-04-15T13:14:49.15Z</time></trkpt><trkpt lat="45.768785" lon="8.988585"><ele>343.16666666666663</ele><time>2026-04-15T13:14:51.149Z</time></trkpt><trkpt lat="45.7688633" lon="8.98853"><ele>343.0</ele><time>2026-04-15T13:14:53.15Z</time></trkpt><trkpt lat="45.7689467" lon="8.9884783"><ele>343.0</ele><time>2026-04-15T13:14:55.151Z</time></trkpt><trkpt lat="45.76903" lon="8.988425"><ele>343.0</ele><time>2026-04-15T13:14:57.149Z</time></trkpt><trkpt lat="45.76911" lon="8.9883667"><ele>343.0</ele><time>2026-04-15T13:14:59.15Z</time></trkpt><trkpt lat="45.769185" lon="8.988305"><ele>343.0</ele><time>2026-04-15T13:15:01.15Z</time></trkpt><trkpt lat="45.7692617" lon="8.9882417"><ele>343.0</ele><time>2026-04-15T13:15:03.149Z</time></trkpt><trkpt lat="45.76934" lon="8.988185"><ele>343.0</ele><time>2026-04-15T13:15:05.15Z</time></trkpt><trkpt lat="45.7694183" lon="8.9881333"><ele>343.66666666666663</ele><time>2026-04-15T13:15:07.149Z</time></trkpt><trkpt lat="45.769495" lon="8.988075"><ele>344.3333333333333</ele><time>2026-04-15T13:15:09.15Z</time></trkpt><trkpt lat="45.7695733" lon="8.98801"><ele>345.0</ele><time>2026-04-15T13:15:11.149Z</time></trkpt><trkpt lat="45.7696517" lon="8.9879467"><ele>345.6666666666667</ele><time>2026-04-15T13:15:13.15Z</time></trkpt><trkpt lat="45.76973" lon="8.9878817"><ele>346.33333333333337</ele><time>2026-04-15T13:15:15.15Z</time></trkpt><trkpt lat="45.7698133" lon="8.9878267"><ele>347.0</ele><time>2026-04-15T13:15:17.152Z</time></trkpt><trkpt lat="45.7698917" lon="8.98777"><ele>347.0</ele><time>2026-04-15T13:15:19.151Z</time></trkpt><trkpt lat="45.7699667" lon="8.9877083"><ele>347.0</ele><time>2026-04-15T13:15:21.151Z</time></trkpt><trkpt lat="45.7700383" lon="8.98765"><ele>347.0</ele><time>2026-04-15T13:15:23.151Z</time></trkpt><trkpt lat="45.7701183" lon="8.987595"><ele>347.0</ele><time>2026-04-15T13:15:25.151Z</time></trkpt><trkpt lat="45.7701883" lon="8.9875483"><ele>347.0</ele><time>2026-04-15T13:15:27.152Z</time></trkpt><trkpt lat="45.77026" lon="8.9875083"><ele>347.0</ele><time>2026-04-15T13:15:29.152Z</time></trkpt><trkpt lat="45.7703317" lon="8.9875"><ele>346.6666666666667</ele><time>2026-04-15T13:15:31.149Z</time></trkpt><trkpt lat="45.7704" lon="8.9875017"><ele>346.33333333333337</ele><time>2026-04-15T13:15:33.149Z</time></trkpt><trkpt lat="45.7704683" lon="8.9875017"><ele>346.0</ele><time>2026-04-15T13:15:35.15Z</time></trkpt><trkpt lat="45.7705433" lon="8.9875"><ele>345.6666666666667</ele><time>2026-04-15T13:15:38.15Z</time></trkpt><trkpt lat="45.770625" lon="8.987535"><ele>345.3333333333333</ele><time>2026-04-15T13:15:51.151Z</time></trkpt><trkpt lat="45.7707067" lon="8.9875083"><ele>345.0</ele><time>2026-04-15T13:15:53.15Z</time></trkpt><trkpt lat="45.770795" lon="8.987495"><ele>345.0</ele><time>2026-04-15T13:15:55.15Z</time></trkpt><trkpt lat="45.770875" lon="8.9874933"><ele>345.0</ele><time>2026-04-15T13:15:57.15Z</time></trkpt><trkpt lat="45.7709633" lon="8.9875067"><ele>345.0</ele><time>2026-04-15T13:15:59.151Z</time></trkpt><trkpt lat="45.7710633" lon="8.9875117"><ele>345.0</ele><time>2026-04-15T13:16:01.15Z</time></trkpt><trkpt lat="45.7711617" lon="8.9875183"><ele>345.0</ele><time>2026-04-15T13:16:03.15Z</time></trkpt><trkpt lat="45.7712567" lon="8.9875167"><ele>345.0</ele><time>2026-04-15T13:16:05.15Z</time></trkpt><trkpt lat="45.7713467" lon="8.9875167"><ele>345.0</ele><time>2026-04-15T13:16:07.15Z</time></trkpt><trkpt lat="45.7714283" lon="8.9875217"><ele>345.0</ele><time>2026-04-15T13:16:09.15Z</time></trkpt><trkpt lat="45.7715167" lon="8.9875233"><ele>345.0</ele><time>2026-04-15T13:16:11.15Z</time></trkpt><trkpt lat="45.7716117" lon="8.987525"><ele>345.0</ele><time>2026-04-15T13:16:13.15Z</time></trkpt><trkpt lat="45.7717017" lon="8.987525"><ele>345.0</ele><time>2026-04-15T13:16:15.15Z</time></trkpt><trkpt lat="45.7717917" lon="8.9875233"><ele>344.8333333333333</ele><time>2026-04-15T13:16:17.149Z</time></trkpt><trkpt lat="45.77188" lon="8.9875317"><ele>344.6666666666667</ele><time>2026-04-15T13:16:19.151Z</time></trkpt><trkpt lat="45.7719683" lon="8.98753"><ele>344.5</ele><time>2026-04-15T13:16:21.15Z</time></trkpt><trkpt lat="45.7720533" lon="8.9875367"><ele>344.33333333333337</ele><time>2026-04-15T13:16:23.151Z</time></trkpt><trkpt lat="45.7721317" lon="8.9875333"><ele>344.1666666666667</ele><time>2026-04-15T13:16:25.15Z</time></trkpt><trkpt lat="45.7722083" lon="8.98753"><ele>344.0</ele><time>2026-04-15T13:16:27.15Z</time></trkpt><trkpt lat="45.772285" lon="8.9875283"><ele>344.00000000000006</ele><time>2026-04-15T13:16:29.151Z</time></trkpt><trkpt lat="45.7723633" lon="8.98753"><ele>344.0</ele><time>2026-04-15T13:16:31.153Z</time></trkpt><trkpt lat="45.7724367" lon="8.98753"><ele>344.0</ele><time>2026-04-15T13:16:33.152Z</time></trkpt><trkpt lat="45.7725083" lon="8.987525"><ele>344.0</ele><time>2026-04-15T13:16:35.151Z</time></trkpt><trkpt lat="45.77258" lon="8.98749"><ele>344.0</ele><time>2026-04-15T13:16:37.15Z</time></trkpt><trkpt lat="45.7726333" lon="8.9874267"><ele>344.00000000000006</ele><time>2026-04-15T13:16:39.151Z</time></trkpt><trkpt lat="45.7726633" lon="8.987335"><ele>344.0</ele><time>2026-04-15T13:16:41.149Z</time></trkpt><trkpt lat="45.7726917" lon="8.987235"><ele>344.83333333333337</ele><time>2026-04-15T13:16:43.149Z</time></trkpt><trkpt lat="45.7727233" lon="8.98714"><ele>345.6666666666667</ele><time>2026-04-15T13:16:45.15Z</time></trkpt><trkpt lat="45.7727617" lon="8.9870483"><ele>346.5</ele><time>2026-04-15T13:16:47.15Z</time></trkpt><trkpt lat="45.772805" lon="8.986955"><ele>347.3333333333333</ele><time>2026-04-15T13:16:49.15Z</time></trkpt><trkpt lat="45.7728533" lon="8.9868733"><ele>348.16666666666663</ele><time>2026-04-15T13:16:51.151Z</time></trkpt><trkpt lat="45.7728967" lon="8.986785"><ele>349.0</ele><time>2026-04-15T13:16:53.153Z</time></trkpt><trkpt lat="45.7729417" lon="8.98669"><ele>349.8333333333333</ele><time>2026-04-15T13:16:55.152Z</time></trkpt><trkpt lat="45.772995" lon="8.9866017"><ele>350.66666666666663</ele><time>2026-04-15T13:16:57.151Z</time></trkpt><trkpt lat="45.7730433" lon="8.9865117"><ele>351.5</ele><time>2026-04-15T13:16:59.149Z</time></trkpt><trkpt lat="45.7730767" lon="8.9864183"><ele>352.3333333333333</ele><time>2026-04-15T13:17:01.15Z</time></trkpt><trkpt lat="45.7731617" lon="8.98636"><ele>353.1666666666667</ele><time>2026-04-15T13:17:04.15Z</time></trkpt><trkpt lat="45.7732233" lon="8.9863"><ele>354.0</ele><time>2026-04-15T13:17:06.149Z</time></trkpt><trkpt lat="45.773295" lon="8.98625"><ele>354.0</ele><time>2026-04-15T13:17:08.151Z</time></trkpt><trkpt lat="45.7733717" lon="8.9862233"><ele>354.0</ele><time>2026-04-15T13:17:10.15Z</time></trkpt><trkpt lat="45.77346" lon="8.9862167"><ele>354.0</ele><time>2026-04-15T13:17:12.15Z</time></trkpt><trkpt lat="45.773545" lon="8.9862267"><ele>354.0</ele><time>2026-04-15T13:17:14.151Z</time></trkpt><trkpt lat="45.7736217" lon="8.986255"><ele>354.0</ele><time>2026-04-15T13:17:16.148Z</time></trkpt><trkpt lat="45.773695" lon="8.9862917"><ele>354.0</ele><time>2026-04-15T13:17:18.151Z</time></trkpt><trkpt lat="45.773775" lon="8.986305"><ele>354.4</ele><time>2026-04-15T13:17:20.151Z</time></trkpt><trkpt lat="45.7738683" lon="8.9863333"><ele>354.79999999999995</ele><time>2026-04-15T13:17:22.152Z</time></trkpt><trkpt lat="45.773965" lon="8.986375"><ele>355.20000000000005</ele><time>2026-04-15T13:17:24.151Z</time></trkpt><trkpt lat="45.7740617" lon="8.9863817"><ele>355.6</ele><time>2026-04-15T13:17:26.15Z</time></trkpt><trkpt lat="45.7741567" lon="8.9863883"><ele>356.0</ele><time>2026-04-15T13:17:28.15Z</time></trkpt><trkpt lat="45.77425" lon="8.9864"><ele>356.0</ele><time>2026-04-15T13:17:30.151Z</time></trkpt><trkpt lat="45.7743267" lon="8.98644"><ele>356.0</ele><time>2026-04-15T13:17:32.152Z</time></trkpt><trkpt lat="45.77442" lon="8.9864983"><ele>356.0</ele><time>2026-04-15T13:17:34.151Z</time></trkpt><trkpt lat="45.7745183" lon="8.986535"><ele>356.0</ele><time>2026-04-15T13:17:36.152Z</time></trkpt><trkpt lat="45.77462" lon="8.9865617"><ele>356.0</ele><time>2026-04-15T13:17:38.152Z</time></trkpt><trkpt lat="45.774715" lon="8.9865783"><ele>356.83333333333337</ele><time>2026-04-15T13:17:40.152Z</time></trkpt><trkpt lat="45.7748033" lon="8.9865817"><ele>357.6666666666667</ele><time>2026-04-15T13:17:42.151Z</time></trkpt><trkpt lat="45.7748867" lon="8.986585"><ele>358.5</ele><time>2026-04-15T13:17:44.153Z</time></trkpt><trkpt lat="45.77497" lon="8.98658"><ele>359.3333333333333</ele><time>2026-04-15T13:17:46.15Z</time></trkpt><trkpt lat="45.77505" lon="8.9865767"><ele>360.16666666666663</ele><time>2026-04-15T13:17:48.15Z</time></trkpt><trkpt lat="45.775135" lon="8.9865683"><ele>361.0</ele><time>2026-04-15T13:17:50.15Z</time></trkpt><trkpt lat="45.7752217" lon="8.986565"><ele>361.66666666666663</ele><time>2026-04-15T13:17:52.151Z</time></trkpt><trkpt lat="45.7753033" lon="8.9865633"><ele>362.3333333333333</ele><time>2026-04-15T13:17:54.15Z</time></trkpt><trkpt lat="45.7753883" lon="8.9865633"><ele>363.0</ele><time>2026-04-15T13:17:56.151Z</time></trkpt><trkpt lat="45.77546" lon="8.986565"><ele>363.6666666666667</ele><time>2026-04-15T13:17:58.15Z</time></trkpt><trkpt lat="45.775535" lon="8.98657"><ele>364.33333333333337</ele><time>2026-04-15T13:18:00.15Z</time></trkpt><trkpt lat="45.775605" lon="8.986575"><ele>365.0</ele><time>2026-04-15T13:18:02.15Z</time></trkpt><trkpt lat="45.7756833" lon="8.9865733"><ele>365.00000000000006</ele><time>2026-04-15T13:18:04.149Z</time></trkpt><trkpt lat="45.7757567" lon="8.9865717"><ele>365.0</ele><time>2026-04-15T13:18:06.149Z</time></trkpt><trkpt lat="45.7758317" lon="8.98658"><ele>365.0</ele><time>2026-04-15T13:18:08.15Z</time></trkpt><trkpt lat="45.7759033" lon="8.9865967"><ele>365.0</ele><time>2026-04-15T13:18:10.15Z</time></trkpt><trkpt lat="45.7759783" lon="8.9866033"><ele>365.0</ele><time>2026-04-15T13:18:12.149Z</time></trkpt><trkpt lat="45.7760517" lon="8.98661"><ele>365.00000000000006</ele><time>2026-04-15T13:18:14.149Z</time></trkpt><trkpt lat="45.7761233" lon="8.98663"><ele>365.0</ele><time>2026-04-15T13:18:16.149Z</time></trkpt><trkpt lat="45.7761867" lon="8.98665"><ele>364.33333333333337</ele><time>2026-04-15T13:18:18.149Z</time></trkpt><trkpt lat="45.7762733" lon="8.98667"><ele>363.6666666666667</ele><time>2026-04-15T13:18:20.151Z</time></trkpt><trkpt lat="45.776355" lon="8.98669"><ele>363.0</ele><time>2026-04-15T13:18:22.149Z</time></trkpt><trkpt lat="45.7764367" lon="8.98671"><ele>362.3333333333333</ele><time>2026-04-15T13:18:24.149Z</time></trkpt><trkpt lat="45.7765067" lon="8.9867333"><ele>361.66666666666663</ele><time>2026-04-15T13:18:26.15Z</time></trkpt><trkpt lat="45.7765967" lon="8.9867767"><ele>361.0</ele><time>2026-04-15T13:18:29.15Z</time></trkpt><trkpt lat="45.776655" lon="8.9868217"><ele>361.0</ele><time>2026-04-15T13:18:31.15Z</time></trkpt><trkpt lat="45.77673" lon="8.9868933"><ele>361.0</ele><time>2026-04-15T13:18:34.149Z</time></trkpt><trkpt lat="45.7767967" lon="8.98697"><ele>361.0</ele><time>2026-04-15T13:18:37.15Z</time></trkpt><trkpt lat="45.7768533" lon="8.98702"><ele>361.0</ele><time>2026-04-15T13:18:39.15Z</time></trkpt><trkpt lat="45.77692" lon="8.98707"><ele>361.0</ele><time>2026-04-15T13:18:41.152Z</time></trkpt><trkpt lat="45.7769883" lon="8.987145"><ele>361.0</ele><time>2026-04-15T13:18:43.15Z</time></trkpt><trkpt lat="45.7770567" lon="8.9872"><ele>362.14285714285717</ele><time>2026-04-15T13:18:45.15Z</time></trkpt><trkpt lat="45.7771133" lon="8.987255"><ele>363.2857142857143</ele><time>2026-04-15T13:18:47.149Z</time></trkpt><trkpt lat="45.7771517" lon="8.9873417"><ele>364.42857142857144</ele><time>2026-04-15T13:18:49.15Z</time></trkpt><trkpt lat="45.77718" lon="8.987445"><ele>365.57142857142856</ele><time>2026-04-15T13:18:51.149Z</time></trkpt><trkpt lat="45.7772" lon="8.9875333"><ele>366.71428571428567</ele><time>2026-04-15T13:18:53.149Z</time></trkpt><trkpt lat="45.777225" lon="8.9876317"><ele>367.85714285714283</ele><time>2026-04-15T13:18:55.15Z</time></trkpt><trkpt lat="45.777245" lon="8.9877317"><ele>369.0</ele><time>2026-04-15T13:18:57.15Z</time></trkpt><trkpt lat="45.7772817" lon="8.9878317"><ele>369.0</ele><time>2026-04-15T13:18:59.151Z</time></trkpt><trkpt lat="45.7773417" lon="8.9879183"><ele>369.0</ele><time>2026-04-15T13:19:01.151Z</time></trkpt><trkpt lat="45.77741" lon="8.9879967"><ele>369.0</ele><time>2026-04-15T13:19:03.152Z</time></trkpt><trkpt lat="45.7774833" lon="8.9880517"><ele>369.0</ele><time>2026-04-15T13:19:05.152Z</time></trkpt><trkpt lat="45.777565" lon="8.9880983"><ele>369.0</ele><time>2026-04-15T13:19:07.15Z</time></trkpt><trkpt lat="45.77764" lon="8.98814"><ele>369.0</ele><time>2026-04-15T13:19:09.15Z</time></trkpt><trkpt lat="45.7777183" lon="8.9881817"><ele>368.42857142857144</ele><time>2026-04-15T13:19:11.15Z</time></trkpt><trkpt lat="45.777785" lon="8.9882233"><ele>367.85714285714283</ele><time>2026-04-15T13:19:13.149Z</time></trkpt><trkpt lat="45.77785" lon="8.9882683"><ele>367.28571428571433</ele><time>2026-04-15T13:19:15.149Z</time></trkpt><trkpt lat="45.7779133" lon="8.9882983"><ele>366.7142857142857</ele><time>2026-04-15T13:19:17.15Z</time></trkpt><trkpt lat="45.77798" lon="8.98833"><ele>366.14285714285717</ele><time>2026-04-15T13:19:19.149Z</time></trkpt><trkpt lat="45.7780583" lon="8.98839"><ele>365.5714285714286</ele><time>2026-04-15T13:19:22.15Z</time></trkpt><trkpt lat="45.7781183" lon="8.988425"><ele>365.0</ele><time>2026-04-15T13:19:24.149Z</time></trkpt><trkpt lat="45.7781833" lon="8.98842"><ele>365.0</ele><time>2026-04-15T13:19:26.151Z</time></trkpt><trkpt lat="45.7782533" lon="8.9883733"><ele>365.0</ele><time>2026-04-15T13:19:28.151Z</time></trkpt><trkpt lat="45.7783117" lon="8.9883117"><ele>365.0</ele><time>2026-04-15T13:19:30.15Z</time></trkpt><trkpt lat="45.778395" lon="8.9882517"><ele>365.0</ele><time>2026-04-15T13:19:33.149Z</time></trkpt><trkpt lat="45.7784517" lon="8.9882"><ele>365.0</ele><time>2026-04-15T13:19:35.15Z</time></trkpt><trkpt lat="45.7785383" lon="8.988145"><ele>365.0</ele><time>2026-04-15T13:19:38.152Z</time></trkpt><trkpt lat="45.7785967" lon="8.9880883"><ele>367.83333333333337</ele><time>2026-04-15T13:19:40.15Z</time></trkpt><trkpt lat="45.7786517" lon="8.9880283"><ele>370.6666666666667</ele><time>2026-04-15T13:19:42.15Z</time></trkpt><trkpt lat="45.7787467" lon="8.9879567"><ele>373.5</ele><time>2026-04-15T13:19:45.149Z</time></trkpt><trkpt lat="45.7788133" lon="8.9879133"><ele>376.3333333333333</ele><time>2026-04-15T13:19:47.149Z</time></trkpt><trkpt lat="45.7788833" lon="8.9878283"><ele>379.16666666666663</ele><time>2026-04-15T13:19:50.151Z</time></trkpt><trkpt lat="45.7789467" lon="8.9877767"><ele>382.0</ele><time>2026-04-15T13:19:52.149Z</time></trkpt><trkpt lat="45.7790017" lon="8.9877067"><ele>382.0</ele><time>2026-04-15T13:19:54.15Z</time></trkpt><trkpt lat="45.7790833" lon="8.98763"><ele>382.0</ele><time>2026-04-15T13:19:57.149Z</time></trkpt><trkpt lat="45.7791567" lon="8.9875833"><ele>382.0</ele><time>2026-04-15T13:19:59.149Z</time></trkpt><trkpt lat="45.7792433" lon="8.9875183"><ele>382.0</ele><time>2026-04-15T13:20:02.149Z</time></trkpt><trkpt lat="45.779315" lon="8.9874733"><ele>382.0</ele><time>2026-04-15T13:20:04.149Z</time></trkpt><trkpt lat="45.7793667" lon="8.9874017"><ele>382.0</ele><time>2026-04-15T13:20:06.149Z</time></trkpt><trkpt lat="45.7794233" lon="8.9873317"><ele>380.5</ele><time>2026-04-15T13:20:09.151Z</time></trkpt><trkpt lat="45.7794883" lon="8.9872583"><ele>379.0</ele><time>2026-04-15T13:20:12.15Z</time></trkpt><trkpt lat="45.7795483" lon="8.98721"><ele>377.5</ele><time>2026-04-15T13:20:14.15Z</time></trkpt><trkpt lat="45.7796017" lon="8.9871567"><ele>376.0</ele><time>2026-04-15T13:20:16.152Z</time></trkpt><trkpt lat="45.779675" lon="8.9870817"><ele>374.5</ele><time>2026-04-15T13:20:19.149Z</time></trkpt><trkpt lat="45.7797417" lon="8.987"><ele>373.0</ele><time>2026-04-15T13:20:22.15Z</time></trkpt><trkpt lat="45.779805" lon="8.9869417"><ele>373.0</ele><time>2026-04-15T13:20:25.151Z</time></trkpt><trkpt lat="45.7798833" lon="8.986865"><ele>373.0</ele><time>2026-04-15T13:20:28.149Z</time></trkpt><trkpt lat="45.77994" lon="8.9868017"><ele>373.0</ele><time>2026-04-15T13:20:30.151Z</time></trkpt><trkpt lat="45.77999" lon="8.9867467"><ele>373.0</ele><time>2026-04-15T13:20:32.15Z</time></trkpt><trkpt lat="45.7800467" lon="8.9866883"><ele>373.0</ele><time>2026-04-15T13:20:34.149Z</time></trkpt><trkpt lat="45.78009" lon="8.986615"><ele>373.0</ele><time>2026-04-15T13:20:36.152Z</time></trkpt><trkpt lat="45.780165" lon="8.9865533"><ele>373.7142857142857</ele><time>2026-04-15T13:20:39.15Z</time></trkpt><trkpt lat="45.7802317" lon="8.98657"><ele>374.42857142857144</ele><time>2026-04-15T13:20:41.15Z</time></trkpt><trkpt lat="45.7802783" lon="8.986635"><ele>375.1428571428571</ele><time>2026-04-15T13:20:43.15Z</time></trkpt><trkpt lat="45.780345" lon="8.986735"><ele>375.8571428571429</ele><time>2026-04-15T13:20:46.149Z</time></trkpt><trkpt lat="45.7804133" lon="8.986765"><ele>376.57142857142856</ele><time>2026-04-15T13:20:48.15Z</time></trkpt><trkpt lat="45.78048" lon="8.9867333"><ele>377.2857142857143</ele><time>2026-04-15T13:20:50.151Z</time></trkpt><trkpt lat="45.7805333" lon="8.9866683"><ele>378.0</ele><time>2026-04-15T13:20:52.15Z</time></trkpt><trkpt lat="45.7805867" lon="8.9866017"><ele>378.14285714285717</ele><time>2026-04-15T13:20:54.149Z</time></trkpt><trkpt lat="45.7806417" lon="8.9865333"><ele>378.2857142857143</ele><time>2026-04-15T13:20:56.15Z</time></trkpt><trkpt lat="45.780705" lon="8.9864733"><ele>378.42857142857144</ele><time>2026-04-15T13:20:58.149Z</time></trkpt><trkpt lat="45.7807667" lon="8.9864117"><ele>378.57142857142856</ele><time>2026-04-15T13:21:00.149Z</time></trkpt><trkpt lat="45.7808283" lon="8.9863517"><ele>378.7142857142857</ele><time>2026-04-15T13:21:02.15Z</time></trkpt><trkpt lat="45.7808917" lon="8.98629"><ele>378.8571428571429</ele><time>2026-04-15T13:21:04.15Z</time></trkpt><trkpt lat="45.7809533" lon="8.986235"><ele>379.0</ele><time>2026-04-15T13:21:06.15Z</time></trkpt><trkpt lat="45.7810117" lon="8.9861783"><ele>380.14285714285717</ele><time>2026-04-15T13:21:08.15Z</time></trkpt><trkpt lat="45.781075" lon="8.9861233"><ele>381.2857142857143</ele><time>2026-04-15T13:21:10.15Z</time></trkpt><trkpt lat="45.78113" lon="8.98606"><ele>382.42857142857144</ele><time>2026-04-15T13:21:12.149Z</time></trkpt><trkpt lat="45.781175" lon="8.9859833"><ele>383.57142857142856</ele><time>2026-04-15T13:21:14.149Z</time></trkpt><trkpt lat="45.7812317" lon="8.9859283"><ele>384.7142857142857</ele><time>2026-04-15T13:21:16.15Z</time></trkpt><trkpt lat="45.7813" lon="8.985885"><ele>385.8571428571429</ele><time>2026-04-15T13:21:18.15Z</time></trkpt><trkpt lat="45.7813583" lon="8.985805"><ele>387.0</ele><time>2026-04-15T13:21:20.15Z</time></trkpt><trkpt lat="45.7814183" lon="8.9857367"><ele>387.0</ele><time>2026-04-15T13:21:22.149Z</time></trkpt><trkpt lat="45.78149" lon="8.9856867"><ele>387.0</ele><time>2026-04-15T13:21:24.149Z</time></trkpt><trkpt lat="45.7815567" lon="8.98562"><ele>387.0</ele><time>2026-04-15T13:21:26.151Z</time></trkpt><trkpt lat="45.78162" lon="8.985555"><ele>387.0</ele><time>2026-04-15T13:21:28.149Z</time></trkpt><trkpt lat="45.7816867" lon="8.985485"><ele>387.0</ele><time>2026-04-15T13:21:30.149Z</time></trkpt><trkpt lat="45.7817667" lon="8.98543"><ele>387.0</ele><time>2026-04-15T13:21:32.15Z</time></trkpt><trkpt lat="45.78186" lon="8.9853683"><ele>387.1666666666667</ele><time>2026-04-15T13:21:34.149Z</time></trkpt><trkpt lat="45.78196" lon="8.98531"><ele>387.33333333333337</ele><time>2026-04-15T13:21:36.151Z</time></trkpt><trkpt lat="45.7820683" lon="8.9852783"><ele>387.5</ele><time>2026-04-15T13:21:38.151Z</time></trkpt><trkpt lat="45.7821333" lon="8.9852617"><ele>387.6666666666667</ele><time>2026-04-15T13:21:39.151Z</time></trkpt><trkpt lat="45.7821983" lon="8.9852267"><ele>387.83333333333337</ele><time>2026-04-15T13:21:40.151Z</time></trkpt><trkpt lat="45.7822633" lon="8.985195"><ele>388.0</ele><time>2026-04-15T13:21:41.151Z</time></trkpt><trkpt lat="45.782325" lon="8.98517"><ele>388.0</ele><time>2026-04-15T13:21:42.15Z</time></trkpt><trkpt lat="45.7824283" lon="8.985125"><ele>388.0</ele><time>2026-04-15T13:21:44.151Z</time></trkpt><trkpt lat="45.78253" lon="8.9850883"><ele>388.0</ele><time>2026-04-15T13:21:46.151Z</time></trkpt><trkpt lat="45.7826267" lon="8.9851133"><ele>388.0</ele><time>2026-04-15T13:21:48.151Z</time></trkpt><trkpt lat="45.78272" lon="8.9851533"><ele>388.0</ele><time>2026-04-15T13:21:50.151Z</time></trkpt><trkpt lat="45.7828117" lon="8.9852"><ele>386.2</ele><time>2026-04-15T13:21:52.151Z</time></trkpt><trkpt lat="45.7829117" lon="8.9852633"><ele>384.4</ele><time>2026-04-15T13:21:54.15Z</time></trkpt><trkpt lat="45.7830167" lon="8.985335"><ele>382.59999999999997</ele><time>2026-04-15T13:21:56.151Z</time></trkpt><trkpt lat="45.783105" lon="8.98541"><ele>380.79999999999995</ele><time>2026-04-15T13:21:58.15Z</time></trkpt><trkpt lat="45.783175" lon="8.9854917"><ele>379.0</ele><time>2026-04-15T13:22:00.151Z</time></trkpt><trkpt lat="45.78323" lon="8.9855583"><ele>379.0</ele><time>2026-04-15T13:22:02.152Z</time></trkpt><trkpt lat="45.783285" lon="8.9856217"><ele>379.0</ele><time>2026-04-15T13:22:04.15Z</time></trkpt><trkpt lat="45.783355" lon="8.985665"><ele>379.0</ele><time>2026-04-15T13:22:06.151Z</time></trkpt><trkpt lat="45.78342" lon="8.985725"><ele>379.0</ele><time>2026-04-15T13:22:08.15Z</time></trkpt><trkpt lat="45.78347" lon="8.9857817"><ele>379.0</ele><time>2026-04-15T13:22:10.149Z</time></trkpt><trkpt lat="45.78354" lon="8.98586"><ele>379.0</ele><time>2026-04-15T13:22:13.149Z</time></trkpt><trkpt lat="45.7836067" lon="8.9859133"><ele>379.5</ele><time>2026-04-15T13:22:16.149Z</time></trkpt><trkpt lat="45.7836767" lon="8.9860067"><ele>380.0</ele><time>2026-04-15T13:22:19.15Z</time></trkpt><trkpt lat="45.783745" lon="8.9860717"><ele>380.5</ele><time>2026-04-15T13:22:21.148Z</time></trkpt><trkpt lat="45.783805" lon="8.9861383"><ele>381.0</ele><time>2026-04-15T13:22:23.15Z</time></trkpt><trkpt lat="45.7838717" lon="8.9861983"><ele>381.5</ele><time>2026-04-15T13:22:25.149Z</time></trkpt><trkpt lat="45.7839383" lon="8.9862467"><ele>382.0</ele><time>2026-04-15T13:22:27.15Z</time></trkpt><trkpt lat="45.7840283" lon="8.9862983"><ele>382.0</ele><time>2026-04-15T13:22:30.149Z</time></trkpt><trkpt lat="45.7841083" lon="8.98636"><ele>382.0</ele><time>2026-04-15T13:22:32.151Z</time></trkpt><trkpt lat="45.7841667" lon="8.9864517"><ele>382.0</ele><time>2026-04-15T13:22:34.149Z</time></trkpt><trkpt lat="45.784235" lon="8.9865283"><ele>382.0</ele><time>2026-04-15T13:22:36.149Z</time></trkpt><trkpt lat="45.7843067" lon="8.9866067"><ele>382.0</ele><time>2026-04-15T13:22:38.15Z</time></trkpt><trkpt lat="45.78437" lon="8.9866983"><ele>382.0</ele><time>2026-04-15T13:22:40.15Z</time></trkpt><trkpt lat="45.7844283" lon="8.9867917"><ele>380.3333333333333</ele><time>2026-04-15T13:22:42.149Z</time></trkpt><trkpt lat="45.7844717" lon="8.98688"><ele>378.66666666666663</ele><time>2026-04-15T13:22:44.15Z</time></trkpt><trkpt lat="45.7845383" lon="8.98695"><ele>377.0</ele><time>2026-04-15T13:22:47.152Z</time></trkpt><trkpt lat="45.78461" lon="8.98698"><ele>375.3333333333333</ele><time>2026-04-15T13:22:49.15Z</time></trkpt><trkpt lat="45.7846233" lon="8.9870833"><ele>373.6666666666667</ele><time>2026-04-15T13:22:53.151Z</time></trkpt><trkpt lat="45.7846367" lon="8.9871833"><ele>372.0</ele><time>2026-04-15T13:22:57.149Z</time></trkpt><trkpt lat="45.7846783" lon="8.9873483"><ele>372.0</ele><time>2026-04-15T13:23:05.149Z</time></trkpt><trkpt lat="45.78471" lon="8.9874333"><ele>372.0</ele><time>2026-04-15T13:23:08.15Z</time></trkpt><trkpt lat="45.7847783" lon="8.9875267"><ele>372.0</ele><time>2026-04-15T13:23:11.149Z</time></trkpt><trkpt lat="45.7848217" lon="8.9876117"><ele>372.0</ele><time>2026-04-15T13:23:14.148Z</time></trkpt><trkpt lat="45.78486" lon="8.9876883"><ele>372.0</ele><time>2026-04-15T13:23:17.15Z</time></trkpt><trkpt lat="45.7848833" lon="8.9877883"><ele>372.0</ele><time>2026-04-15T13:23:20.151Z</time></trkpt><trkpt lat="45.7849033" lon="8.9878933"><ele>373.6666666666667</ele><time>2026-04-15T13:23:23.151Z</time></trkpt><trkpt lat="45.78492" lon="8.9880067"><ele>375.3333333333333</ele><time>2026-04-15T13:23:26.151Z</time></trkpt><trkpt lat="45.784945" lon="8.9880983"><ele>377.0</ele><time>2026-04-15T13:23:29.149Z</time></trkpt><trkpt lat="45.784985" lon="8.988205"><ele>378.66666666666663</ele><time>2026-04-15T13:23:33.149Z</time></trkpt><trkpt lat="45.7850217" lon="8.9883067"><ele>380.3333333333333</ele><time>2026-04-15T13:23:37.149Z</time></trkpt><trkpt lat="45.7850517" lon="8.98841"><ele>382.0</ele><time>2026-04-15T13:23:41.149Z</time></trkpt><trkpt lat="45.7850817" lon="8.9884917"><ele>382.42857142857144</ele><time>2026-04-15T13:23:44.151Z</time></trkpt><trkpt lat="45.785095" lon="8.9886"><ele>382.85714285714283</ele><time>2026-04-15T13:23:48.151Z</time></trkpt><trkpt lat="45.78509" lon="8.9887"><ele>383.2857142857143</ele><time>2026-04-15T13:23:51.149Z</time></trkpt><trkpt lat="45.7851117" lon="8.9887867"><ele>383.7142857142857</ele><time>2026-04-15T13:23:54.15Z</time></trkpt><trkpt lat="45.78513" lon="8.9888783"><ele>384.1428571428571</ele><time>2026-04-15T13:23:57.149Z</time></trkpt><trkpt lat="45.7851617" lon="8.9889833"><ele>384.57142857142856</ele><time>2026-04-15T13:24:00.152Z</time></trkpt><trkpt lat="45.7851733" lon="8.9891"><ele>385.0</ele><time>2026-04-15T13:24:04.151Z</time></trkpt><trkpt lat="45.7851817" lon="8.9892117"><ele>382.1666666666667</ele><time>2026-04-15T13:24:07.148Z</time></trkpt><trkpt lat="45.78519" lon="8.9893267"><ele>379.33333333333337</ele><time>2026-04-15T13:24:10.152Z</time></trkpt><trkpt lat="45.7852117" lon="8.989445"><ele>376.5</ele><time>2026-04-15T13:24:13.149Z</time></trkpt><trkpt lat="45.7852233" lon="8.9895567"><ele>373.6666666666667</ele><time>2026-04-15T13:24:16.149Z</time></trkpt><trkpt lat="45.7852433" lon="8.98966"><ele>370.83333333333337</ele><time>2026-04-15T13:24:19.15Z</time></trkpt><trkpt lat="45.785225" lon="8.9897817"><ele>368.0</ele><time>2026-04-15T13:24:23.15Z</time></trkpt><trkpt lat="45.7851967" lon="8.9898983"><ele>369.6666666666667</ele><time>2026-04-15T13:24:26.151Z</time></trkpt><trkpt lat="45.7851417" lon="8.9899983"><ele>371.33333333333337</ele><time>2026-04-15T13:24:29.151Z</time></trkpt><trkpt lat="45.785095" lon="8.990105"><ele>373.0</ele><time>2026-04-15T13:24:32.154Z</time></trkpt><trkpt lat="45.7850617" lon="8.9901917"><ele>374.6666666666667</ele><time>2026-04-15T13:24:34.151Z</time></trkpt><trkpt lat="45.7850017" lon="8.99027"><ele>376.3333333333333</ele><time>2026-04-15T13:24:36.15Z</time></trkpt><trkpt lat="45.78492" lon="8.9903267"><ele>378.0</ele><time>2026-04-15T13:24:38.151Z</time></trkpt><trkpt lat="45.7848467" lon="8.990365"><ele>378.0</ele><time>2026-04-15T13:24:40.15Z</time></trkpt><trkpt lat="45.78477" lon="8.99039"><ele>378.0</ele><time>2026-04-15T13:24:42.15Z</time></trkpt><trkpt lat="45.7846683" lon="8.9904233"><ele>378.0</ele><time>2026-04-15T13:24:44.152Z</time></trkpt><trkpt lat="45.7845867" lon="8.99047"><ele>378.0</ele><time>2026-04-15T13:24:46.148Z</time></trkpt><trkpt lat="45.78451" lon="8.9905033"><ele>378.0</ele><time>2026-04-15T13:24:48.149Z</time></trkpt><trkpt lat="45.7844433" lon="8.9905667"><ele>378.0</ele><time>2026-04-15T13:24:50.15Z</time></trkpt><trkpt lat="45.784375" lon="8.9906717"><ele>378.79999999999995</ele><time>2026-04-15T13:24:52.15Z</time></trkpt><trkpt lat="45.7843067" lon="8.9907733"><ele>379.6</ele><time>2026-04-15T13:24:54.149Z</time></trkpt><trkpt lat="45.7842417" lon="8.9909067"><ele>380.4</ele><time>2026-04-15T13:24:56.152Z</time></trkpt><trkpt lat="45.7841833" lon="8.9910383"><ele>381.20000000000005</ele><time>2026-04-15T13:24:58.149Z</time></trkpt><trkpt lat="45.7841167" lon="8.991155"><ele>382.0</ele><time>2026-04-15T13:25:00.149Z</time></trkpt><trkpt lat="45.784085" lon="8.99124"><ele>379.40000000000003</ele><time>2026-04-15T13:25:01.15Z</time></trkpt><trkpt lat="45.784015" lon="8.9913667"><ele>376.8</ele><time>2026-04-15T13:25:03.15Z</time></trkpt><trkpt lat="45.7839433" lon="8.99147"><ele>374.2</ele><time>2026-04-15T13:25:05.149Z</time></trkpt><trkpt lat="45.7838733" lon="8.99155"><ele>371.6</ele><time>2026-04-15T13:25:07.149Z</time></trkpt><trkpt lat="45.78379" lon="8.9915917"><ele>369.0</ele><time>2026-04-15T13:25:09.151Z</time></trkpt><trkpt lat="45.7837033" lon="8.9915817"><ele>369.0</ele><time>2026-04-15T13:25:11.15Z</time></trkpt><trkpt lat="45.7836283" lon="8.99154"><ele>369.0</ele><time>2026-04-15T13:25:13.149Z</time></trkpt><trkpt lat="45.7835667" lon="8.9914783"><ele>369.0</ele><time>2026-04-15T13:25:15.151Z</time></trkpt><trkpt lat="45.7835083" lon="8.9914033"><ele>369.0</ele><time>2026-04-15T13:25:17.151Z</time></trkpt><trkpt lat="45.78345" lon="8.9913367"><ele>369.0</ele><time>2026-04-15T13:25:19.15Z</time></trkpt><trkpt lat="45.78339" lon="8.99128"><ele>369.0</ele><time>2026-04-15T13:25:21.15Z</time></trkpt><trkpt lat="45.7833567" lon="8.9913933"><ele>368.79999999999995</ele><time>2026-04-15T13:25:25.149Z</time></trkpt><trkpt lat="45.7833867" lon="8.9915183"><ele>368.59999999999997</ele><time>2026-04-15T13:25:27.152Z</time></trkpt><trkpt lat="45.7834633" lon="8.9916117"><ele>368.4</ele><time>2026-04-15T13:25:29.149Z</time></trkpt><trkpt lat="45.78356" lon="8.9917083"><ele>368.2</ele><time>2026-04-15T13:25:31.148Z</time></trkpt><trkpt lat="45.7836583" lon="8.99181"><ele>368.0</ele><time>2026-04-15T13:25:33.148Z</time></trkpt><trkpt lat="45.783705" lon="8.9918733"><ele>368.0</ele><time>2026-04-15T13:25:34.15Z</time></trkpt><trkpt lat="45.783745" lon="8.99195"><ele>368.0</ele><time>2026-04-15T13:25:35.148Z</time></trkpt><trkpt lat="45.783785" lon="8.9920233"><ele>368.0</ele><time>2026-04-15T13:25:36.148Z</time></trkpt><trkpt lat="45.7838267" lon="8.9921033"><ele>368.0</ele><time>2026-04-15T13:25:37.149Z</time></trkpt><trkpt lat="45.783865" lon="8.9921817"><ele>368.0</ele><time>2026-04-15T13:25:38.151Z</time></trkpt><trkpt lat="45.7839083" lon="8.9922617"><ele>368.0</ele><time>2026-04-15T13:25:39.15Z</time></trkpt><trkpt lat="45.7839483" lon="8.9923417"><ele>368.0</ele><time>2026-04-15T13:25:40.149Z</time></trkpt><trkpt lat="45.7840067" lon="8.9924983"><ele>367.0</ele><time>2026-04-15T13:25:42.149Z</time></trkpt><trkpt lat="45.7840767" lon="8.9926233"><ele>366.0</ele><time>2026-04-15T13:25:44.151Z</time></trkpt><trkpt lat="45.7841483" lon="8.9927467"><ele>365.0</ele><time>2026-04-15T13:25:46.149Z</time></trkpt><trkpt lat="45.7842067" lon="8.9928217"><ele>364.0</ele><time>2026-04-15T13:25:48.151Z</time></trkpt><trkpt lat="45.7842733" lon="8.9928617"><ele>363.0</ele><time>2026-04-15T13:25:50.15Z</time></trkpt><trkpt lat="45.7843483" lon="8.9929533"><ele>363.0</ele><time>2026-04-15T13:25:53.15Z</time></trkpt><trkpt lat="45.78442" lon="8.9930217"><ele>363.0</ele><time>2026-04-15T13:25:55.15Z</time></trkpt><trkpt lat="45.784495" lon="8.993075"><ele>363.0</ele><time>2026-04-15T13:25:57.149Z</time></trkpt><trkpt lat="45.7845667" lon="8.9931333"><ele>363.0</ele><time>2026-04-15T13:25:59.15Z</time></trkpt><trkpt lat="45.78462" lon="8.99319"><ele>363.0</ele><time>2026-04-15T13:26:01.152Z</time></trkpt><trkpt lat="45.7846833" lon="8.9932433"><ele>363.0</ele><time>2026-04-15T13:26:03.151Z</time></trkpt><trkpt lat="45.784755" lon="8.9932917"><ele>363.0</ele><time>2026-04-15T13:26:05.151Z</time></trkpt><trkpt lat="45.7848117" lon="8.993335"><ele>363.0</ele><time>2026-04-15T13:26:07.151Z</time></trkpt><trkpt lat="45.7848983" lon="8.993405"><ele>363.0</ele><time>2026-04-15T13:26:10.151Z</time></trkpt><trkpt lat="45.7849633" lon="8.99345"><ele>363.0</ele><time>2026-04-15T13:26:13.152Z</time></trkpt><trkpt lat="45.785055" lon="8.9934617"><ele>363.0</ele><time>2026-04-15T13:26:16.151Z</time></trkpt><trkpt lat="45.7851383" lon="8.9934983"><ele>363.0</ele><time>2026-04-15T13:26:19.152Z</time></trkpt><trkpt lat="45.7851983" lon="8.9935283"><ele>362.0</ele><time>2026-04-15T13:26:21.151Z</time></trkpt><trkpt lat="45.78528" lon="8.9935417"><ele>361.0</ele><time>2026-04-15T13:26:23.151Z</time></trkpt><trkpt lat="45.7853817" lon="8.993525"><ele>360.0</ele><time>2026-04-15T13:26:25.151Z</time></trkpt><trkpt lat="45.78549" lon="8.9934983"><ele>359.0</ele><time>2026-04-15T13:26:27.15Z</time></trkpt><trkpt lat="45.785555" lon="8.993465"><ele>358.0</ele><time>2026-04-15T13:26:28.15Z</time></trkpt><trkpt lat="45.78566" lon="8.9934133"><ele>357.59999999999997</ele><time>2026-04-15T13:26:30.151Z</time></trkpt><trkpt lat="45.785745" lon="8.9933117"><ele>357.2</ele><time>2026-04-15T13:26:32.151Z</time></trkpt><trkpt lat="45.7858233" lon="8.9932133"><ele>356.8</ele><time>2026-04-15T13:26:34.15Z</time></trkpt><trkpt lat="45.7858917" lon="8.9931383"><ele>356.4</ele><time>2026-04-15T13:26:36.152Z</time></trkpt><trkpt lat="45.7859433" lon="8.99306"><ele>356.0</ele><time>2026-04-15T13:26:38.151Z</time></trkpt><trkpt lat="45.7859983" lon="8.99298"><ele>354.99999999999994</ele><time>2026-04-15T13:26:40.151Z</time></trkpt><trkpt lat="45.786055" lon="8.99293"><ele>354.0</ele><time>2026-04-15T13:26:42.151Z</time></trkpt><trkpt lat="45.786095" lon="8.99284"><ele>353.0</ele><time>2026-04-15T13:26:44.151Z</time></trkpt><trkpt lat="45.786125" lon="8.99273"><ele>352.0</ele><time>2026-04-15T13:26:46.151Z</time></trkpt><trkpt lat="45.78616" lon="8.9926383"><ele>351.0</ele><time>2026-04-15T13:26:48.15Z</time></trkpt><trkpt lat="45.786205" lon="8.9925583"><ele>349.99999999999994</ele><time>2026-04-15T13:26:50.152Z</time></trkpt><trkpt lat="45.7862383" lon="8.9924733"><ele>349.0</ele><time>2026-04-15T13:26:52.151Z</time></trkpt><trkpt lat="45.7862733" lon="8.9923767"><ele>348.99999999999994</ele><time>2026-04-15T13:26:54.15Z</time></trkpt><trkpt lat="45.786305" lon="8.99229"><ele>349.0</ele><time>2026-04-15T13:26:56.152Z</time></trkpt><trkpt lat="45.7863367" lon="8.9921933"><ele>349.0</ele><time>2026-04-15T13:26:58.15Z</time></trkpt><trkpt lat="45.7863867" lon="8.99207"><ele>349.0</ele><time>2026-04-15T13:27:01.148Z</time></trkpt><trkpt lat="45.7864117" lon="8.9919833"><ele>349.0</ele><time>2026-04-15T13:27:03.149Z</time></trkpt><trkpt lat="45.7864183" lon="8.9918833"><ele>348.99999999999994</ele><time>2026-04-15T13:27:05.15Z</time></trkpt><trkpt lat="45.7864233" lon="8.9917817"><ele>349.0</ele><time>2026-04-15T13:27:07.148Z</time></trkpt><trkpt lat="45.7864367" lon="8.9916817"><ele>349.5</ele><time>2026-04-15T13:27:09.152Z</time></trkpt><trkpt lat="45.7864417" lon="8.991565"><ele>350.0</ele><time>2026-04-15T13:27:11.149Z</time></trkpt><trkpt lat="45.7864583" lon="8.99147"><ele>350.5</ele><time>2026-04-15T13:27:13.149Z</time></trkpt><trkpt lat="45.7864717" lon="8.991375"><ele>351.0</ele><time>2026-04-15T13:27:15.151Z</time></trkpt><trkpt lat="45.78647" lon="8.9912633"><ele>351.5</ele><time>2026-04-15T13:27:17.148Z</time></trkpt><trkpt lat="45.7864683" lon="8.991155"><ele>352.0</ele><time>2026-04-15T13:27:19.149Z</time></trkpt><trkpt lat="45.7864433" lon="8.9910117"><ele>352.0</ele><time>2026-04-15T13:27:21.151Z</time></trkpt><trkpt lat="45.78642" lon="8.9908867"><ele>352.0</ele><time>2026-04-15T13:27:23.148Z</time></trkpt><trkpt lat="45.78637" lon="8.9907433"><ele>352.0</ele><time>2026-04-15T13:27:25.152Z</time></trkpt><trkpt lat="45.7863433" lon="8.99062"><ele>352.0</ele><time>2026-04-15T13:27:27.15Z</time></trkpt><trkpt lat="45.7863383" lon="8.9904983"><ele>352.0</ele><time>2026-04-15T13:27:29.149Z</time></trkpt><trkpt lat="45.7863517" lon="8.9903733"><ele>352.0</ele><time>2026-04-15T13:27:31.149Z</time></trkpt><trkpt lat="45.786345" lon="8.9902783"><ele>352.0</ele><time>2026-04-15T13:27:33.151Z</time></trkpt><trkpt lat="45.78632" lon="8.990175"><ele>352.0</ele><time>2026-04-15T13:27:36.15Z</time></trkpt><trkpt lat="45.786265" lon="8.9900833"><ele>352.0</ele><time>2026-04-15T13:27:39.149Z</time></trkpt><trkpt lat="45.7862067" lon="8.9899683"><ele>352.0</ele><time>2026-04-15T13:27:43.149Z</time></trkpt><trkpt lat="45.7861883" lon="8.9898433"><ele>352.0</ele><time>2026-04-15T13:27:46.148Z</time></trkpt><trkpt lat="45.7861783" lon="8.9896933"><ele>351.66666666666663</ele><time>2026-04-15T13:27:49.151Z</time></trkpt><trkpt lat="45.7861417" lon="8.9896083"><ele>351.3333333333333</ele><time>2026-04-15T13:27:51.15Z</time></trkpt><trkpt lat="45.7861" lon="8.98949"><ele>351.0</ele><time>2026-04-15T13:27:54.149Z</time></trkpt><trkpt lat="45.7860733" lon="8.9894017"><ele>350.6666666666667</ele><time>2026-04-15T13:27:56.151Z</time></trkpt><trkpt lat="45.7860667" lon="8.9892717"><ele>350.33333333333337</ele><time>2026-04-15T13:27:59.149Z</time></trkpt><trkpt lat="45.7860633" lon="8.98915"><ele>350.0</ele><time>2026-04-15T13:28:02.151Z</time></trkpt><trkpt lat="45.7860467" lon="8.989055"><ele>350.0</ele><time>2026-04-15T13:28:04.149Z</time></trkpt><trkpt lat="45.7860417" lon="8.98895"><ele>350.0</ele><time>2026-04-15T13:28:06.149Z</time></trkpt><trkpt lat="45.7860317" lon="8.9888233"><ele>350.0</ele><time>2026-04-15T13:28:09.15Z</time></trkpt><trkpt lat="45.78601" lon="8.9887067"><ele>350.0</ele><time>2026-04-15T13:28:12.15Z</time></trkpt><trkpt lat="45.78597" lon="8.9886017"><ele>350.0</ele><time>2026-04-15T13:28:15.15Z</time></trkpt><trkpt lat="45.78595" lon="8.9884967"><ele>350.0</ele><time>2026-04-15T13:28:18.149Z</time></trkpt><trkpt lat="45.7859517" lon="8.98838"><ele>350.2857142857143</ele><time>2026-04-15T13:28:21.152Z</time></trkpt><trkpt lat="45.7859633" lon="8.988265"><ele>350.57142857142856</ele><time>2026-04-15T13:28:24.152Z</time></trkpt><trkpt lat="45.7859983" lon="8.988145"><ele>350.8571428571429</ele><time>2026-04-15T13:28:27.151Z</time></trkpt><trkpt lat="45.786035" lon="8.9880517"><ele>351.1428571428571</ele><time>2026-04-15T13:28:30.149Z</time></trkpt><trkpt lat="45.7860683" lon="8.9879567"><ele>351.42857142857144</ele><time>2026-04-15T13:28:33.15Z</time></trkpt><trkpt lat="45.7861317" lon="8.9879533"><ele>351.7142857142857</ele><time>2026-04-15T13:28:36.149Z</time></trkpt><trkpt lat="45.7861933" lon="8.9879733"><ele>352.0</ele><time>2026-04-15T13:28:38.151Z</time></trkpt><trkpt lat="45.7862683" lon="8.9879767"><ele>352.0</ele><time>2026-04-15T13:28:40.15Z</time></trkpt><trkpt lat="45.7863717" lon="8.98797"><ele>352.0</ele><time>2026-04-15T13:28:42.15Z</time></trkpt><trkpt lat="45.7864767" lon="8.9879833"><ele>352.0</ele><time>2026-04-15T13:28:44.151Z</time></trkpt><trkpt lat="45.7865717" lon="8.9879733"><ele>352.0</ele><time>2026-04-15T13:28:46.149Z</time></trkpt><trkpt lat="45.7866533" lon="8.98793"><ele>352.0</ele><time>2026-04-15T13:28:48.151Z</time></trkpt><trkpt lat="45.7867567" lon="8.98794"><ele>351.40000000000003</ele><time>2026-04-15T13:28:50.152Z</time></trkpt><trkpt lat="45.7868667" lon="8.987955"><ele>350.8</ele><time>2026-04-15T13:28:52.15Z</time></trkpt><trkpt lat="45.7869767" lon="8.9879917"><ele>350.2</ele><time>2026-04-15T13:28:54.151Z</time></trkpt><trkpt lat="45.7870783" lon="8.9880467"><ele>349.6</ele><time>2026-04-15T13:28:56.152Z</time></trkpt><trkpt lat="45.7871867" lon="8.9881033"><ele>349.0</ele><time>2026-04-15T13:28:58.15Z</time></trkpt><trkpt lat="45.7872967" lon="8.98814"><ele>349.0</ele><time>2026-04-15T13:29:00.149Z</time></trkpt><trkpt lat="45.7874067" lon="8.988155"><ele>349.0</ele><time>2026-04-15T13:29:02.151Z</time></trkpt><trkpt lat="45.7875067" lon="8.9881783"><ele>349.0</ele><time>2026-04-15T13:29:04.151Z</time></trkpt><trkpt lat="45.7876067" lon="8.9881933"><ele>349.0</ele><time>2026-04-15T13:29:06.151Z</time></trkpt><trkpt lat="45.78771" lon="8.98822"><ele>349.0</ele><time>2026-04-15T13:29:08.152Z</time></trkpt><trkpt lat="45.78781" lon="8.9882583"><ele>349.0</ele><time>2026-04-15T13:29:10.15Z</time></trkpt><trkpt lat="45.7879133" lon="8.9882933"><ele>349.0</ele><time>2026-04-15T13:29:12.149Z</time></trkpt><trkpt lat="45.78802" lon="8.9883183"><ele>349.0</ele><time>2026-04-15T13:29:14.151Z</time></trkpt><trkpt lat="45.78812" lon="8.9883517"><ele>349.0</ele><time>2026-04-15T13:29:16.149Z</time></trkpt><trkpt lat="45.78822" lon="8.988365"><ele>349.0</ele><time>2026-04-15T13:29:18.149Z</time></trkpt><trkpt lat="45.78832" lon="8.98837"><ele>349.0</ele><time>2026-04-15T13:29:20.151Z</time></trkpt><trkpt lat="45.78842" lon="8.9883767"><ele>349.0</ele><time>2026-04-15T13:29:22.151Z</time></trkpt><trkpt lat="45.78852" lon="8.9883783"><ele>349.0</ele><time>2026-04-15T13:29:24.15Z</time></trkpt><trkpt lat="45.78862" lon="8.9883867"><ele>349.0</ele><time>2026-04-15T13:29:26.15Z</time></trkpt><trkpt lat="45.78872" lon="8.9883967"><ele>349.0</ele><time>2026-04-15T13:29:28.15Z</time></trkpt><trkpt lat="45.788815" lon="8.98841"><ele>349.0</ele><time>2026-04-15T13:29:30.15Z</time></trkpt><trkpt lat="45.78891" lon="8.988415"><ele>349.0</ele><time>2026-04-15T13:29:32.15Z</time></trkpt><trkpt lat="45.7890067" lon="8.98842"><ele>349.0</ele><time>2026-04-15T13:29:34.15Z</time></trkpt><trkpt lat="45.7890983" lon="8.9884267"><ele>349.0</ele><time>2026-04-15T13:29:36.15Z</time></trkpt><trkpt lat="45.7891933" lon="8.9884383"><ele>349.0</ele><time>2026-04-15T13:29:38.15Z</time></trkpt><trkpt lat="45.789285" lon="8.9884517"><ele>349.0</ele><time>2026-04-15T13:29:40.149Z</time></trkpt><trkpt lat="45.7893783" lon="8.9884667"><ele>349.0</ele><time>2026-04-15T13:29:42.151Z</time></trkpt><trkpt lat="45.7894717" lon="8.9884783"><ele>349.0</ele><time>2026-04-15T13:29:44.15Z</time></trkpt><trkpt lat="45.7895633" lon="8.9884867"><ele>349.0</ele><time>2026-04-15T13:29:46.151Z</time></trkpt><trkpt lat="45.78965" lon="8.9884917"><ele>349.0</ele><time>2026-04-15T13:29:48.149Z</time></trkpt><trkpt lat="45.7897367" lon="8.9884967"><ele>349.0</ele><time>2026-04-15T13:29:50.151Z</time></trkpt><trkpt lat="45.789815" lon="8.9884917"><ele>349.0</ele><time>2026-04-15T13:29:52.151Z</time></trkpt><trkpt lat="45.7898883" lon="8.98848"><ele>349.0</ele><time>2026-04-15T13:29:54.151Z</time></trkpt><trkpt lat="45.789965" lon="8.9885433"><ele>349.0</ele><time>2026-04-15T13:29:57.15Z</time></trkpt><trkpt lat="45.789965" lon="8.988635"><ele>349.0</ele><time>2026-04-15T13:29:59.15Z</time></trkpt><trkpt lat="45.7899533" lon="8.9887467"><ele>349.0</ele><time>2026-04-15T13:30:01.15Z</time></trkpt><trkpt lat="45.7899433" lon="8.98888"><ele>349.0</ele><time>2026-04-15T13:30:03.15Z</time></trkpt><trkpt lat="45.7899333" lon="8.9890183"><ele>349.0</ele><time>2026-04-15T13:30:05.15Z</time></trkpt><trkpt lat="45.78993" lon="8.9891583"><ele>349.0</ele><time>2026-04-15T13:30:07.152Z</time></trkpt><trkpt lat="45.7899267" lon="8.9893017"><ele>349.0</ele><time>2026-04-15T13:30:09.151Z</time></trkpt><trkpt lat="45.789925" lon="8.989445"><ele>349.0</ele><time>2026-04-15T13:30:11.151Z</time></trkpt><trkpt lat="45.789925" lon="8.9895867"><ele>349.2</ele><time>2026-04-15T13:30:13.15Z</time></trkpt><trkpt lat="45.7899167" lon="8.98971"><ele>349.4</ele><time>2026-04-15T13:30:15.15Z</time></trkpt><trkpt lat="45.78994" lon="8.9898117"><ele>349.6</ele><time>2026-04-15T13:30:17.149Z</time></trkpt><trkpt lat="45.790015" lon="8.9898617"><ele>349.8</ele><time>2026-04-15T13:30:19.15Z</time></trkpt><trkpt lat="45.79012" lon="8.98985"><ele>350.0</ele><time>2026-04-15T13:30:21.148Z</time></trkpt><trkpt lat="45.79022" lon="8.9898317"><ele>350.2</ele><time>2026-04-15T13:30:23.149Z</time></trkpt><trkpt lat="45.7903233" lon="8.9898217"><ele>350.4</ele><time>2026-04-15T13:30:25.15Z</time></trkpt><trkpt lat="45.7904283" lon="8.9898083"><ele>350.6</ele><time>2026-04-15T13:30:27.15Z</time></trkpt><trkpt lat="45.7905267" lon="8.989795"><ele>350.8</ele><time>2026-04-15T13:30:29.151Z</time></trkpt><trkpt lat="45.79063" lon="8.9897833"><ele>351.0</ele><time>2026-04-15T13:30:31.151Z</time></trkpt><trkpt lat="45.7907417" lon="8.98976"><ele>351.0</ele><time>2026-04-15T13:30:33.15Z</time></trkpt><trkpt lat="45.79085" lon="8.9897317"><ele>351.0</ele><time>2026-04-15T13:30:35.15Z</time></trkpt><trkpt lat="45.79095" lon="8.9897133"><ele>351.0</ele><time>2026-04-15T13:30:37.15Z</time></trkpt><trkpt lat="45.791045" lon="8.9896867"><ele>351.0</ele><time>2026-04-15T13:30:39.151Z</time></trkpt><trkpt lat="45.7911383" lon="8.9896717"><ele>351.0</ele><time>2026-04-15T13:30:41.149Z</time></trkpt><trkpt lat="45.791235" lon="8.9896833"><ele>351.0</ele><time>2026-04-15T13:30:43.149Z</time></trkpt><trkpt lat="45.79133" lon="8.989725"><ele>351.0</ele><time>2026-04-15T13:30:45.149Z</time></trkpt><trkpt lat="45.7914183" lon="8.9897867"><ele>351.0</ele><time>2026-04-15T13:30:47.149Z</time></trkpt><trkpt lat="45.791495" lon="8.9898717"><ele>351.0</ele><time>2026-04-15T13:30:49.15Z</time></trkpt><trkpt lat="45.791575" lon="8.9899583"><ele>351.0</ele><time>2026-04-15T13:30:51.151Z</time></trkpt><trkpt lat="45.79166" lon="8.990055"><ele>351.0</ele><time>2026-04-15T13:30:53.149Z</time></trkpt><trkpt lat="45.7917467" lon="8.9901517"><ele>351.0</ele><time>2026-04-15T13:30:55.15Z</time></trkpt><trkpt lat="45.7918333" lon="8.9902383"><ele>351.0</ele><time>2026-04-15T13:30:57.151Z</time></trkpt><trkpt lat="45.7919183" lon="8.9903283"><ele>351.0</ele><time>2026-04-15T13:30:59.153Z</time></trkpt><trkpt lat="45.792005" lon="8.9904083"><ele>351.0</ele><time>2026-04-15T13:31:01.151Z</time></trkpt><trkpt lat="45.792095" lon="8.99049"><ele>351.8</ele><time>2026-04-15T13:31:03.151Z</time></trkpt><trkpt lat="45.79218" lon="8.9905733"><ele>352.6</ele><time>2026-04-15T13:31:05.151Z</time></trkpt><trkpt lat="45.7922667" lon="8.9906533"><ele>353.4</ele><time>2026-04-15T13:31:07.152Z</time></trkpt><trkpt lat="45.79234" lon="8.9907367"><ele>354.2</ele><time>2026-04-15T13:31:09.151Z</time></trkpt><trkpt lat="45.7924033" lon="8.9908133"><ele>355.0</ele><time>2026-04-15T13:31:11.15Z</time></trkpt><trkpt lat="45.79248" lon="8.9907783"><ele>355.0</ele><time>2026-04-15T13:31:14.151Z</time></trkpt><trkpt lat="45.7924667" lon="8.99065"><ele>355.0</ele><time>2026-04-15T13:31:16.15Z</time></trkpt><trkpt lat="45.79246" lon="8.99051"><ele>355.0</ele><time>2026-04-15T13:31:18.153Z</time></trkpt><trkpt lat="45.7924633" lon="8.990365"><ele>355.0</ele><time>2026-04-15T13:31:20.149Z</time></trkpt><trkpt lat="45.792455" lon="8.990195"><ele>355.0</ele><time>2026-04-15T13:31:22.149Z</time></trkpt><trkpt lat="45.7924483" lon="8.9900217"><ele>354.8</ele><time>2026-04-15T13:31:24.15Z</time></trkpt><trkpt lat="45.792435" lon="8.98993"><ele>354.6</ele><time>2026-04-15T13:31:25.15Z</time></trkpt><trkpt lat="45.7924" lon="8.9897633"><ele>354.4</ele><time>2026-04-15T13:31:27.149Z</time></trkpt><trkpt lat="45.7923617" lon="8.9896033"><ele>354.2</ele><time>2026-04-15T13:31:29.149Z</time></trkpt><trkpt lat="45.7923617" lon="8.9894517"><ele>354.0</ele><time>2026-04-15T13:31:31.149Z</time></trkpt><trkpt lat="45.7924067" lon="8.9893283"><ele>354.0</ele><time>2026-04-15T13:31:33.149Z</time></trkpt><trkpt lat="45.7925033" lon="8.9892517"><ele>354.0</ele><time>2026-04-15T13:31:35.15Z</time></trkpt><trkpt lat="45.79259" lon="8.9891583"><ele>354.0</ele><time>2026-04-15T13:31:37.15Z</time></trkpt><trkpt lat="45.7926733" lon="8.989045"><ele>354.0</ele><time>2026-04-15T13:31:39.15Z</time></trkpt><trkpt lat="45.7927583" lon="8.9889467"><ele>354.0</ele><time>2026-04-15T13:31:41.151Z</time></trkpt><trkpt lat="45.79284" lon="8.98885"><ele>353.79999999999995</ele><time>2026-04-15T13:31:43.15Z</time></trkpt><trkpt lat="45.792925" lon="8.9887467"><ele>353.59999999999997</ele><time>2026-04-15T13:31:45.149Z</time></trkpt><trkpt lat="45.7930133" lon="8.9886517"><ele>353.4</ele><time>2026-04-15T13:31:47.148Z</time></trkpt><trkpt lat="45.7930933" lon="8.9885533"><ele>353.2</ele><time>2026-04-15T13:31:49.149Z</time></trkpt><trkpt lat="45.79318" lon="8.9884517"><ele>353.0</ele><time>2026-04-15T13:31:51.151Z</time></trkpt><trkpt lat="45.79327" lon="8.9883517"><ele>353.59999999999997</ele><time>2026-04-15T13:31:53.15Z</time></trkpt><trkpt lat="45.79335" lon="8.9882583"><ele>354.2</ele><time>2026-04-15T13:31:55.151Z</time></trkpt><trkpt lat="45.793425" lon="8.9881517"><ele>354.8</ele><time>2026-04-15T13:31:57.151Z</time></trkpt><trkpt lat="45.7935067" lon="8.9880467"><ele>355.4</ele><time>2026-04-15T13:31:59.151Z</time></trkpt><trkpt lat="45.79359" lon="8.9879483"><ele>356.0</ele><time>2026-04-15T13:32:01.15Z</time></trkpt><trkpt lat="45.7936783" lon="8.9878483"><ele>356.4</ele><time>2026-04-15T13:32:03.149Z</time></trkpt><trkpt lat="45.7937683" lon="8.9877483"><ele>356.8</ele><time>2026-04-15T13:32:05.148Z</time></trkpt><trkpt lat="45.7938583" lon="8.9876433"><ele>357.2</ele><time>2026-04-15T13:32:07.148Z</time></trkpt><trkpt lat="45.7939467" lon="8.98755"><ele>357.59999999999997</ele><time>2026-04-15T13:32:09.148Z</time></trkpt><trkpt lat="45.79403" lon="8.987455"><ele>358.0</ele><time>2026-04-15T13:32:11.149Z</time></trkpt><trkpt lat="45.7941133" lon="8.9873583"><ele>358.0</ele><time>2026-04-15T13:32:13.149Z</time></trkpt><trkpt lat="45.794185" lon="8.98725"><ele>358.0</ele><time>2026-04-15T13:32:15.15Z</time></trkpt><trkpt lat="45.7942517" lon="8.9871433"><ele>358.0</ele><time>2026-04-15T13:32:17.148Z</time></trkpt><trkpt lat="45.7943217" lon="8.9870433"><ele>358.0</ele><time>2026-04-15T13:32:19.149Z</time></trkpt><trkpt lat="45.794385" lon="8.9869233"><ele>358.0</ele><time>2026-04-15T13:32:21.15Z</time></trkpt><trkpt lat="45.7944533" lon="8.9868133"><ele>358.16666666666663</ele><time>2026-04-15T13:32:23.149Z</time></trkpt><trkpt lat="45.7945167" lon="8.98671"><ele>358.3333333333333</ele><time>2026-04-15T13:32:25.149Z</time></trkpt><trkpt lat="45.79457" lon="8.9866217"><ele>358.5</ele><time>2026-04-15T13:32:27.149Z</time></trkpt><trkpt lat="45.7946217" lon="8.9865317"><ele>358.6666666666667</ele><time>2026-04-15T13:32:29.149Z</time></trkpt><trkpt lat="45.794675" lon="8.9864267"><ele>358.83333333333337</ele><time>2026-04-15T13:32:31.15Z</time></trkpt><trkpt lat="45.794735" lon="8.9863183"><ele>359.0</ele><time>2026-04-15T13:32:33.148Z</time></trkpt><trkpt lat="45.7947967" lon="8.986215"><ele>359.0</ele><time>2026-04-15T13:32:35.151Z</time></trkpt><trkpt lat="45.794855" lon="8.9861067"><ele>359.0</ele><time>2026-04-15T13:32:37.149Z</time></trkpt><trkpt lat="45.794915" lon="8.9859883"><ele>359.0</ele><time>2026-04-15T13:32:39.15Z</time></trkpt><trkpt lat="45.7949733" lon="8.98585"><ele>359.0</ele><time>2026-04-15T13:32:41.149Z</time></trkpt><trkpt lat="45.7950333" lon="8.9857167"><ele>359.0</ele><time>2026-04-15T13:32:43.149Z</time></trkpt><trkpt lat="45.7950617" lon="8.985575"><ele>359.2</ele><time>2026-04-15T13:32:45.149Z</time></trkpt><trkpt lat="45.795105" lon="8.9854417"><ele>359.4</ele><time>2026-04-15T13:32:47.148Z</time></trkpt><trkpt lat="45.7951717" lon="8.98536"><ele>359.6</ele><time>2026-04-15T13:32:49.151Z</time></trkpt><trkpt lat="45.79526" lon="8.9853467"><ele>359.8</ele><time>2026-04-15T13:32:51.15Z</time></trkpt><trkpt lat="45.7953583" lon="8.9853583"><ele>360.0</ele><time>2026-04-15T13:32:53.149Z</time></trkpt><trkpt lat="45.7954533" lon="8.9853483"><ele>360.0</ele><time>2026-04-15T13:32:55.15Z</time></trkpt><trkpt lat="45.795545" lon="8.9853367"><ele>360.0</ele><time>2026-04-15T13:32:57.149Z</time></trkpt><trkpt lat="45.7956367" lon="8.9853133"><ele>360.0</ele><time>2026-04-15T13:32:59.149Z</time></trkpt><trkpt lat="45.79573" lon="8.9852833"><ele>360.0</ele><time>2026-04-15T13:33:01.149Z</time></trkpt><trkpt lat="45.7958267" lon="8.9852533"><ele>360.0</ele><time>2026-04-15T13:33:03.15Z</time></trkpt><trkpt lat="45.7959283" lon="8.9852367"><ele>359.2</ele><time>2026-04-15T13:33:05.151Z</time></trkpt><trkpt lat="45.7960333" lon="8.9852217"><ele>358.4</ele><time>2026-04-15T13:33:07.149Z</time></trkpt><trkpt lat="45.796135" lon="8.9852017"><ele>357.6</ele><time>2026-04-15T13:33:09.149Z</time></trkpt><trkpt lat="45.7962367" lon="8.9851883"><ele>356.8</ele><time>2026-04-15T13:33:11.15Z</time></trkpt><trkpt lat="45.7963367" lon="8.98517"><ele>356.0</ele><time>2026-04-15T13:33:13.151Z</time></trkpt><trkpt lat="45.7964333" lon="8.9851567"><ele>356.0</ele><time>2026-04-15T13:33:15.149Z</time></trkpt><trkpt lat="45.7965333" lon="8.985145"><ele>356.0</ele><time>2026-04-15T13:33:17.148Z</time></trkpt><trkpt lat="45.7966267" lon="8.98513"><ele>356.0</ele><time>2026-04-15T13:33:19.149Z</time></trkpt><trkpt lat="45.7967133" lon="8.9851033"><ele>356.0</ele><time>2026-04-15T13:33:21.15Z</time></trkpt><trkpt lat="45.7967983" lon="8.9850733"><ele>356.0</ele><time>2026-04-15T13:33:23.149Z</time></trkpt><trkpt lat="45.796845" lon="8.9849817"><ele>356.33333333333337</ele><time>2026-04-15T13:33:25.149Z</time></trkpt><trkpt lat="45.796825" lon="8.98487"><ele>356.6666666666667</ele><time>2026-04-15T13:33:27.149Z</time></trkpt><trkpt lat="45.7968083" lon="8.9847517"><ele>357.0</ele><time>2026-04-15T13:33:29.149Z</time></trkpt><trkpt lat="45.7967967" lon="8.984625"><ele>357.3333333333333</ele><time>2026-04-15T13:33:31.149Z</time></trkpt><trkpt lat="45.79679" lon="8.9844933"><ele>357.66666666666663</ele><time>2026-04-15T13:33:33.149Z</time></trkpt><trkpt lat="45.7967817" lon="8.98436"><ele>358.0</ele><time>2026-04-15T13:33:35.149Z</time></trkpt><trkpt lat="45.7967783" lon="8.9842333"><ele>358.59999999999997</ele><time>2026-04-15T13:33:37.149Z</time></trkpt><trkpt lat="45.7967633" lon="8.9841167"><ele>359.2</ele><time>2026-04-15T13:33:39.151Z</time></trkpt><trkpt lat="45.7967333" lon="8.98401"><ele>359.8</ele><time>2026-04-15T13:33:41.15Z</time></trkpt><trkpt lat="45.7967017" lon="8.983895"><ele>360.4</ele><time>2026-04-15T13:33:43.149Z</time></trkpt><trkpt lat="45.79664" lon="8.9837083"><ele>361.0</ele><time>2026-04-15T13:33:46.149Z</time></trkpt><trkpt lat="45.7966017" lon="8.9835767"><ele>361.0</ele><time>2026-04-15T13:33:48.151Z</time></trkpt><trkpt lat="45.7965667" lon="8.9834367"><ele>361.0</ele><time>2026-04-15T13:33:50.153Z</time></trkpt><trkpt lat="45.7965283" lon="8.9832967"><ele>361.0</ele><time>2026-04-15T13:33:52.15Z</time></trkpt><trkpt lat="45.7964933" lon="8.9831567"><ele>361.0</ele><time>2026-04-15T13:33:54.151Z</time></trkpt><trkpt lat="45.796465" lon="8.98301"><ele>361.0</ele><time>2026-04-15T13:33:56.15Z</time></trkpt><trkpt lat="45.79643" lon="8.982875"><ele>360.8</ele><time>2026-04-15T13:33:58.15Z</time></trkpt><trkpt lat="45.796395" lon="8.9827333"><ele>360.6</ele><time>2026-04-15T13:34:00.151Z</time></trkpt><trkpt lat="45.7963633" lon="8.9825933"><ele>360.4</ele><time>2026-04-15T13:34:02.151Z</time></trkpt><trkpt lat="45.7963267" lon="8.982455"><ele>360.2</ele><time>2026-04-15T13:34:04.152Z</time></trkpt><trkpt lat="45.7962883" lon="8.9823183"><ele>360.0</ele><time>2026-04-15T13:34:06.151Z</time></trkpt><trkpt lat="45.7962483" lon="8.9821783"><ele>360.4</ele><time>2026-04-15T13:34:08.151Z</time></trkpt><trkpt lat="45.7962083" lon="8.982035"><ele>360.8</ele><time>2026-04-15T13:34:10.15Z</time></trkpt><trkpt lat="45.7961617" lon="8.9818917"><ele>361.20000000000005</ele><time>2026-04-15T13:34:12.149Z</time></trkpt><trkpt lat="45.7961133" lon="8.9817433"><ele>361.6</ele><time>2026-04-15T13:34:14.149Z</time></trkpt><trkpt lat="45.7960717" lon="8.9815933"><ele>362.0</ele><time>2026-04-15T13:34:16.149Z</time></trkpt><trkpt lat="45.7960183" lon="8.981445"><ele>362.0</ele><time>2026-04-15T13:34:18.149Z</time></trkpt><trkpt lat="45.7959717" lon="8.981305"><ele>362.0</ele><time>2026-04-15T13:34:20.15Z</time></trkpt><trkpt lat="45.7959233" lon="8.981165"><ele>362.0</ele><time>2026-04-15T13:34:22.15Z</time></trkpt><trkpt lat="45.79588" lon="8.9810183"><ele>362.0</ele><time>2026-04-15T13:34:24.15Z</time></trkpt><trkpt lat="45.795845" lon="8.9808733"><ele>362.0</ele><time>2026-04-15T13:34:26.148Z</time></trkpt><trkpt lat="45.7958083" lon="8.9807283"><ele>362.0</ele><time>2026-04-15T13:34:28.15Z</time></trkpt><trkpt lat="45.7957733" lon="8.9805933"><ele>362.0</ele><time>2026-04-15T13:34:30.151Z</time></trkpt><trkpt lat="45.7957333" lon="8.9804583"><ele>362.0</ele><time>2026-04-15T13:34:32.15Z</time></trkpt><trkpt lat="45.795695" lon="8.9803183"><ele>362.0</ele><time>2026-04-15T13:34:34.151Z</time></trkpt><trkpt lat="45.7956733" lon="8.9801733"><ele>362.0</ele><time>2026-04-15T13:34:36.149Z</time></trkpt><trkpt lat="45.7956617" lon="8.9800283"><ele>362.0</ele><time>2026-04-15T13:34:38.151Z</time></trkpt><trkpt lat="45.7956633" lon="8.9798883"><ele>362.0</ele><time>2026-04-15T13:34:40.149Z</time></trkpt><trkpt lat="45.7956533" lon="8.9797617"><ele>362.0</ele><time>2026-04-15T13:34:42.15Z</time></trkpt><trkpt lat="45.7955967" lon="8.9796817"><ele>362.0</ele><time>2026-04-15T13:34:44.15Z</time></trkpt><trkpt lat="45.7954983" lon="8.9796633"><ele>362.0</ele><time>2026-04-15T13:34:46.149Z</time></trkpt><trkpt lat="45.7954017" lon="8.9796517"><ele>362.0</ele><time>2026-04-15T13:34:48.151Z</time></trkpt><trkpt lat="45.795305" lon="8.979635"><ele>362.0</ele><time>2026-04-15T13:34:50.152Z</time></trkpt><trkpt lat="45.7952067" lon="8.9796217"><ele>362.0</ele><time>2026-04-15T13:34:52.149Z</time></trkpt><trkpt lat="45.79511" lon="8.9796017"><ele>362.0</ele><time>2026-04-15T13:34:54.15Z</time></trkpt><trkpt lat="45.795015" lon="8.9795867"><ele>362.0</ele><time>2026-04-15T13:34:56.15Z</time></trkpt><trkpt lat="45.7949317" lon="8.9795683"><ele>362.5</ele><time>2026-04-15T13:34:58.149Z</time></trkpt><trkpt lat="45.7948683" lon="8.9795167"><ele>363.0</ele><time>2026-04-15T13:35:00.15Z</time></trkpt><trkpt lat="45.7948567" lon="8.979395"><ele>363.5</ele><time>2026-04-15T13:35:03.15Z</time></trkpt><trkpt lat="45.7948583" lon="8.97929"><ele>364.0</ele><time>2026-04-15T13:35:06.15Z</time></trkpt><trkpt lat="45.7948567" lon="8.9791883"><ele>364.5</ele><time>2026-04-15T13:35:09.15Z</time></trkpt><trkpt lat="45.7948683" lon="8.9790767"><ele>365.0</ele><time>2026-04-15T13:35:12.15Z</time></trkpt><trkpt lat="45.7948617" lon="8.9789583"><ele>365.83333333333337</ele><time>2026-04-15T13:35:15.15Z</time></trkpt><trkpt lat="45.7949033" lon="8.9788433"><ele>366.6666666666667</ele><time>2026-04-15T13:35:18.151Z</time></trkpt><trkpt lat="45.7949367" lon="8.9787567"><ele>367.5</ele><time>2026-04-15T13:35:21.149Z</time></trkpt><trkpt lat="45.794965" lon="8.9786633"><ele>368.3333333333333</ele><time>2026-04-15T13:35:24.15Z</time></trkpt><trkpt lat="45.7949717" lon="8.97856"><ele>369.16666666666663</ele><time>2026-04-15T13:35:27.15Z</time></trkpt><trkpt lat="45.794965" lon="8.978455"><ele>370.0</ele><time>2026-04-15T13:35:31.15Z</time></trkpt><trkpt lat="45.79495" lon="8.9783317"><ele>370.85714285714283</ele><time>2026-04-15T13:35:35.15Z</time></trkpt><trkpt lat="45.7949217" lon="8.9782367"><ele>371.7142857142857</ele><time>2026-04-15T13:35:38.15Z</time></trkpt><trkpt lat="45.794895" lon="8.97814"><ele>372.57142857142856</ele><time>2026-04-15T13:35:43.151Z</time></trkpt><trkpt lat="45.79485" lon="8.9780767"><ele>373.42857142857144</ele><time>2026-04-15T13:35:46.15Z</time></trkpt><trkpt lat="45.79482" lon="8.9779933"><ele>374.2857142857143</ele><time>2026-04-15T13:35:50.152Z</time></trkpt><trkpt lat="45.7947933" lon="8.97789"><ele>375.1428571428571</ele><time>2026-04-15T13:35:54.15Z</time></trkpt><trkpt lat="45.7947567" lon="8.9777967"><ele>376.0</ele><time>2026-04-15T13:35:58.15Z</time></trkpt><trkpt lat="45.7947183" lon="8.97769"><ele>376.0</ele><time>2026-04-15T13:36:02.151Z</time></trkpt><trkpt lat="45.7946867" lon="8.9775983"><ele>376.0</ele><time>2026-04-15T13:36:06.149Z</time></trkpt><trkpt lat="45.7946467" lon="8.9775267"><ele>376.0</ele><time>2026-04-15T13:36:08.15Z</time></trkpt><trkpt lat="45.794605" lon="8.9774267"><ele>376.0</ele><time>2026-04-15T13:36:11.151Z</time></trkpt><trkpt lat="45.794585" lon="8.977325"><ele>376.0</ele><time>2026-04-15T13:36:14.151Z</time></trkpt><trkpt lat="45.7945583" lon="8.9772217"><ele>376.0</ele><time>2026-04-15T13:36:17.15Z</time></trkpt><trkpt lat="45.7945783" lon="8.977115"><ele>376.0</ele><time>2026-04-15T13:36:20.15Z</time></trkpt><trkpt lat="45.79463" lon="8.97705"><ele>376.3333333333333</ele><time>2026-04-15T13:36:22.149Z</time></trkpt><trkpt lat="45.7946733" lon="8.976975"><ele>376.66666666666663</ele><time>2026-04-15T13:36:24.149Z</time></trkpt><trkpt lat="45.7946733" lon="8.9768767"><ele>377.0</ele><time>2026-04-15T13:36:26.15Z</time></trkpt><trkpt lat="45.7946967" lon="8.9767817"><ele>377.3333333333333</ele><time>2026-04-15T13:36:28.151Z</time></trkpt><trkpt lat="45.79474" lon="8.9766567"><ele>377.6666666666667</ele><time>2026-04-15T13:36:30.15Z</time></trkpt><trkpt lat="45.7948" lon="8.976535"><ele>378.0</ele><time>2026-04-15T13:36:32.151Z</time></trkpt><trkpt lat="45.794855" lon="8.97642"><ele>378.0</ele><time>2026-04-15T13:36:34.151Z</time></trkpt><trkpt lat="45.794915" lon="8.9763067"><ele>378.0</ele><time>2026-04-15T13:36:36.15Z</time></trkpt><trkpt lat="45.7949667" lon="8.9762083"><ele>378.0</ele><time>2026-04-15T13:36:38.15Z</time></trkpt><trkpt lat="45.7950367" lon="8.9761267"><ele>378.0</ele><time>2026-04-15T13:36:40.149Z</time></trkpt><trkpt lat="45.79512" lon="8.9760267"><ele>378.0</ele><time>2026-04-15T13:36:42.15Z</time></trkpt><trkpt lat="45.795185" lon="8.9759283"><ele>376.8333333333333</ele><time>2026-04-15T13:36:44.15Z</time></trkpt><trkpt lat="45.79523" lon="8.97582"><ele>375.6666666666667</ele><time>2026-04-15T13:36:46.15Z</time></trkpt><trkpt lat="45.79526" lon="8.97568"><ele>374.5</ele><time>2026-04-15T13:36:48.152Z</time></trkpt><trkpt lat="45.7953067" lon="8.9755783"><ele>373.33333333333337</ele><time>2026-04-15T13:36:50.148Z</time></trkpt><trkpt lat="45.79534" lon="8.9754817"><ele>372.1666666666667</ele><time>2026-04-15T13:36:52.244Z</time></trkpt><trkpt lat="45.7953617" lon="8.9753683"><ele>371.0</ele><time>2026-04-15T13:36:54.149Z</time></trkpt><trkpt lat="45.7953783" lon="8.9752333"><ele>371.0</ele><time>2026-04-15T13:36:56.148Z</time></trkpt><trkpt lat="45.7953917" lon="8.9751117"><ele>371.0</ele><time>2026-04-15T13:36:58.148Z</time></trkpt><trkpt lat="45.79544" lon="8.9750083"><ele>371.0</ele><time>2026-04-15T13:37:00.148Z</time></trkpt><trkpt lat="45.7954567" lon="8.9749017"><ele>371.0</ele><time>2026-04-15T13:37:02.149Z</time></trkpt><trkpt lat="45.7954783" lon="8.97479"><ele>371.0</ele><time>2026-04-15T13:37:04.149Z</time></trkpt><trkpt lat="45.7954967" lon="8.9746667"><ele>371.0</ele><time>2026-04-15T13:37:06.149Z</time></trkpt><trkpt lat="45.7955183" lon="8.9745517"><ele>371.0</ele><time>2026-04-15T13:37:08.149Z</time></trkpt><trkpt lat="45.7955617" lon="8.9744517"><ele>371.0</ele><time>2026-04-15T13:37:10.149Z</time></trkpt><trkpt lat="45.7955933" lon="8.9743333"><ele>371.0</ele><time>2026-04-15T13:37:12.149Z</time></trkpt><trkpt lat="45.795605" lon="8.97421"><ele>371.0</ele><time>2026-04-15T13:37:14.153Z</time></trkpt><trkpt lat="45.795615" lon="8.9740883"><ele>371.0</ele><time>2026-04-15T13:37:16.149Z</time></trkpt><trkpt lat="45.7956283" lon="8.9739783"><ele>371.0</ele><time>2026-04-15T13:37:18.15Z</time></trkpt><trkpt lat="45.7956533" lon="8.973865"><ele>371.33333333333337</ele><time>2026-04-15T13:37:20.15Z</time></trkpt><trkpt lat="45.7956733" lon="8.9737483"><ele>371.6666666666667</ele><time>2026-04-15T13:37:22.15Z</time></trkpt><trkpt lat="45.7957067" lon="8.9736333"><ele>372.0</ele><time>2026-04-15T13:37:24.149Z</time></trkpt><trkpt lat="45.7957233" lon="8.9735267"><ele>372.3333333333333</ele><time>2026-04-15T13:37:26.15Z</time></trkpt><trkpt lat="45.7957217" lon="8.97341"><ele>372.66666666666663</ele><time>2026-04-15T13:37:28.149Z</time></trkpt><trkpt lat="45.7957383" lon="8.973315"><ele>373.0</ele><time>2026-04-15T13:37:30.149Z</time></trkpt><trkpt lat="45.7957383" lon="8.9732183"><ele>374.3333333333333</ele><time>2026-04-15T13:37:32.15Z</time></trkpt><trkpt lat="45.7957567" lon="8.9731117"><ele>375.66666666666663</ele><time>2026-04-15T13:37:34.149Z</time></trkpt><trkpt lat="45.7957683" lon="8.973"><ele>377.0</ele><time>2026-04-15T13:37:36.15Z</time></trkpt><trkpt lat="45.7957817" lon="8.972875"><ele>378.3333333333333</ele><time>2026-04-15T13:37:38.15Z</time></trkpt><trkpt lat="45.795795" lon="8.9727483"><ele>379.6666666666667</ele><time>2026-04-15T13:37:40.151Z</time></trkpt><trkpt lat="45.7958083" lon="8.972605"><ele>381.0</ele><time>2026-04-15T13:37:42.149Z</time></trkpt><trkpt lat="45.7958483" lon="8.9724633"><ele>381.0</ele><time>2026-04-15T13:37:44.149Z</time></trkpt><trkpt lat="45.7958867" lon="8.9723417"><ele>381.0</ele><time>2026-04-15T13:37:46.15Z</time></trkpt><trkpt lat="45.7959283" lon="8.9722083"><ele>381.0</ele><time>2026-04-15T13:37:48.149Z</time></trkpt><trkpt lat="45.7959767" lon="8.97207"><ele>381.0</ele><time>2026-04-15T13:37:50.149Z</time></trkpt><trkpt lat="45.796015" lon="8.971935"><ele>381.0</ele><time>2026-04-15T13:37:52.149Z</time></trkpt><trkpt lat="45.796035" lon="8.9717983"><ele>381.0</ele><time>2026-04-15T13:37:54.149Z</time></trkpt><trkpt lat="45.796035" lon="8.9716767"><ele>381.0</ele><time>2026-04-15T13:37:56.15Z</time></trkpt><trkpt lat="45.7960367" lon="8.9715533"><ele>381.0</ele><time>2026-04-15T13:37:58.149Z</time></trkpt><trkpt lat="45.7960233" lon="8.971425"><ele>381.0</ele><time>2026-04-15T13:38:00.15Z</time></trkpt><trkpt lat="45.79603" lon="8.9713017"><ele>381.0</ele><time>2026-04-15T13:38:02.15Z</time></trkpt><trkpt lat="45.79604" lon="8.971185"><ele>381.0</ele><time>2026-04-15T13:38:04.15Z</time></trkpt><trkpt lat="45.796035" lon="8.97106"><ele>381.0</ele><time>2026-04-15T13:38:06.151Z</time></trkpt><trkpt lat="45.796055" lon="8.9709483"><ele>381.0</ele><time>2026-04-15T13:38:08.149Z</time></trkpt><trkpt lat="45.79605" lon="8.9708267"><ele>381.0</ele><time>2026-04-15T13:38:10.149Z</time></trkpt><trkpt lat="45.7960467" lon="8.9707083"><ele>381.0</ele><time>2026-04-15T13:38:12.149Z</time></trkpt><trkpt lat="45.796065" lon="8.9705983"><ele>381.0</ele><time>2026-04-15T13:38:14.149Z</time></trkpt><trkpt lat="45.7961" lon="8.9704883"><ele>381.0</ele><time>2026-04-15T13:38:16.151Z</time></trkpt><trkpt lat="45.7961467" lon="8.9703883"><ele>381.0</ele><time>2026-04-15T13:38:18.149Z</time></trkpt><trkpt lat="45.7962133" lon="8.9703317"><ele>381.0</ele><time>2026-04-15T13:38:20.15Z</time></trkpt><trkpt lat="45.7962817" lon="8.9702883"><ele>381.0</ele><time>2026-04-15T13:38:22.149Z</time></trkpt><trkpt lat="45.7963517" lon="8.9702667"><ele>381.0</ele><time>2026-04-15T13:38:24.148Z</time></trkpt><trkpt lat="45.7964083" lon="8.9701917"><ele>381.0</ele><time>2026-04-15T13:38:27.148Z</time></trkpt><trkpt lat="45.79643" lon="8.970075"><ele>381.0</ele><time>2026-04-15T13:38:34.149Z</time></trkpt><trkpt lat="45.796435" lon="8.9699833"><ele>381.0</ele><time>2026-04-15T13:38:36.15Z</time></trkpt><trkpt lat="45.7964133" lon="8.9698617"><ele>380.5</ele><time>2026-04-15T13:38:38.15Z</time></trkpt><trkpt lat="45.7964017" lon="8.9697333"><ele>380.0</ele><time>2026-04-15T13:38:40.15Z</time></trkpt><trkpt lat="45.7963783" lon="8.969585"><ele>379.5</ele><time>2026-04-15T13:38:42.149Z</time></trkpt><trkpt lat="45.7963617" lon="8.9694733"><ele>379.0</ele><time>2026-04-15T13:38:44.149Z</time></trkpt><trkpt lat="45.79635" lon="8.9693667"><ele>378.5</ele><time>2026-04-15T13:38:46.15Z</time></trkpt><trkpt lat="45.7963317" lon="8.969265"><ele>378.0</ele><time>2026-04-15T13:38:48.15Z</time></trkpt><trkpt lat="45.7963033" lon="8.9691483"><ele>377.6666666666667</ele><time>2026-04-15T13:38:51.15Z</time></trkpt><trkpt lat="45.7963117" lon="8.96902"><ele>377.3333333333333</ele><time>2026-04-15T13:38:54.15Z</time></trkpt><trkpt lat="45.7963167" lon="8.9689183"><ele>377.0</ele><time>2026-04-15T13:38:56.149Z</time></trkpt><trkpt lat="45.796345" lon="8.96882"><ele>376.66666666666663</ele><time>2026-04-15T13:38:58.148Z</time></trkpt><trkpt lat="45.7963683" lon="8.96872"><ele>376.3333333333333</ele><time>2026-04-15T13:39:00.15Z</time></trkpt><trkpt lat="45.7963833" lon="8.968615"><ele>376.0</ele><time>2026-04-15T13:39:02.15Z</time></trkpt><trkpt lat="45.7963917" lon="8.9685117"><ele>376.0</ele><time>2026-04-15T13:39:04.151Z</time></trkpt><trkpt lat="45.796415" lon="8.96839"><ele>376.0</ele><time>2026-04-15T13:39:06.15Z</time></trkpt><trkpt lat="45.7964317" lon="8.9682933"><ele>376.0</ele><time>2026-04-15T13:39:08.151Z</time></trkpt><trkpt lat="45.79646" lon="8.968195"><ele>376.0</ele><time>2026-04-15T13:39:10.15Z</time></trkpt><trkpt lat="45.796485" lon="8.96811"><ele>376.0</ele><time>2026-04-15T13:39:12.15Z</time></trkpt><trkpt lat="45.7965117" lon="8.9680167"><ele>376.0</ele><time>2026-04-15T13:39:14.151Z</time></trkpt><trkpt lat="45.79653" lon="8.967915"><ele>376.0</ele><time>2026-04-15T13:39:16.151Z</time></trkpt><trkpt lat="45.79657" lon="8.9678183"><ele>377.0</ele><time>2026-04-15T13:39:18.15Z</time></trkpt><trkpt lat="45.7965967" lon="8.9677133"><ele>378.0</ele><time>2026-04-15T13:39:20.15Z</time></trkpt><trkpt lat="45.79663" lon="8.9676017"><ele>379.0</ele><time>2026-04-15T13:39:22.149Z</time></trkpt><trkpt lat="45.7966667" lon="8.9675"><ele>380.0</ele><time>2026-04-15T13:39:24.15Z</time></trkpt><trkpt lat="45.7966967" lon="8.9674133"><ele>381.0</ele><time>2026-04-15T13:39:26.15Z</time></trkpt><trkpt lat="45.7967433" lon="8.9672833"><ele>382.0</ele><time>2026-04-15T13:39:29.149Z</time></trkpt><trkpt lat="45.796775" lon="8.96718"><ele>381.66666666666663</ele><time>2026-04-15T13:39:31.149Z</time></trkpt><trkpt lat="45.7968167" lon="8.9671017"><ele>381.3333333333333</ele><time>2026-04-15T13:39:33.149Z</time></trkpt><trkpt lat="45.7968633" lon="8.9670217"><ele>381.0</ele><time>2026-04-15T13:39:35.148Z</time></trkpt><trkpt lat="45.7968967" lon="8.9668933"><ele>380.6666666666667</ele><time>2026-04-15T13:39:38.15Z</time></trkpt><trkpt lat="45.796945" lon="8.9668"><ele>380.33333333333337</ele><time>2026-04-15T13:39:40.15Z</time></trkpt><trkpt lat="45.7969833" lon="8.9667017"><ele>380.0</ele><time>2026-04-15T13:39:42.149Z</time></trkpt><trkpt lat="45.7970417" lon="8.9665983"><ele>380.0</ele><time>2026-04-15T13:39:45.149Z</time></trkpt><trkpt lat="45.7970867" lon="8.9665117"><ele>380.0</ele><time>2026-04-15T13:39:47.151Z</time></trkpt><trkpt lat="45.79713" lon="8.96643"><ele>380.0</ele><time>2026-04-15T13:39:49.149Z</time></trkpt><trkpt lat="45.79718" lon="8.966345"><ele>380.0</ele><time>2026-04-15T13:39:51.149Z</time></trkpt><trkpt lat="45.79723" lon="8.9662767"><ele>380.0</ele><time>2026-04-15T13:39:53.151Z</time></trkpt><trkpt lat="45.797285" lon="8.9662067"><ele>380.0</ele><time>2026-04-15T13:39:55.149Z</time></trkpt><trkpt lat="45.797345" lon="8.96614"><ele>380.0</ele><time>2026-04-15T13:39:57.149Z</time></trkpt><trkpt lat="45.7974" lon="8.9660767"><ele>380.0</ele><time>2026-04-15T13:39:59.15Z</time></trkpt><trkpt lat="45.7974583" lon="8.9659983"><ele>380.0</ele><time>2026-04-15T13:40:01.15Z</time></trkpt><trkpt lat="45.7975417" lon="8.965925"><ele>380.0</ele><time>2026-04-15T13:40:03.15Z</time></trkpt><trkpt lat="45.7976333" lon="8.96582"><ele>380.0</ele><time>2026-04-15T13:40:05.149Z</time></trkpt><trkpt lat="45.7977117" lon="8.9657083"><ele>380.0</ele><time>2026-04-15T13:40:07.15Z</time></trkpt><trkpt lat="45.79776" lon="8.9655933"><ele>379.83333333333337</ele><time>2026-04-15T13:40:09.148Z</time></trkpt><trkpt lat="45.79779" lon="8.9654883"><ele>379.6666666666667</ele><time>2026-04-15T13:40:11.15Z</time></trkpt><trkpt lat="45.79782" lon="8.9653783"><ele>379.5</ele><time>2026-04-15T13:40:13.149Z</time></trkpt><trkpt lat="45.7978483" lon="8.9652633"><ele>379.3333333333333</ele><time>2026-04-15T13:40:15.15Z</time></trkpt><trkpt lat="45.79787" lon="8.96515"><ele>379.16666666666663</ele><time>2026-04-15T13:40:17.15Z</time></trkpt><trkpt lat="45.7978867" lon="8.965035"><ele>379.0</ele><time>2026-04-15T13:40:19.151Z</time></trkpt><trkpt lat="45.7979117" lon="8.9649367"><ele>379.66666666666663</ele><time>2026-04-15T13:40:21.15Z</time></trkpt><trkpt lat="45.797935" lon="8.96482"><ele>380.3333333333333</ele><time>2026-04-15T13:40:23.151Z</time></trkpt><trkpt lat="45.797955" lon="8.964705"><ele>381.0</ele><time>2026-04-15T13:40:25.15Z</time></trkpt><trkpt lat="45.7979733" lon="8.9645867"><ele>381.6666666666667</ele><time>2026-04-15T13:40:27.151Z</time></trkpt><trkpt lat="45.79799" lon="8.9644883"><ele>382.33333333333337</ele><time>2026-04-15T13:40:29.149Z</time></trkpt><trkpt lat="45.7980067" lon="8.964375"><ele>383.0</ele><time>2026-04-15T13:40:31.15Z</time></trkpt><trkpt lat="45.7980133" lon="8.9642717"><ele>382.85714285714283</ele><time>2026-04-15T13:40:33.15Z</time></trkpt><trkpt lat="45.7980317" lon="8.9641683"><ele>382.71428571428567</ele><time>2026-04-15T13:40:35.149Z</time></trkpt><trkpt lat="45.7980467" lon="8.9640583"><ele>382.57142857142856</ele><time>2026-04-15T13:40:37.15Z</time></trkpt><trkpt lat="45.7980617" lon="8.9639633"><ele>382.42857142857144</ele><time>2026-04-15T13:40:39.149Z</time></trkpt><trkpt lat="45.7980833" lon="8.9638683"><ele>382.2857142857143</ele><time>2026-04-15T13:40:41.151Z</time></trkpt><trkpt lat="45.7981117" lon="8.9637717"><ele>382.14285714285717</ele><time>2026-04-15T13:40:43.15Z</time></trkpt><trkpt lat="45.7981083" lon="8.9636617"><ele>382.0</ele><time>2026-04-15T13:40:45.15Z</time></trkpt><trkpt lat="45.798105" lon="8.96354"><ele>382.0</ele><time>2026-04-15T13:40:47.15Z</time></trkpt><trkpt lat="45.7981183" lon="8.96343"><ele>382.0</ele><time>2026-04-15T13:40:49.15Z</time></trkpt><trkpt lat="45.7981367" lon="8.963335"><ele>382.0</ele><time>2026-04-15T13:40:51.151Z</time></trkpt><trkpt lat="45.7981533" lon="8.96323"><ele>382.0</ele><time>2026-04-15T13:40:53.15Z</time></trkpt><trkpt lat="45.798175" lon="8.9631233"><ele>382.0</ele><time>2026-04-15T13:40:55.152Z</time></trkpt><trkpt lat="45.79819" lon="8.9630167"><ele>382.0</ele><time>2026-04-15T13:40:57.15Z</time></trkpt><trkpt lat="45.79821" lon="8.96292"><ele>382.0</ele><time>2026-04-15T13:40:59.15Z</time></trkpt><trkpt lat="45.7982267" lon="8.9628117"><ele>382.5</ele><time>2026-04-15T13:41:01.151Z</time></trkpt><trkpt lat="45.7982333" lon="8.9627083"><ele>383.0</ele><time>2026-04-15T13:41:03.15Z</time></trkpt><trkpt lat="45.7982633" lon="8.9626167"><ele>383.5</ele><time>2026-04-15T13:41:05.15Z</time></trkpt><trkpt lat="45.7982967" lon="8.9625217"><ele>384.0</ele><time>2026-04-15T13:41:07.149Z</time></trkpt><trkpt lat="45.7983233" lon="8.9624133"><ele>384.50000000000006</ele><time>2026-04-15T13:41:09.15Z</time></trkpt><trkpt lat="45.79833" lon="8.9623067"><ele>385.0</ele><time>2026-04-15T13:41:11.148Z</time></trkpt><trkpt lat="45.7983467" lon="8.962185"><ele>385.0</ele><time>2026-04-15T13:41:13.151Z</time></trkpt><trkpt lat="45.7983783" lon="8.962045"><ele>385.0</ele><time>2026-04-15T13:41:15.151Z</time></trkpt><trkpt lat="45.7984067" lon="8.9619067"><ele>385.0</ele><time>2026-04-15T13:41:17.15Z</time></trkpt><trkpt lat="45.798435" lon="8.9617733"><ele>385.0</ele><time>2026-04-15T13:41:19.149Z</time></trkpt><trkpt lat="45.7984517" lon="8.9616367"><ele>385.0</ele><time>2026-04-15T13:41:21.149Z</time></trkpt><trkpt lat="45.798485" lon="8.961505"><ele>385.0</ele><time>2026-04-15T13:41:23.15Z</time></trkpt><trkpt lat="45.7985" lon="8.96137"><ele>385.0</ele><time>2026-04-15T13:41:25.149Z</time></trkpt><trkpt lat="45.7984933" lon="8.9612267"><ele>385.0</ele><time>2026-04-15T13:41:27.15Z</time></trkpt><trkpt lat="45.7984517" lon="8.9610967"><ele>385.0</ele><time>2026-04-15T13:41:29.15Z</time></trkpt><trkpt lat="45.7984267" lon="8.96098"><ele>385.0</ele><time>2026-04-15T13:41:31.149Z</time></trkpt><trkpt lat="45.7983983" lon="8.9608633"><ele>384.85714285714283</ele><time>2026-04-15T13:41:33.151Z</time></trkpt><trkpt lat="45.7983733" lon="8.9607717"><ele>384.7142857142857</ele><time>2026-04-15T13:41:35.15Z</time></trkpt><trkpt lat="45.79829" lon="8.9607083"><ele>384.57142857142856</ele><time>2026-04-15T13:41:38.15Z</time></trkpt><trkpt lat="45.79822" lon="8.9606867"><ele>384.42857142857144</ele><time>2026-04-15T13:41:40.149Z</time></trkpt><trkpt lat="45.7981467" lon="8.9606783"><ele>384.2857142857143</ele><time>2026-04-15T13:41:42.149Z</time></trkpt><trkpt lat="45.7980833" lon="8.9606767"><ele>384.1428571428571</ele><time>2026-04-15T13:41:44.15Z</time></trkpt><trkpt lat="45.7980167" lon="8.9606733"><ele>384.0</ele><time>2026-04-15T13:41:47.149Z</time></trkpt><trkpt lat="45.797945" lon="8.96068"><ele>383.99999999999994</ele><time>2026-04-15T13:41:51.15Z</time></trkpt><trkpt lat="45.797875" lon="8.96068"><ele>384.0</ele><time>2026-04-15T13:41:54.149Z</time></trkpt><trkpt lat="45.7978017" lon="8.9606783"><ele>384.0</ele><time>2026-04-15T13:41:57.148Z</time></trkpt><trkpt lat="45.7977233" lon="8.9606833"><ele>384.0</ele><time>2026-04-15T13:42:01.15Z</time></trkpt><trkpt lat="45.7976517" lon="8.96069"><ele>384.0</ele><time>2026-04-15T13:42:04.15Z</time></trkpt><trkpt lat="45.7975867" lon="8.960685"><ele>383.99999999999994</ele><time>2026-04-15T13:42:07.15Z</time></trkpt><trkpt lat="45.797515" lon="8.9606917"><ele>384.0</ele><time>2026-04-15T13:42:10.149Z</time></trkpt><trkpt lat="45.7974317" lon="8.9606833"><ele>385.3333333333333</ele><time>2026-04-15T13:42:13.15Z</time></trkpt><trkpt lat="45.7973483" lon="8.9606717"><ele>386.66666666666663</ele><time>2026-04-15T13:42:16.149Z</time></trkpt><trkpt lat="45.797265" lon="8.96069"><ele>388.0</ele><time>2026-04-15T13:42:19.149Z</time></trkpt><trkpt lat="45.7971717" lon="8.960725"><ele>389.3333333333333</ele><time>2026-04-15T13:42:22.149Z</time></trkpt><trkpt lat="45.7970833" lon="8.9607183"><ele>390.66666666666663</ele><time>2026-04-15T13:42:25.149Z</time></trkpt><trkpt lat="45.797" lon="8.96071"><ele>392.0</ele><time>2026-04-15T13:42:28.148Z</time></trkpt><trkpt lat="45.7969233" lon="8.9607"><ele>391.99999999999994</ele><time>2026-04-15T13:42:31.149Z</time></trkpt><trkpt lat="45.7968383" lon="8.960695"><ele>392.0</ele><time>2026-04-15T13:42:34.148Z</time></trkpt><trkpt lat="45.7967467" lon="8.9606917"><ele>392.0</ele><time>2026-04-15T13:42:37.149Z</time></trkpt><trkpt lat="45.796685" lon="8.9607167"><ele>392.0</ele><time>2026-04-15T13:42:39.15Z</time></trkpt><trkpt lat="45.79662" lon="8.9607517"><ele>391.99999999999994</ele><time>2026-04-15T13:42:41.15Z</time></trkpt><trkpt lat="45.7965583" lon="8.96079"><ele>392.0</ele><time>2026-04-15T13:42:43.149Z</time></trkpt><trkpt lat="45.796475" lon="8.96084"><ele>391.85714285714283</ele><time>2026-04-15T13:42:46.15Z</time></trkpt><trkpt lat="45.796425" lon="8.9609017"><ele>391.7142857142857</ele><time>2026-04-15T13:42:48.148Z</time></trkpt><trkpt lat="45.7963683" lon="8.96097"><ele>391.57142857142856</ele><time>2026-04-15T13:42:50.151Z</time></trkpt><trkpt lat="45.796305" lon="8.9610367"><ele>391.42857142857144</ele><time>2026-04-15T13:42:52.15Z</time></trkpt><trkpt lat="45.79624" lon="8.9611117"><ele>391.2857142857143</ele><time>2026-04-15T13:42:54.15Z</time></trkpt><trkpt lat="45.7961867" lon="8.9611817"><ele>391.1428571428571</ele><time>2026-04-15T13:42:56.151Z</time></trkpt><trkpt lat="45.796135" lon="8.9612467"><ele>391.0</ele><time>2026-04-15T13:42:58.151Z</time></trkpt><trkpt lat="45.7960483" lon="8.9612917"><ele>390.71428571428567</ele><time>2026-04-15T13:43:01.151Z</time></trkpt><trkpt lat="45.7959783" lon="8.9612517"><ele>390.42857142857144</ele><time>2026-04-15T13:43:04.149Z</time></trkpt><trkpt lat="45.795915" lon="8.9611633"><ele>390.1428571428571</ele><time>2026-04-15T13:43:07.15Z</time></trkpt><trkpt lat="45.7958783" lon="8.9610867"><ele>389.85714285714283</ele><time>2026-04-15T13:43:09.149Z</time></trkpt><trkpt lat="45.795835" lon="8.9610117"><ele>389.57142857142856</ele><time>2026-04-15T13:43:11.15Z</time></trkpt><trkpt lat="45.795795" lon="8.9609317"><ele>389.2857142857143</ele><time>2026-04-15T13:43:13.15Z</time></trkpt><trkpt lat="45.7957483" lon="8.96086"><ele>389.0</ele><time>2026-04-15T13:43:15.149Z</time></trkpt><trkpt lat="45.795695" lon="8.9607933"><ele>388.99999999999994</ele><time>2026-04-15T13:43:17.15Z</time></trkpt><trkpt lat="45.7956183" lon="8.9607683"><ele>389.0</ele><time>2026-04-15T13:43:19.15Z</time></trkpt><trkpt lat="45.795555" lon="8.9608167"><ele>389.0</ele><time>2026-04-15T13:43:21.15Z</time></trkpt><trkpt lat="45.7954883" lon="8.9608883"><ele>389.0</ele><time>2026-04-15T13:43:23.149Z</time></trkpt><trkpt lat="45.7954233" lon="8.9609617"><ele>388.99999999999994</ele><time>2026-04-15T13:43:25.15Z</time></trkpt><trkpt lat="45.795355" lon="8.9610367"><ele>389.0</ele><time>2026-04-15T13:43:27.149Z</time></trkpt><trkpt lat="45.79529" lon="8.96111"><ele>389.0</ele><time>2026-04-15T13:43:29.15Z</time></trkpt><trkpt lat="45.7952217" lon="8.96116"><ele>389.0</ele><time>2026-04-15T13:43:31.15Z</time></trkpt><trkpt lat="45.7951583" lon="8.9612167"><ele>389.0</ele><time>2026-04-15T13:43:33.148Z</time></trkpt><trkpt lat="45.7951" lon="8.961255"><ele>389.0</ele><time>2026-04-15T13:43:35.149Z</time></trkpt><trkpt lat="45.79503" lon="8.9612717"><ele>389.0</ele><time>2026-04-15T13:43:37.15Z</time></trkpt><trkpt lat="45.7949717" lon="8.9613067"><ele>389.0</ele><time>2026-04-15T13:43:39.15Z</time></trkpt><trkpt lat="45.794905" lon="8.9613917"><ele>389.0</ele><time>2026-04-15T13:43:42.15Z</time></trkpt><trkpt lat="45.79486" lon="8.9614767"><ele>388.8571428571429</ele><time>2026-04-15T13:43:44.149Z</time></trkpt><trkpt lat="45.7948167" lon="8.9615583"><ele>388.71428571428567</ele><time>2026-04-15T13:43:46.149Z</time></trkpt><trkpt lat="45.794765" lon="8.9616267"><ele>388.57142857142856</ele><time>2026-04-15T13:43:48.149Z</time></trkpt><trkpt lat="45.79471" lon="8.9617033"><ele>388.42857142857144</ele><time>2026-04-15T13:43:50.149Z</time></trkpt><trkpt lat="45.7946583" lon="8.9617767"><ele>388.28571428571433</ele><time>2026-04-15T13:43:52.15Z</time></trkpt><trkpt lat="45.7946017" lon="8.9618333"><ele>388.1428571428571</ele><time>2026-04-15T13:43:54.149Z</time></trkpt><trkpt lat="45.7945383" lon="8.961895"><ele>388.0</ele><time>2026-04-15T13:43:56.15Z</time></trkpt><trkpt lat="45.79448" lon="8.96195"><ele>387.83333333333337</ele><time>2026-04-15T13:43:58.148Z</time></trkpt><trkpt lat="45.7944267" lon="8.9620017"><ele>387.6666666666667</ele><time>2026-04-15T13:44:00.148Z</time></trkpt><trkpt lat="45.794365" lon="8.9620733"><ele>387.5</ele><time>2026-04-15T13:44:02.15Z</time></trkpt><trkpt lat="45.7943017" lon="8.96213"><ele>387.33333333333337</ele><time>2026-04-15T13:44:04.15Z</time></trkpt><trkpt lat="45.794235" lon="8.9621933"><ele>387.1666666666667</ele><time>2026-04-15T13:44:06.151Z</time></trkpt><trkpt lat="45.794165" lon="8.96226"><ele>387.0</ele><time>2026-04-15T13:44:08.151Z</time></trkpt><trkpt lat="45.7940983" lon="8.96234"><ele>387.0</ele><time>2026-04-15T13:44:10.15Z</time></trkpt><trkpt lat="45.7940283" lon="8.96242"><ele>387.0</ele><time>2026-04-15T13:44:12.15Z</time></trkpt><trkpt lat="45.7939633" lon="8.9624883"><ele>387.0</ele><time>2026-04-15T13:44:14.151Z</time></trkpt><trkpt lat="45.7939017" lon="8.9625717"><ele>387.0</ele><time>2026-04-15T13:44:16.15Z</time></trkpt><trkpt lat="45.7938317" lon="8.962655"><ele>387.0</ele><time>2026-04-15T13:44:18.15Z</time></trkpt><trkpt lat="45.7937633" lon="8.9627383"><ele>387.0</ele><time>2026-04-15T13:44:20.151Z</time></trkpt><trkpt lat="45.793695" lon="8.96284"><ele>386.8333333333333</ele><time>2026-04-15T13:44:22.15Z</time></trkpt><trkpt lat="45.79363" lon="8.9629383"><ele>386.66666666666663</ele><time>2026-04-15T13:44:24.151Z</time></trkpt><trkpt lat="45.7935667" lon="8.96303"><ele>386.5</ele><time>2026-04-15T13:44:26.149Z</time></trkpt><trkpt lat="45.7935067" lon="8.9631217"><ele>386.3333333333333</ele><time>2026-04-15T13:44:28.149Z</time></trkpt><trkpt lat="45.7934467" lon="8.96321"><ele>386.16666666666663</ele><time>2026-04-15T13:44:30.149Z</time></trkpt><trkpt lat="45.7933833" lon="8.9632933"><ele>386.0</ele><time>2026-04-15T13:44:32.149Z</time></trkpt><trkpt lat="45.79332" lon="8.963385"><ele>385.8333333333333</ele><time>2026-04-15T13:44:34.149Z</time></trkpt><trkpt lat="45.7932583" lon="8.9634733"><ele>385.66666666666663</ele><time>2026-04-15T13:44:36.15Z</time></trkpt><trkpt lat="45.7931983" lon="8.9635617"><ele>385.5</ele><time>2026-04-15T13:44:38.151Z</time></trkpt><trkpt lat="45.7931317" lon="8.9636383"><ele>385.33333333333337</ele><time>2026-04-15T13:44:40.15Z</time></trkpt><trkpt lat="45.79305" lon="8.9636717"><ele>385.1666666666667</ele><time>2026-04-15T13:44:42.15Z</time></trkpt><trkpt lat="45.7929633" lon="8.9636533"><ele>385.0</ele><time>2026-04-15T13:44:44.151Z</time></trkpt><trkpt lat="45.7928783" lon="8.9636133"><ele>385.00000000000006</ele><time>2026-04-15T13:44:46.15Z</time></trkpt><trkpt lat="45.7927967" lon="8.9635633"><ele>385.0</ele><time>2026-04-15T13:44:48.15Z</time></trkpt><trkpt lat="45.7927217" lon="8.9635167"><ele>385.0</ele><time>2026-04-15T13:44:50.15Z</time></trkpt><trkpt lat="45.79265" lon="8.9634733"><ele>385.0</ele><time>2026-04-15T13:44:52.15Z</time></trkpt><trkpt lat="45.7925767" lon="8.9634333"><ele>385.00000000000006</ele><time>2026-04-15T13:44:54.15Z</time></trkpt><trkpt lat="45.792505" lon="8.9634133"><ele>385.0</ele><time>2026-04-15T13:44:56.151Z</time></trkpt><trkpt lat="45.7924333" lon="8.9635"><ele>385.6666666666667</ele><time>2026-04-15T13:44:59.153Z</time></trkpt><trkpt lat="45.7924067" lon="8.96363"><ele>386.33333333333337</ele><time>2026-04-15T13:45:01.151Z</time></trkpt><trkpt lat="45.7923917" lon="8.963735"><ele>387.0</ele><time>2026-04-15T13:45:03.15Z</time></trkpt><trkpt lat="45.79237" lon="8.9638333"><ele>387.66666666666663</ele><time>2026-04-15T13:45:05.15Z</time></trkpt><trkpt lat="45.79234" lon="8.9639533"><ele>388.3333333333333</ele><time>2026-04-15T13:45:07.15Z</time></trkpt><trkpt lat="45.7923067" lon="8.9640733"><ele>389.0</ele><time>2026-04-15T13:45:09.15Z</time></trkpt><trkpt lat="45.79227" lon="8.9641783"><ele>388.3333333333333</ele><time>2026-04-15T13:45:11.15Z</time></trkpt><trkpt lat="45.7922333" lon="8.9642867"><ele>387.66666666666663</ele><time>2026-04-15T13:45:13.15Z</time></trkpt><trkpt lat="45.7921983" lon="8.9643833"><ele>387.0</ele><time>2026-04-15T13:45:15.149Z</time></trkpt><trkpt lat="45.79216" lon="8.9644917"><ele>386.33333333333337</ele><time>2026-04-15T13:45:17.15Z</time></trkpt><trkpt lat="45.7921233" lon="8.96462"><ele>385.6666666666667</ele><time>2026-04-15T13:45:19.154Z</time></trkpt><trkpt lat="45.79209" lon="8.9647217"><ele>385.0</ele><time>2026-04-15T13:45:21.15Z</time></trkpt><trkpt lat="45.79205" lon="8.9648167"><ele>385.0</ele><time>2026-04-15T13:45:23.156Z</time></trkpt><trkpt lat="45.7920233" lon="8.9649117"><ele>385.0</ele><time>2026-04-15T13:45:25.15Z</time></trkpt><trkpt lat="45.7919683" lon="8.9650533"><ele>385.0</ele><time>2026-04-15T13:45:28.151Z</time></trkpt><trkpt lat="45.7919217" lon="8.9651583"><ele>385.0</ele><time>2026-04-15T13:45:30.15Z</time></trkpt><trkpt lat="45.79187" lon="8.96527"><ele>385.0</ele><time>2026-04-15T13:45:32.149Z</time></trkpt><trkpt lat="45.7918033" lon="8.9653967"><ele>385.6</ele><time>2026-04-15T13:45:34.148Z</time></trkpt><trkpt lat="45.7917417" lon="8.9655433"><ele>386.2</ele><time>2026-04-15T13:45:36.15Z</time></trkpt><trkpt lat="45.791695" lon="8.96565"><ele>386.79999999999995</ele><time>2026-04-15T13:45:38.15Z</time></trkpt><trkpt lat="45.7916433" lon="8.9657867"><ele>387.4</ele><time>2026-04-15T13:45:40.149Z</time></trkpt><trkpt lat="45.791595" lon="8.9659167"><ele>388.0</ele><time>2026-04-15T13:45:42.15Z</time></trkpt><trkpt lat="45.7915517" lon="8.9660367"><ele>388.0</ele><time>2026-04-15T13:45:44.152Z</time></trkpt><trkpt lat="45.7915067" lon="8.9661517"><ele>388.0</ele><time>2026-04-15T13:45:46.15Z</time></trkpt><trkpt lat="45.79147" lon="8.9662717"><ele>388.0</ele><time>2026-04-15T13:45:48.15Z</time></trkpt><trkpt lat="45.7914133" lon="8.9664117"><ele>388.0</ele><time>2026-04-15T13:45:50.15Z</time></trkpt><trkpt lat="45.7913667" lon="8.9665467"><ele>388.0</ele><time>2026-04-15T13:45:52.15Z</time></trkpt><trkpt lat="45.791325" lon="8.9666683"><ele>387.79999999999995</ele><time>2026-04-15T13:45:54.151Z</time></trkpt><trkpt lat="45.791275" lon="8.9667917"><ele>387.6</ele><time>2026-04-15T13:45:56.151Z</time></trkpt><trkpt lat="45.7912133" lon="8.9668883"><ele>387.4</ele><time>2026-04-15T13:45:58.15Z</time></trkpt><trkpt lat="45.791155" lon="8.9670317"><ele>387.20000000000005</ele><time>2026-04-15T13:46:00.152Z</time></trkpt><trkpt lat="45.7910983" lon="8.96716"><ele>387.0</ele><time>2026-04-15T13:46:02.151Z</time></trkpt><trkpt lat="45.791045" lon="8.9672767"><ele>387.8</ele><time>2026-04-15T13:46:04.153Z</time></trkpt><trkpt lat="45.7909967" lon="8.9673833"><ele>388.6</ele><time>2026-04-15T13:46:06.151Z</time></trkpt><trkpt lat="45.7909533" lon="8.967535"><ele>389.40000000000003</ele><time>2026-04-15T13:46:08.151Z</time></trkpt><trkpt lat="45.7909083" lon="8.9676717"><ele>390.20000000000005</ele><time>2026-04-15T13:46:10.148Z</time></trkpt><trkpt lat="45.7908683" lon="8.9677933"><ele>391.0</ele><time>2026-04-15T13:46:12.149Z</time></trkpt><trkpt lat="45.7908317" lon="8.9679167"><ele>391.0</ele><time>2026-04-15T13:46:14.15Z</time></trkpt><trkpt lat="45.790785" lon="8.9680433"><ele>391.0</ele><time>2026-04-15T13:46:16.149Z</time></trkpt><trkpt lat="45.790745" lon="8.9681767"><ele>391.0</ele><time>2026-04-15T13:46:18.152Z</time></trkpt><trkpt lat="45.7907283" lon="8.9683167"><ele>391.0</ele><time>2026-04-15T13:46:20.15Z</time></trkpt><trkpt lat="45.79071" lon="8.9684583"><ele>391.0</ele><time>2026-04-15T13:46:22.151Z</time></trkpt><trkpt lat="45.7906917" lon="8.9686067"><ele>390.0</ele><time>2026-04-15T13:46:24.152Z</time></trkpt><trkpt lat="45.7906767" lon="8.9687533"><ele>389.0</ele><time>2026-04-15T13:46:26.15Z</time></trkpt><trkpt lat="45.7906583" lon="8.968905"><ele>388.0</ele><time>2026-04-15T13:46:28.151Z</time></trkpt><trkpt lat="45.7906483" lon="8.969055"><ele>387.0</ele><time>2026-04-15T13:46:30.151Z</time></trkpt><trkpt lat="45.7906333" lon="8.96919"><ele>386.0</ele><time>2026-04-15T13:46:32.152Z</time></trkpt><trkpt lat="45.7906133" lon="8.969315"><ele>385.66666666666663</ele><time>2026-04-15T13:46:34.15Z</time></trkpt><trkpt lat="45.7906017" lon="8.9694433"><ele>385.3333333333333</ele><time>2026-04-15T13:46:36.152Z</time></trkpt><trkpt lat="45.790595" lon="8.9695733"><ele>385.0</ele><time>2026-04-15T13:46:38.15Z</time></trkpt><trkpt lat="45.7906033" lon="8.9696983"><ele>384.66666666666663</ele><time>2026-04-15T13:46:40.151Z</time></trkpt><trkpt lat="45.79061" lon="8.969815"><ele>384.3333333333333</ele><time>2026-04-15T13:46:42.149Z</time></trkpt><trkpt lat="45.7906433" lon="8.9699167"><ele>384.0</ele><time>2026-04-15T13:46:44.15Z</time></trkpt><trkpt lat="45.790695" lon="8.9700083"><ele>383.3333333333333</ele><time>2026-04-15T13:46:47.15Z</time></trkpt><trkpt lat="45.7906883" lon="8.9701017"><ele>382.6666666666667</ele><time>2026-04-15T13:46:49.15Z</time></trkpt><trkpt lat="45.7906717" lon="8.9702167"><ele>382.0</ele><time>2026-04-15T13:46:51.15Z</time></trkpt><trkpt lat="45.79067" lon="8.9703367"><ele>381.33333333333337</ele><time>2026-04-15T13:46:53.15Z</time></trkpt><trkpt lat="45.7906683" lon="8.970455"><ele>380.6666666666667</ele><time>2026-04-15T13:46:55.15Z</time></trkpt><trkpt lat="45.7906667" lon="8.97057"><ele>380.0</ele><time>2026-04-15T13:46:57.15Z</time></trkpt><trkpt lat="45.7906683" lon="8.9706767"><ele>380.0</ele><time>2026-04-15T13:46:59.149Z</time></trkpt><trkpt lat="45.79067" lon="8.970775"><ele>380.0</ele><time>2026-04-15T13:47:01.15Z</time></trkpt><trkpt lat="45.7906233" lon="8.97084"><ele>380.0</ele><time>2026-04-15T13:47:03.149Z</time></trkpt><trkpt lat="45.790545" lon="8.970865"><ele>380.0</ele><time>2026-04-15T13:47:06.149Z</time></trkpt><trkpt lat="45.7905183" lon="8.97099"><ele>380.0</ele><time>2026-04-15T13:47:09.15Z</time></trkpt><trkpt lat="45.7905267" lon="8.9710833"><ele>380.0</ele><time>2026-04-15T13:47:11.149Z</time></trkpt><trkpt lat="45.790525" lon="8.9711867"><ele>380.0</ele><time>2026-04-15T13:47:13.15Z</time></trkpt><trkpt lat="45.7905267" lon="8.9712817"><ele>380.0</ele><time>2026-04-15T13:47:15.149Z</time></trkpt><trkpt lat="45.7906267" lon="8.971395"><ele>380.0</ele><time>2026-04-15T13:47:33.15Z</time></trkpt><trkpt lat="45.7906617" lon="8.9715217"><ele>380.0</ele><time>2026-04-15T13:47:37.15Z</time></trkpt><trkpt lat="45.7906633" lon="8.9716467"><ele>380.0</ele><time>2026-04-15T13:47:39.15Z</time></trkpt><trkpt lat="45.790665" lon="8.9717833"><ele>380.0</ele><time>2026-04-15T13:47:41.15Z</time></trkpt><trkpt lat="45.7906667" lon="8.97193"><ele>380.2</ele><time>2026-04-15T13:47:43.151Z</time></trkpt><trkpt lat="45.790655" lon="8.9720933"><ele>380.4</ele><time>2026-04-15T13:47:45.15Z</time></trkpt><trkpt lat="45.7906383" lon="8.9722333"><ele>380.6</ele><time>2026-04-15T13:47:47.15Z</time></trkpt><trkpt lat="45.7906267" lon="8.972365"><ele>380.8</ele><time>2026-04-15T13:47:49.15Z</time></trkpt><trkpt lat="45.7906167" lon="8.9724983"><ele>381.0</ele><time>2026-04-15T13:47:51.151Z</time></trkpt><trkpt lat="45.7906267" lon="8.97265"><ele>381.4</ele><time>2026-04-15T13:47:53.151Z</time></trkpt><trkpt lat="45.790635" lon="8.972795"><ele>381.8</ele><time>2026-04-15T13:47:55.15Z</time></trkpt><trkpt lat="45.79064" lon="8.9729367"><ele>382.2</ele><time>2026-04-15T13:47:57.151Z</time></trkpt><trkpt lat="45.790655" lon="8.9730783"><ele>382.59999999999997</ele><time>2026-04-15T13:47:59.15Z</time></trkpt><trkpt lat="45.7906683" lon="8.9732217"><ele>383.0</ele><time>2026-04-15T13:48:01.151Z</time></trkpt><trkpt lat="45.790695" lon="8.9733783"><ele>383.33333333333337</ele><time>2026-04-15T13:48:03.15Z</time></trkpt><trkpt lat="45.7907317" lon="8.97354"><ele>383.6666666666667</ele><time>2026-04-15T13:48:05.15Z</time></trkpt><trkpt lat="45.7907667" lon="8.97371"><ele>384.0</ele><time>2026-04-15T13:48:07.15Z</time></trkpt><trkpt lat="45.790785" lon="8.9737983"><ele>384.33333333333337</ele><time>2026-04-15T13:48:08.15Z</time></trkpt><trkpt lat="45.7908017" lon="8.97389"><ele>384.6666666666667</ele><time>2026-04-15T13:48:09.15Z</time></trkpt><trkpt lat="45.7908033" lon="8.9739867"><ele>385.0</ele><time>2026-04-15T13:48:10.15Z</time></trkpt><trkpt lat="45.7908083" lon="8.97408"><ele>385.0</ele><time>2026-04-15T13:48:11.15Z</time></trkpt><trkpt lat="45.790815" lon="8.97417"><ele>385.0</ele><time>2026-04-15T13:48:12.15Z</time></trkpt><trkpt lat="45.7908233" lon="8.97426"><ele>385.0</ele><time>2026-04-15T13:48:13.151Z</time></trkpt><trkpt lat="45.7908233" lon="8.974355"><ele>385.0</ele><time>2026-04-15T13:48:14.151Z</time></trkpt><trkpt lat="45.790825" lon="8.9744483"><ele>385.0</ele><time>2026-04-15T13:48:15.149Z</time></trkpt><trkpt lat="45.790825" lon="8.9745467"><ele>385.0</ele><time>2026-04-15T13:48:16.151Z</time></trkpt><trkpt lat="45.7908217" lon="8.9746467"><ele>385.0</ele><time>2026-04-15T13:48:17.15Z</time></trkpt><trkpt lat="45.7908133" lon="8.9747467"><ele>383.7142857142857</ele><time>2026-04-15T13:48:18.151Z</time></trkpt><trkpt lat="45.7908083" lon="8.974845"><ele>382.42857142857144</ele><time>2026-04-15T13:48:19.151Z</time></trkpt><trkpt lat="45.7908067" lon="8.974945"><ele>381.1428571428571</ele><time>2026-04-15T13:48:20.15Z</time></trkpt><trkpt lat="45.7908" lon="8.9750367"><ele>379.8571428571429</ele><time>2026-04-15T13:48:21.151Z</time></trkpt><trkpt lat="45.7907933" lon="8.9751417"><ele>378.57142857142856</ele><time>2026-04-15T13:48:22.15Z</time></trkpt><trkpt lat="45.7907867" lon="8.97525"><ele>377.2857142857143</ele><time>2026-04-15T13:48:23.15Z</time></trkpt><trkpt lat="45.7907833" lon="8.9753633"><ele>376.0</ele><time>2026-04-15T13:48:24.151Z</time></trkpt><trkpt lat="45.7907817" lon="8.97547"><ele>375.2857142857143</ele><time>2026-04-15T13:48:25.149Z</time></trkpt><trkpt lat="45.79078" lon="8.9755783"><ele>374.57142857142856</ele><time>2026-04-15T13:48:26.151Z</time></trkpt><trkpt lat="45.7907783" lon="8.9756883"><ele>373.8571428571429</ele><time>2026-04-15T13:48:27.149Z</time></trkpt><trkpt lat="45.79078" lon="8.975795"><ele>373.1428571428571</ele><time>2026-04-15T13:48:28.15Z</time></trkpt><trkpt lat="45.79078" lon="8.9758983"><ele>372.42857142857144</ele><time>2026-04-15T13:48:29.15Z</time></trkpt><trkpt lat="45.790775" lon="8.976005"><ele>371.7142857142857</ele><time>2026-04-15T13:48:30.151Z</time></trkpt><trkpt lat="45.79077" lon="8.9761133"><ele>371.0</ele><time>2026-04-15T13:48:31.151Z</time></trkpt><trkpt lat="45.7907583" lon="8.9762183"><ele>370.6666666666667</ele><time>2026-04-15T13:48:32.15Z</time></trkpt><trkpt lat="45.7907483" lon="8.976325"><ele>370.33333333333337</ele><time>2026-04-15T13:48:33.151Z</time></trkpt><trkpt lat="45.79073" lon="8.9764317"><ele>370.0</ele><time>2026-04-15T13:48:34.15Z</time></trkpt><trkpt lat="45.7907167" lon="8.9765383"><ele>369.6666666666667</ele><time>2026-04-15T13:48:35.15Z</time></trkpt><trkpt lat="45.7906967" lon="8.97664"><ele>369.3333333333333</ele><time>2026-04-15T13:48:36.15Z</time></trkpt><trkpt lat="45.7906717" lon="8.97674"><ele>369.0</ele><time>2026-04-15T13:48:37.15Z</time></trkpt><trkpt lat="45.790645" lon="8.976845"><ele>369.0</ele><time>2026-04-15T13:48:38.15Z</time></trkpt><trkpt lat="45.7906217" lon="8.9769483"><ele>369.0</ele><time>2026-04-15T13:48:39.15Z</time></trkpt><trkpt lat="45.7905983" lon="8.9770517"><ele>369.0</ele><time>2026-04-15T13:48:40.15Z</time></trkpt><trkpt lat="45.7905717" lon="8.9771517"><ele>369.0</ele><time>2026-04-15T13:48:41.151Z</time></trkpt><trkpt lat="45.7905417" lon="8.97725"><ele>369.0</ele><time>2026-04-15T13:48:42.15Z</time></trkpt><trkpt lat="45.790515" lon="8.9773467"><ele>369.0</ele><time>2026-04-15T13:48:43.149Z</time></trkpt><trkpt lat="45.7904883" lon="8.9774417"><ele>369.0</ele><time>2026-04-15T13:48:44.151Z</time></trkpt><trkpt lat="45.7904633" lon="8.9775383"><ele>369.0</ele><time>2026-04-15T13:48:45.15Z</time></trkpt><trkpt lat="45.7904417" lon="8.9776383"><ele>369.0</ele><time>2026-04-15T13:48:46.15Z</time></trkpt><trkpt lat="45.79042" lon="8.977735"><ele>369.0</ele><time>2026-04-15T13:48:47.151Z</time></trkpt><trkpt lat="45.790395" lon="8.9778283"><ele>369.0</ele><time>2026-04-15T13:48:48.151Z</time></trkpt><trkpt lat="45.7903717" lon="8.97792"><ele>369.0</ele><time>2026-04-15T13:48:49.15Z</time></trkpt><trkpt lat="45.7903483" lon="8.9780083"><ele>369.0</ele><time>2026-04-15T13:48:50.149Z</time></trkpt><trkpt lat="45.7903033" lon="8.9781383"><ele>369.0</ele><time>2026-04-15T13:48:52.149Z</time></trkpt><trkpt lat="45.7902383" lon="8.9781517"><ele>369.0</ele><time>2026-04-15T13:48:54.15Z</time></trkpt><trkpt lat="45.7901833" lon="8.978065"><ele>369.0</ele><time>2026-04-15T13:48:56.15Z</time></trkpt><trkpt lat="45.7901433" lon="8.97798"><ele>369.0</ele><time>2026-04-15T13:48:58.15Z</time></trkpt><trkpt lat="45.790095" lon="8.9778983"><ele>369.0</ele><time>2026-04-15T13:49:00.15Z</time></trkpt><trkpt lat="45.7900433" lon="8.97781"><ele>369.0</ele><time>2026-04-15T13:49:02.149Z</time></trkpt><trkpt lat="45.7899883" lon="8.9777267"><ele>369.0</ele><time>2026-04-15T13:49:04.15Z</time></trkpt><trkpt lat="45.7899333" lon="8.9776383"><ele>369.6666666666667</ele><time>2026-04-15T13:49:06.15Z</time></trkpt><trkpt lat="45.7898883" lon="8.9775567"><ele>370.3333333333333</ele><time>2026-04-15T13:49:08.151Z</time></trkpt><trkpt lat="45.7898317" lon="8.9774917"><ele>371.0</ele><time>2026-04-15T13:49:10.149Z</time></trkpt><trkpt lat="45.7897683" lon="8.9774567"><ele>371.66666666666663</ele><time>2026-04-15T13:49:12.149Z</time></trkpt><trkpt lat="45.7897" lon="8.9775167"><ele>372.3333333333333</ele><time>2026-04-15T13:49:15.15Z</time></trkpt><trkpt lat="45.78965" lon="8.9776017"><ele>373.0</ele><time>2026-04-15T13:49:17.15Z</time></trkpt><trkpt lat="45.7896033" lon="8.9777217"><ele>373.0</ele><time>2026-04-15T13:49:19.15Z</time></trkpt><trkpt lat="45.78955" lon="8.9778283"><ele>373.0</ele><time>2026-04-15T13:49:21.152Z</time></trkpt><trkpt lat="45.7894967" lon="8.97795"><ele>373.0</ele><time>2026-04-15T13:49:23.15Z</time></trkpt><trkpt lat="45.7894417" lon="8.9780883"><ele>373.0</ele><time>2026-04-15T13:49:25.152Z</time></trkpt><trkpt lat="45.78938" lon="8.9781917"><ele>373.0</ele><time>2026-04-15T13:49:27.15Z</time></trkpt><trkpt lat="45.7893267" lon="8.9783"><ele>372.0</ele><time>2026-04-15T13:49:29.149Z</time></trkpt><trkpt lat="45.789275" lon="8.9783933"><ele>371.0</ele><time>2026-04-15T13:49:31.15Z</time></trkpt><trkpt lat="45.7892367" lon="8.9785067"><ele>370.0</ele><time>2026-04-15T13:49:33.15Z</time></trkpt><trkpt lat="45.7891883" lon="8.978635"><ele>369.0</ele><time>2026-04-15T13:49:35.15Z</time></trkpt><trkpt lat="45.7891317" lon="8.9787617"><ele>368.0</ele><time>2026-04-15T13:49:37.151Z</time></trkpt><trkpt lat="45.7890633" lon="8.978895"><ele>368.0</ele><time>2026-04-15T13:49:39.15Z</time></trkpt><trkpt lat="45.7890117" lon="8.9790183"><ele>368.0</ele><time>2026-04-15T13:49:41.15Z</time></trkpt><trkpt lat="45.788945" lon="8.9791117"><ele>368.0</ele><time>2026-04-15T13:49:43.15Z</time></trkpt><trkpt lat="45.7888833" lon="8.9792517"><ele>368.0</ele><time>2026-04-15T13:49:45.151Z</time></trkpt><trkpt lat="45.788825" lon="8.979345"><ele>368.0</ele><time>2026-04-15T13:49:47.15Z</time></trkpt><trkpt lat="45.7887683" lon="8.9794933"><ele>367.4</ele><time>2026-04-15T13:49:49.151Z</time></trkpt><trkpt lat="45.7887117" lon="8.979625"><ele>366.79999999999995</ele><time>2026-04-15T13:49:51.15Z</time></trkpt><trkpt lat="45.7886483" lon="8.9797367"><ele>366.2</ele><time>2026-04-15T13:49:53.151Z</time></trkpt><trkpt lat="45.7885867" lon="8.979845"><ele>365.6</ele><time>2026-04-15T13:49:55.151Z</time></trkpt><trkpt lat="45.7885183" lon="8.9799733"><ele>365.0</ele><time>2026-04-15T13:49:57.15Z</time></trkpt><trkpt lat="45.7884583" lon="8.9801"><ele>366.6666666666667</ele><time>2026-04-15T13:49:59.15Z</time></trkpt><trkpt lat="45.7883967" lon="8.980225"><ele>368.33333333333337</ele><time>2026-04-15T13:50:01.15Z</time></trkpt><trkpt lat="45.78834" lon="8.9803167"><ele>370.0</ele><time>2026-04-15T13:50:03.15Z</time></trkpt><trkpt lat="45.78829" lon="8.98039"><ele>371.6666666666667</ele><time>2026-04-15T13:50:05.151Z</time></trkpt><trkpt lat="45.788245" lon="8.9804933"><ele>373.3333333333333</ele><time>2026-04-15T13:50:07.151Z</time></trkpt><trkpt lat="45.788215" lon="8.9805783"><ele>375.0</ele><time>2026-04-15T13:50:08.15Z</time></trkpt><trkpt lat="45.788155" lon="8.9807217"><ele>375.0</ele><time>2026-04-15T13:50:10.15Z</time></trkpt><trkpt lat="45.7880867" lon="8.9808333"><ele>375.0</ele><time>2026-04-15T13:50:12.151Z</time></trkpt><trkpt lat="45.7880233" lon="8.9809433"><ele>375.0</ele><time>2026-04-15T13:50:14.151Z</time></trkpt><trkpt lat="45.7879483" lon="8.9811117"><ele>375.0</ele><time>2026-04-15T13:50:16.15Z</time></trkpt><trkpt lat="45.7879017" lon="8.9812333"><ele>375.0</ele><time>2026-04-15T13:50:17.151Z</time></trkpt><trkpt lat="45.7878317" lon="8.9813817"><ele>375.1666666666667</ele><time>2026-04-15T13:50:19.15Z</time></trkpt><trkpt lat="45.7877517" lon="8.9815117"><ele>375.3333333333333</ele><time>2026-04-15T13:50:21.15Z</time></trkpt><trkpt lat="45.7877117" lon="8.9815967"><ele>375.5</ele><time>2026-04-15T13:50:22.15Z</time></trkpt><trkpt lat="45.7876717" lon="8.9816717"><ele>375.66666666666663</ele><time>2026-04-15T13:50:23.151Z</time></trkpt><trkpt lat="45.7876333" lon="8.98175"><ele>375.8333333333333</ele><time>2026-04-15T13:50:24.15Z</time></trkpt><trkpt lat="45.7875517" lon="8.981875"><ele>376.0</ele><time>2026-04-15T13:50:26.151Z</time></trkpt><trkpt lat="45.7874783" lon="8.981975"><ele>376.0</ele><time>2026-04-15T13:50:28.151Z</time></trkpt><trkpt lat="45.78741" lon="8.9820767"><ele>376.0</ele><time>2026-04-15T13:50:30.15Z</time></trkpt><trkpt lat="45.7873317" lon="8.9821767"><ele>376.0</ele><time>2026-04-15T13:50:32.151Z</time></trkpt><trkpt lat="45.7872517" lon="8.9823033"><ele>376.0</ele><time>2026-04-15T13:50:34.151Z</time></trkpt><trkpt lat="45.787205" lon="8.9823717"><ele>376.0</ele><time>2026-04-15T13:50:35.15Z</time></trkpt><trkpt lat="45.7871083" lon="8.9824817"><ele>375.0</ele><time>2026-04-15T13:50:37.15Z</time></trkpt><trkpt lat="45.78701" lon="8.9825783"><ele>374.0</ele><time>2026-04-15T13:50:39.15Z</time></trkpt><trkpt lat="45.7869167" lon="8.9826717"><ele>373.0</ele><time>2026-04-15T13:50:41.15Z</time></trkpt><trkpt lat="45.78686" lon="8.98273"><ele>372.0</ele><time>2026-04-15T13:50:42.15Z</time></trkpt><trkpt lat="45.7867533" lon="8.9828183"><ele>371.0</ele><time>2026-04-15T13:50:44.151Z</time></trkpt><trkpt lat="45.7866433" lon="8.9828917"><ele>369.75</ele><time>2026-04-15T13:50:46.151Z</time></trkpt><trkpt lat="45.786535" lon="8.9829583"><ele>368.5</ele><time>2026-04-15T13:50:48.15Z</time></trkpt><trkpt lat="45.7864233" lon="8.9830117"><ele>367.25</ele><time>2026-04-15T13:50:50.15Z</time></trkpt><trkpt lat="45.78631" lon="8.98307"><ele>366.0</ele><time>2026-04-15T13:50:52.15Z</time></trkpt><trkpt lat="45.7861967" lon="8.98312"><ele>366.0</ele><time>2026-04-15T13:50:54.15Z</time></trkpt><trkpt lat="45.7860817" lon="8.98318"><ele>366.0</ele><time>2026-04-15T13:50:56.151Z</time></trkpt><trkpt lat="45.7859783" lon="8.9832083"><ele>366.0</ele><time>2026-04-15T13:50:58.149Z</time></trkpt><trkpt lat="45.7859183" lon="8.9832417"><ele>366.0</ele><time>2026-04-15T13:50:59.15Z</time></trkpt><trkpt lat="45.7858067" lon="8.983265"><ele>366.0</ele><time>2026-04-15T13:51:01.15Z</time></trkpt><trkpt lat="45.7856967" lon="8.9833017"><ele>366.6</ele><time>2026-04-15T13:51:03.15Z</time></trkpt><trkpt lat="45.7855917" lon="8.9833417"><ele>367.20000000000005</ele><time>2026-04-15T13:51:05.149Z</time></trkpt><trkpt lat="45.7854933" lon="8.98336"><ele>367.79999999999995</ele><time>2026-04-15T13:51:07.151Z</time></trkpt><trkpt lat="45.785395" lon="8.983405"><ele>368.4</ele><time>2026-04-15T13:51:09.151Z</time></trkpt><trkpt lat="45.7852933" lon="8.98345"><ele>369.0</ele><time>2026-04-15T13:51:11.15Z</time></trkpt><trkpt lat="45.7851983" lon="8.9834783"><ele>367.25</ele><time>2026-04-15T13:51:13.151Z</time></trkpt><trkpt lat="45.7850933" lon="8.9835133"><ele>365.5</ele><time>2026-04-15T13:51:15.151Z</time></trkpt><trkpt lat="45.7849867" lon="8.9835517"><ele>363.75</ele><time>2026-04-15T13:51:17.151Z</time></trkpt><trkpt lat="45.7848817" lon="8.9836117"><ele>362.0</ele><time>2026-04-15T13:51:19.152Z</time></trkpt><trkpt lat="45.78477" lon="8.9836717"><ele>362.0</ele><time>2026-04-15T13:51:21.15Z</time></trkpt><trkpt lat="45.7846617" lon="8.9837333"><ele>362.0</ele><time>2026-04-15T13:51:23.151Z</time></trkpt><trkpt lat="45.784555" lon="8.9837883"><ele>362.0</ele><time>2026-04-15T13:51:25.151Z</time></trkpt><trkpt lat="45.7844583" lon="8.9838283"><ele>362.0</ele><time>2026-04-15T13:51:27.151Z</time></trkpt><trkpt lat="45.7843683" lon="8.98388"><ele>362.0</ele><time>2026-04-15T13:51:29.152Z</time></trkpt><trkpt lat="45.784315" lon="8.9839333"><ele>362.20000000000005</ele><time>2026-04-15T13:51:30.151Z</time></trkpt><trkpt lat="45.7842567" lon="8.98398"><ele>362.4</ele><time>2026-04-15T13:51:31.15Z</time></trkpt><trkpt lat="45.7841317" lon="8.9840417"><ele>362.6</ele><time>2026-04-15T13:51:33.15Z</time></trkpt><trkpt lat="45.7840267" lon="8.984085"><ele>362.79999999999995</ele><time>2026-04-15T13:51:35.151Z</time></trkpt><trkpt lat="45.7839167" lon="8.984145"><ele>363.0</ele><time>2026-04-15T13:51:37.15Z</time></trkpt><trkpt lat="45.7838083" lon="8.9841883"><ele>363.0</ele><time>2026-04-15T13:51:39.149Z</time></trkpt><trkpt lat="45.7837017" lon="8.98423"><ele>363.0</ele><time>2026-04-15T13:51:41.15Z</time></trkpt><trkpt lat="45.7836017" lon="8.9842717"><ele>363.0</ele><time>2026-04-15T13:51:43.151Z</time></trkpt><trkpt lat="45.7835033" lon="8.9843083"><ele>363.0</ele><time>2026-04-15T13:51:45.15Z</time></trkpt><trkpt lat="45.7834033" lon="8.9843433"><ele>363.0</ele><time>2026-04-15T13:51:47.151Z</time></trkpt><trkpt lat="45.7833167" lon="8.984365"><ele>365.0</ele><time>2026-04-15T13:51:49.15Z</time></trkpt><trkpt lat="45.7832367" lon="8.9843683"><ele>367.0</ele><time>2026-04-15T13:51:51.151Z</time></trkpt><trkpt lat="45.7831617" lon="8.98439"><ele>369.0</ele><time>2026-04-15T13:51:53.15Z</time></trkpt><trkpt lat="45.78309" lon="8.9843383"><ele>371.0</ele><time>2026-04-15T13:51:56.151Z</time></trkpt><trkpt lat="45.78307" lon="8.9842517"><ele>373.0</ele><time>2026-04-15T13:51:59.151Z</time></trkpt><trkpt lat="45.7830633" lon="8.9841233"><ele>375.0</ele><time>2026-04-15T13:52:02.15Z</time></trkpt><trkpt lat="45.7830483" lon="8.9840083"><ele>375.42857142857144</ele><time>2026-04-15T13:52:06.15Z</time></trkpt><trkpt lat="45.78301" lon="8.9839217"><ele>375.85714285714283</ele><time>2026-04-15T13:52:10.15Z</time></trkpt><trkpt lat="45.7829867" lon="8.98381"><ele>376.2857142857143</ele><time>2026-04-15T13:52:14.154Z</time></trkpt><trkpt lat="45.7829783" lon="8.983715"><ele>376.7142857142857</ele><time>2026-04-15T13:52:18.151Z</time></trkpt><trkpt lat="45.7829283" lon="8.9836467"><ele>377.1428571428571</ele><time>2026-04-15T13:52:23.15Z</time></trkpt><trkpt lat="45.782865" lon="8.98358"><ele>377.57142857142856</ele><time>2026-04-15T13:52:27.15Z</time></trkpt><trkpt lat="45.7828133" lon="8.9835283"><ele>378.0</ele><time>2026-04-15T13:52:30.151Z</time></trkpt><trkpt lat="45.78276" lon="8.9834517"><ele>378.0</ele><time>2026-04-15T13:52:34.15Z</time></trkpt><trkpt lat="45.7827333" lon="8.9833617"><ele>378.0</ele><time>2026-04-15T13:52:38.152Z</time></trkpt><trkpt lat="45.7826967" lon="8.9832733"><ele>378.0</ele><time>2026-04-15T13:52:43.15Z</time></trkpt><trkpt lat="45.7826517" lon="8.9831767"><ele>378.0</ele><time>2026-04-15T13:52:47.149Z</time></trkpt><trkpt lat="45.7826" lon="8.9830983"><ele>378.0</ele><time>2026-04-15T13:52:51.15Z</time></trkpt><trkpt lat="45.782565" lon="8.9829933"><ele>378.0</ele><time>2026-04-15T13:52:54.15Z</time></trkpt><trkpt lat="45.7825183" lon="8.9829067"><ele>379.0</ele><time>2026-04-15T13:52:57.151Z</time></trkpt><trkpt lat="45.7824683" lon="8.9828517"><ele>380.0</ele><time>2026-04-15T13:52:59.149Z</time></trkpt><trkpt lat="45.7824017" lon="8.9828"><ele>381.0</ele><time>2026-04-15T13:53:02.151Z</time></trkpt><trkpt lat="45.7823283" lon="8.9827233"><ele>382.0</ele><time>2026-04-15T13:53:05.151Z</time></trkpt><trkpt lat="45.782265" lon="8.982675"><ele>383.0</ele><time>2026-04-15T13:53:08.15Z</time></trkpt><trkpt lat="45.7821917" lon="8.9826167"><ele>384.0</ele><time>2026-04-15T13:53:11.149Z</time></trkpt><trkpt lat="45.782145" lon="8.9824983"><ele>384.8333333333333</ele><time>2026-04-15T13:53:15.15Z</time></trkpt><trkpt lat="45.7821767" lon="8.9824133"><ele>385.66666666666663</ele><time>2026-04-15T13:53:18.15Z</time></trkpt><trkpt lat="45.7822317" lon="8.9823267"><ele>386.5</ele><time>2026-04-15T13:53:23.15Z</time></trkpt><trkpt lat="45.7822383" lon="8.9822317"><ele>387.3333333333333</ele><time>2026-04-15T13:53:26.15Z</time></trkpt><trkpt lat="45.7822217" lon="8.9821267"><ele>388.16666666666663</ele><time>2026-04-15T13:53:30.15Z</time></trkpt><trkpt lat="45.782185" lon="8.9820033"><ele>389.0</ele><time>2026-04-15T13:53:35.15Z</time></trkpt><trkpt lat="45.7821617" lon="8.9819017"><ele>389.0</ele><time>2026-04-15T13:53:39.15Z</time></trkpt><trkpt lat="45.7821383" lon="8.981805"><ele>389.0</ele><time>2026-04-15T13:53:43.15Z</time></trkpt><trkpt lat="45.78211" lon="8.9817233"><ele>389.0</ele><time>2026-04-15T13:53:53.152Z</time></trkpt><trkpt lat="45.7820717" lon="8.9816317"><ele>389.0</ele><time>2026-04-15T13:53:54.15Z</time></trkpt><trkpt lat="45.7820083" lon="8.9815783"><ele>389.0</ele><time>2026-04-15T13:53:58.149Z</time></trkpt><trkpt lat="45.7819533" lon="8.9815033"><ele>389.0</ele><time>2026-04-15T13:54:03.149Z</time></trkpt><trkpt lat="45.7818983" lon="8.9814567"><ele>389.0</ele><time>2026-04-15T13:54:07.15Z</time></trkpt><trkpt lat="45.7818283" lon="8.981395"><ele>390.8333333333333</ele><time>2026-04-15T13:54:11.152Z</time></trkpt><trkpt lat="45.7817583" lon="8.9813333"><ele>392.66666666666663</ele><time>2026-04-15T13:54:15.15Z</time></trkpt><trkpt lat="45.7817017" lon="8.98129"><ele>394.5</ele><time>2026-04-15T13:54:18.15Z</time></trkpt><trkpt lat="45.7816183" lon="8.981235"><ele>396.33333333333337</ele><time>2026-04-15T13:54:22.15Z</time></trkpt><trkpt lat="45.7815483" lon="8.98119"><ele>398.1666666666667</ele><time>2026-04-15T13:54:26.151Z</time></trkpt><trkpt lat="45.7814833" lon="8.9811767"><ele>400.0</ele><time>2026-04-15T13:54:29.148Z</time></trkpt><trkpt lat="45.78142" lon="8.9811283"><ele>400.00000000000006</ele><time>2026-04-15T13:54:32.151Z</time></trkpt><trkpt lat="45.7813433" lon="8.98109"><ele>400.0</ele><time>2026-04-15T13:54:35.15Z</time></trkpt><trkpt lat="45.78127" lon="8.9810717"><ele>400.0</ele><time>2026-04-15T13:54:37.15Z</time></trkpt><trkpt lat="45.7811933" lon="8.9810367"><ele>400.0</ele><time>2026-04-15T13:54:40.149Z</time></trkpt><trkpt lat="45.7811083" lon="8.9810233"><ele>400.00000000000006</ele><time>2026-04-15T13:54:43.15Z</time></trkpt><trkpt lat="45.78101" lon="8.9809967"><ele>400.0</ele><time>2026-04-15T13:54:46.149Z</time></trkpt><trkpt lat="45.7809417" lon="8.9809683"><ele>400.42857142857144</ele><time>2026-04-15T13:54:48.15Z</time></trkpt><trkpt lat="45.7808683" lon="8.98094"><ele>400.8571428571429</ele><time>2026-04-15T13:54:51.151Z</time></trkpt><trkpt lat="45.7807967" lon="8.9809233"><ele>401.28571428571433</ele><time>2026-04-15T13:54:54.151Z</time></trkpt><trkpt lat="45.780725" lon="8.9809083"><ele>401.7142857142857</ele><time>2026-04-15T13:54:57.149Z</time></trkpt><trkpt lat="45.7806567" lon="8.9808783"><ele>402.1428571428571</ele><time>2026-04-15T13:55:00.151Z</time></trkpt><trkpt lat="45.780595" lon="8.98081"><ele>402.5714285714286</ele><time>2026-04-15T13:55:03.15Z</time></trkpt><trkpt lat="45.7806183" lon="8.9807217"><ele>403.0</ele><time>2026-04-15T13:55:07.15Z</time></trkpt><trkpt lat="45.780655" lon="8.9806217"><ele>403.0</ele><time>2026-04-15T13:55:11.15Z</time></trkpt><trkpt lat="45.7806717" lon="8.9805133"><ele>403.0</ele><time>2026-04-15T13:55:15.15Z</time></trkpt><trkpt lat="45.7806683" lon="8.980415"><ele>403.0</ele><time>2026-04-15T13:55:18.15Z</time></trkpt><trkpt lat="45.7806267" lon="8.980335"><ele>403.0</ele><time>2026-04-15T13:55:22.15Z</time></trkpt><trkpt lat="45.78057" lon="8.9803983"><ele>403.0</ele><time>2026-04-15T13:55:26.152Z</time></trkpt><trkpt lat="45.7805217" lon="8.9804617"><ele>403.0</ele><time>2026-04-15T13:55:29.15Z</time></trkpt><trkpt lat="45.7804467" lon="8.9804983"><ele>403.0</ele><time>2026-04-15T13:55:32.149Z</time></trkpt><trkpt lat="45.78038" lon="8.980515"><ele>403.00000000000006</ele><time>2026-04-15T13:55:35.149Z</time></trkpt><trkpt lat="45.7803033" lon="8.9805033"><ele>403.0</ele><time>2026-04-15T13:55:39.149Z</time></trkpt><trkpt lat="45.7802283" lon="8.9804833"><ele>403.0</ele><time>2026-04-15T13:55:43.15Z</time></trkpt><trkpt lat="45.7801567" lon="8.9804417"><ele>403.0</ele><time>2026-04-15T13:55:46.149Z</time></trkpt><trkpt lat="45.7800783" lon="8.9804083"><ele>403.00000000000006</ele><time>2026-04-15T13:55:49.152Z</time></trkpt><trkpt lat="45.78" lon="8.9803667"><ele>403.0</ele><time>2026-04-15T13:55:52.15Z</time></trkpt><trkpt lat="45.7799283" lon="8.9802767"><ele>403.6666666666667</ele><time>2026-04-15T13:55:55.15Z</time></trkpt><trkpt lat="45.7798433" lon="8.9802433"><ele>404.33333333333337</ele><time>2026-04-15T13:55:58.15Z</time></trkpt><trkpt lat="45.7798" lon="8.98031"><ele>405.0</ele><time>2026-04-15T13:56:01.15Z</time></trkpt><trkpt lat="45.7797417" lon="8.98041"><ele>405.66666666666663</ele><time>2026-04-15T13:56:04.148Z</time></trkpt><trkpt lat="45.7796933" lon="8.98048"><ele>406.3333333333333</ele><time>2026-04-15T13:56:06.151Z</time></trkpt><trkpt lat="45.7796433" lon="8.98054"><ele>407.0</ele><time>2026-04-15T13:56:08.15Z</time></trkpt><trkpt lat="45.7796" lon="8.9806283"><ele>406.99999999999994</ele><time>2026-04-15T13:56:10.15Z</time></trkpt><trkpt lat="45.7795517" lon="8.9807217"><ele>407.0</ele><time>2026-04-15T13:56:12.15Z</time></trkpt><trkpt lat="45.7795" lon="8.980815"><ele>407.0</ele><time>2026-04-15T13:56:14.15Z</time></trkpt><trkpt lat="45.7794433" lon="8.9809133"><ele>407.0</ele><time>2026-04-15T13:56:16.15Z</time></trkpt><trkpt lat="45.7793967" lon="8.9810067"><ele>406.99999999999994</ele><time>2026-04-15T13:56:18.148Z</time></trkpt><trkpt lat="45.7793517" lon="8.9811033"><ele>407.0</ele><time>2026-04-15T13:56:20.151Z</time></trkpt><trkpt lat="45.7792983" lon="8.98119"><ele>405.8333333333333</ele><time>2026-04-15T13:56:22.15Z</time></trkpt><trkpt lat="45.7792317" lon="8.9812583"><ele>404.66666666666663</ele><time>2026-04-15T13:56:24.15Z</time></trkpt><trkpt lat="45.7791533" lon="8.981315"><ele>403.5</ele><time>2026-04-15T13:56:26.152Z</time></trkpt><trkpt lat="45.7790667" lon="8.98134"><ele>402.33333333333337</ele><time>2026-04-15T13:56:28.149Z</time></trkpt><trkpt lat="45.778975" lon="8.9813933"><ele>401.1666666666667</ele><time>2026-04-15T13:56:30.151Z</time></trkpt><trkpt lat="45.7788967" lon="8.9814267"><ele>400.0</ele><time>2026-04-15T13:56:32.15Z</time></trkpt><trkpt lat="45.7788383" lon="8.981465"><ele>400.00000000000006</ele><time>2026-04-15T13:56:34.15Z</time></trkpt><trkpt lat="45.7787533" lon="8.9814817"><ele>400.0</ele><time>2026-04-15T13:56:37.15Z</time></trkpt><trkpt lat="45.7786767" lon="8.981455"><ele>400.0</ele><time>2026-04-15T13:56:40.149Z</time></trkpt><trkpt lat="45.7786083" lon="8.981415"><ele>400.0</ele><time>2026-04-15T13:56:43.151Z</time></trkpt><trkpt lat="45.7785317" lon="8.98142"><ele>400.00000000000006</ele><time>2026-04-15T13:56:46.151Z</time></trkpt><trkpt lat="45.7784767" lon="8.981365"><ele>400.0</ele><time>2026-04-15T13:56:49.149Z</time></trkpt><trkpt lat="45.7784017" lon="8.981325"><ele>400.00000000000006</ele><time>2026-04-15T13:56:53.153Z</time></trkpt><trkpt lat="45.7783317" lon="8.9812617"><ele>400.0</ele><time>2026-04-15T13:56:58.15Z</time></trkpt><trkpt lat="45.7782683" lon="8.9812433"><ele>400.0</ele><time>2026-04-15T13:57:01.15Z</time></trkpt><trkpt lat="45.778195" lon="8.9812617"><ele>400.0</ele><time>2026-04-15T13:57:06.15Z</time></trkpt><trkpt lat="45.778145" lon="8.98118"><ele>400.00000000000006</ele><time>2026-04-15T13:57:10.15Z</time></trkpt><trkpt lat="45.77815" lon="8.9810767"><ele>400.0</ele><time>2026-04-15T13:57:14.15Z</time></trkpt><trkpt lat="45.7781467" lon="8.9809583"><ele>400.00000000000006</ele><time>2026-04-15T13:57:18.151Z</time></trkpt><trkpt lat="45.77815" lon="8.9808583"><ele>400.0</ele><time>2026-04-15T13:57:21.15Z</time></trkpt><trkpt lat="45.778165" lon="8.9807483"><ele>400.0</ele><time>2026-04-15T13:57:24.15Z</time></trkpt><trkpt lat="45.7781883" lon="8.980645"><ele>400.0</ele><time>2026-04-15T13:57:27.149Z</time></trkpt><trkpt lat="45.7782333" lon="8.9805683"><ele>400.0</ele><time>2026-04-15T13:57:30.15Z</time></trkpt><trkpt lat="45.77828" lon="8.9804867"><ele>400.00000000000006</ele><time>2026-04-15T13:57:33.15Z</time></trkpt><trkpt lat="45.778325" lon="8.9803883"><ele>400.0</ele><time>2026-04-15T13:57:36.149Z</time></trkpt><trkpt lat="45.778365" lon="8.9802817"><ele>400.50000000000006</ele><time>2026-04-15T13:57:39.15Z</time></trkpt><trkpt lat="45.778395" lon="8.9801733"><ele>401.0</ele><time>2026-04-15T13:57:42.151Z</time></trkpt><trkpt lat="45.77843" lon="8.9800683"><ele>401.5</ele><time>2026-04-15T13:57:45.15Z</time></trkpt><trkpt lat="45.7784683" lon="8.9799733"><ele>402.0</ele><time>2026-04-15T13:57:48.15Z</time></trkpt><trkpt lat="45.7785017" lon="8.9798867"><ele>402.50000000000006</ele><time>2026-04-15T13:57:51.153Z</time></trkpt><trkpt lat="45.7785583" lon="8.979805"><ele>403.0</ele><time>2026-04-15T13:57:55.149Z</time></trkpt><trkpt lat="45.7786033" lon="8.979725"><ele>403.5714285714286</ele><time>2026-04-15T13:57:58.148Z</time></trkpt><trkpt lat="45.7786567" lon="8.9796367"><ele>404.1428571428571</ele><time>2026-04-15T13:58:02.15Z</time></trkpt><trkpt lat="45.7787033" lon="8.979555"><ele>404.7142857142857</ele><time>2026-04-15T13:58:05.148Z</time></trkpt><trkpt lat="45.7787433" lon="8.9794833"><ele>405.28571428571433</ele><time>2026-04-15T13:58:08.15Z</time></trkpt><trkpt lat="45.778805" lon="8.9794117"><ele>405.8571428571429</ele><time>2026-04-15T13:58:12.15Z</time></trkpt><trkpt lat="45.7788667" lon="8.979335"><ele>406.42857142857144</ele><time>2026-04-15T13:58:16.149Z</time></trkpt><trkpt lat="45.7789167" lon="8.97928"><ele>407.0</ele><time>2026-04-15T13:58:19.151Z</time></trkpt><trkpt lat="45.77895" lon="8.9791883"><ele>407.8333333333333</ele><time>2026-04-15T13:58:22.15Z</time></trkpt><trkpt lat="45.778975" lon="8.9790967"><ele>408.66666666666663</ele><time>2026-04-15T13:58:25.149Z</time></trkpt><trkpt lat="45.7789983" lon="8.9789917"><ele>409.5</ele><time>2026-04-15T13:58:28.15Z</time></trkpt><trkpt lat="45.7790333" lon="8.9788833"><ele>410.33333333333337</ele><time>2026-04-15T13:58:32.15Z</time></trkpt><trkpt lat="45.7790817" lon="8.9787817"><ele>411.1666666666667</ele><time>2026-04-15T13:58:36.149Z</time></trkpt><trkpt lat="45.77912" lon="8.9786867"><ele>412.0</ele><time>2026-04-15T13:58:39.149Z</time></trkpt><trkpt lat="45.7791517" lon="8.978565"><ele>412.00000000000006</ele><time>2026-04-15T13:58:42.15Z</time></trkpt><trkpt lat="45.7791767" lon="8.9784617"><ele>412.0</ele><time>2026-04-15T13:58:44.15Z</time></trkpt><trkpt lat="45.779185" lon="8.9783483"><ele>412.0</ele><time>2026-04-15T13:58:46.15Z</time></trkpt><trkpt lat="45.7791583" lon="8.9782367"><ele>412.0</ele><time>2026-04-15T13:58:48.151Z</time></trkpt><trkpt lat="45.7791317" lon="8.9781133"><ele>412.00000000000006</ele><time>2026-04-15T13:58:50.151Z</time></trkpt><trkpt lat="45.7791433" lon="8.9779867"><ele>412.0</ele><time>2026-04-15T13:58:52.151Z</time></trkpt><trkpt lat="45.7792067" lon="8.9778817"><ele>411.8</ele><time>2026-04-15T13:58:54.149Z</time></trkpt><trkpt lat="45.7792933" lon="8.977795"><ele>411.6</ele><time>2026-04-15T13:58:56.151Z</time></trkpt><trkpt lat="45.7793783" lon="8.9777233"><ele>411.40000000000003</ele><time>2026-04-15T13:58:58.149Z</time></trkpt><trkpt lat="45.77946" lon="8.9776567"><ele>411.20000000000005</ele><time>2026-04-15T13:59:00.15Z</time></trkpt><trkpt lat="45.7795283" lon="8.9775783"><ele>411.0</ele><time>2026-04-15T13:59:02.15Z</time></trkpt><trkpt lat="45.779595" lon="8.9774917"><ele>410.0</ele><time>2026-04-15T13:59:04.151Z</time></trkpt><trkpt lat="45.7796667" lon="8.9773817"><ele>409.0</ele><time>2026-04-15T13:59:06.149Z</time></trkpt><trkpt lat="45.7797367" lon="8.9772633"><ele>408.0</ele><time>2026-04-15T13:59:08.149Z</time></trkpt><trkpt lat="45.7798117" lon="8.9771533"><ele>407.0</ele><time>2026-04-15T13:59:10.148Z</time></trkpt><trkpt lat="45.7798683" lon="8.9770317"><ele>406.0</ele><time>2026-04-15T13:59:12.15Z</time></trkpt><trkpt lat="45.7799083" lon="8.9768983"><ele>406.0</ele><time>2026-04-15T13:59:14.149Z</time></trkpt><trkpt lat="45.7799433" lon="8.97676"><ele>406.0</ele><time>2026-04-15T13:59:16.149Z</time></trkpt><trkpt lat="45.7799767" lon="8.97662"><ele>406.0</ele><time>2026-04-15T13:59:18.151Z</time></trkpt><trkpt lat="45.780015" lon="8.97648"><ele>406.0</ele><time>2026-04-15T13:59:20.149Z</time></trkpt><trkpt lat="45.7800417" lon="8.9763367"><ele>406.0</ele><time>2026-04-15T13:59:22.151Z</time></trkpt><trkpt lat="45.7800667" lon="8.9761983"><ele>406.00000000000006</ele><time>2026-04-15T13:59:24.153Z</time></trkpt><trkpt lat="45.7800917" lon="8.9760633"><ele>406.0</ele><time>2026-04-15T13:59:26.15Z</time></trkpt><trkpt lat="45.7801033" lon="8.975945"><ele>406.0</ele><time>2026-04-15T13:59:28.15Z</time></trkpt><trkpt lat="45.7801183" lon="8.9758217"><ele>406.0</ele><time>2026-04-15T13:59:30.149Z</time></trkpt><trkpt lat="45.7801317" lon="8.97571"><ele>406.00000000000006</ele><time>2026-04-15T13:59:32.15Z</time></trkpt><trkpt lat="45.78014" lon="8.9755917"><ele>406.0</ele><time>2026-04-15T13:59:34.149Z</time></trkpt><trkpt lat="45.78015" lon="8.9754733"><ele>406.33333333333337</ele><time>2026-04-15T13:59:36.15Z</time></trkpt><trkpt lat="45.7801567" lon="8.9753517"><ele>406.6666666666667</ele><time>2026-04-15T13:59:38.15Z</time></trkpt><trkpt lat="45.7801683" lon="8.9752333"><ele>407.0</ele><time>2026-04-15T13:59:40.15Z</time></trkpt><trkpt lat="45.7801817" lon="8.9751083"><ele>407.33333333333337</ele><time>2026-04-15T13:59:42.149Z</time></trkpt><trkpt lat="45.7801917" lon="8.97498"><ele>407.6666666666667</ele><time>2026-04-15T13:59:44.149Z</time></trkpt><trkpt lat="45.7802067" lon="8.97486"><ele>408.0</ele><time>2026-04-15T13:59:46.15Z</time></trkpt><trkpt lat="45.780225" lon="8.9747417"><ele>408.0</ele><time>2026-04-15T13:59:48.149Z</time></trkpt><trkpt lat="45.7802383" lon="8.9746167"><ele>408.0</ele><time>2026-04-15T13:59:50.152Z</time></trkpt><trkpt lat="45.78026" lon="8.9744767"><ele>408.0</ele><time>2026-04-15T13:59:52.151Z</time></trkpt><trkpt lat="45.780295" lon="8.9743167"><ele>408.0</ele><time>2026-04-15T13:59:54.149Z</time></trkpt><trkpt lat="45.78035" lon="8.9741767"><ele>408.0</ele><time>2026-04-15T13:59:56.15Z</time></trkpt><trkpt lat="45.780395" lon="8.97406"><ele>408.0</ele><time>2026-04-15T13:59:58.151Z</time></trkpt><trkpt lat="45.780455" lon="8.974"><ele>408.0</ele><time>2026-04-15T14:00:00.15Z</time></trkpt><trkpt lat="45.78052" lon="8.97393"><ele>408.0</ele><time>2026-04-15T14:00:15.149Z</time></trkpt><trkpt lat="45.7804633" lon="8.9738633"><ele>408.0</ele><time>2026-04-15T14:00:18.15Z</time></trkpt><trkpt lat="45.7803883" lon="8.9738983"><ele>408.0</ele><time>2026-04-15T14:00:20.151Z</time></trkpt><trkpt lat="45.780315" lon="8.9739567"><ele>408.0</ele><time>2026-04-15T14:00:22.149Z</time></trkpt><trkpt lat="45.78023" lon="8.974005"><ele>407.79999999999995</ele><time>2026-04-15T14:00:24.15Z</time></trkpt><trkpt lat="45.7801417" lon="8.9740567"><ele>407.6</ele><time>2026-04-15T14:00:26.149Z</time></trkpt><trkpt lat="45.7800583" lon="8.9741083"><ele>407.4</ele><time>2026-04-15T14:00:28.149Z</time></trkpt><trkpt lat="45.7799733" lon="8.9741567"><ele>407.20000000000005</ele><time>2026-04-15T14:00:30.149Z</time></trkpt><trkpt lat="45.7798867" lon="8.9741933"><ele>407.0</ele><time>2026-04-15T14:00:32.15Z</time></trkpt><trkpt lat="45.7798017" lon="8.9742383"><ele>407.3333333333333</ele><time>2026-04-15T14:00:34.15Z</time></trkpt><trkpt lat="45.77972" lon="8.9742733"><ele>407.66666666666663</ele><time>2026-04-15T14:00:36.15Z</time></trkpt><trkpt lat="45.7796367" lon="8.9743267"><ele>408.0</ele><time>2026-04-15T14:00:38.15Z</time></trkpt><trkpt lat="45.7795583" lon="8.9743767"><ele>408.33333333333337</ele><time>2026-04-15T14:00:40.148Z</time></trkpt><trkpt lat="45.7794733" lon="8.974415"><ele>408.6666666666667</ele><time>2026-04-15T14:00:42.148Z</time></trkpt><trkpt lat="45.77939" lon="8.97439"><ele>409.0</ele><time>2026-04-15T14:00:44.149Z</time></trkpt><trkpt lat="45.7793167" lon="8.97433"><ele>409.2</ele><time>2026-04-15T14:00:46.149Z</time></trkpt><trkpt lat="45.7792283" lon="8.9742967"><ele>409.4</ele><time>2026-04-15T14:00:48.15Z</time></trkpt><trkpt lat="45.7791333" lon="8.9742767"><ele>409.6</ele><time>2026-04-15T14:00:50.15Z</time></trkpt><trkpt lat="45.7790317" lon="8.974255"><ele>409.8</ele><time>2026-04-15T14:00:52.149Z</time></trkpt><trkpt lat="45.7789233" lon="8.9742367"><ele>410.0</ele><time>2026-04-15T14:00:54.15Z</time></trkpt><trkpt lat="45.7788167" lon="8.9742133"><ele>410.0</ele><time>2026-04-15T14:00:56.152Z</time></trkpt><trkpt lat="45.7786983" lon="8.9742"><ele>410.0</ele><time>2026-04-15T14:00:58.15Z</time></trkpt><trkpt lat="45.7785817" lon="8.974165"><ele>410.0</ele><time>2026-04-15T14:01:00.15Z</time></trkpt><trkpt lat="45.7784667" lon="8.9740883"><ele>410.0</ele><time>2026-04-15T14:01:02.15Z</time></trkpt><trkpt lat="45.778405" lon="8.9740533"><ele>410.0</ele><time>2026-04-15T14:01:03.149Z</time></trkpt><trkpt lat="45.7783433" lon="8.97402"><ele>409.7142857142857</ele><time>2026-04-15T14:01:04.15Z</time></trkpt><trkpt lat="45.7782833" lon="8.9739833"><ele>409.4285714285714</ele><time>2026-04-15T14:01:05.149Z</time></trkpt><trkpt lat="45.77822" lon="8.9739483"><ele>409.1428571428571</ele><time>2026-04-15T14:01:06.149Z</time></trkpt><trkpt lat="45.7781567" lon="8.9739133"><ele>408.8571428571429</ele><time>2026-04-15T14:01:07.15Z</time></trkpt><trkpt lat="45.7780967" lon="8.9738817"><ele>408.57142857142856</ele><time>2026-04-15T14:01:08.149Z</time></trkpt><trkpt lat="45.7780333" lon="8.973855"><ele>408.2857142857143</ele><time>2026-04-15T14:01:09.151Z</time></trkpt><trkpt lat="45.77797" lon="8.9738283"><ele>408.0</ele><time>2026-04-15T14:01:10.149Z</time></trkpt><trkpt lat="45.777905" lon="8.97381"><ele>408.0</ele><time>2026-04-15T14:01:11.15Z</time></trkpt><trkpt lat="45.7778383" lon="8.9737933"><ele>408.0</ele><time>2026-04-15T14:01:12.149Z</time></trkpt><trkpt lat="45.7777733" lon="8.973775"><ele>408.0</ele><time>2026-04-15T14:01:13.149Z</time></trkpt><trkpt lat="45.77771" lon="8.973755"><ele>408.0</ele><time>2026-04-15T14:01:14.149Z</time></trkpt><trkpt lat="45.777645" lon="8.97373"><ele>408.0</ele><time>2026-04-15T14:01:15.149Z</time></trkpt><trkpt lat="45.7775817" lon="8.9737033"><ele>408.0</ele><time>2026-04-15T14:01:16.148Z</time></trkpt><trkpt lat="45.7775183" lon="8.97368"><ele>408.0</ele><time>2026-04-15T14:01:17.153Z</time></trkpt><trkpt lat="45.7774567" lon="8.9736517"><ele>407.2857142857143</ele><time>2026-04-15T14:01:18.153Z</time></trkpt><trkpt lat="45.777395" lon="8.9736217"><ele>406.57142857142856</ele><time>2026-04-15T14:01:19.152Z</time></trkpt><trkpt lat="45.7773333" lon="8.9735867"><ele>405.8571428571429</ele><time>2026-04-15T14:01:20.153Z</time></trkpt><trkpt lat="45.7772683" lon="8.9735517"><ele>405.1428571428571</ele><time>2026-04-15T14:01:21.152Z</time></trkpt><trkpt lat="45.7772067" lon="8.973515"><ele>404.4285714285714</ele><time>2026-04-15T14:01:22.149Z</time></trkpt><trkpt lat="45.777145" lon="8.9734817"><ele>403.7142857142857</ele><time>2026-04-15T14:01:23.15Z</time></trkpt><trkpt lat="45.777085" lon="8.97345"><ele>403.0</ele><time>2026-04-15T14:01:24.15Z</time></trkpt><trkpt lat="45.7770233" lon="8.9734167"><ele>403.0</ele><time>2026-04-15T14:01:25.149Z</time></trkpt><trkpt lat="45.776965" lon="8.9733817"><ele>403.0</ele><time>2026-04-15T14:01:26.151Z</time></trkpt><trkpt lat="45.776905" lon="8.9733517"><ele>403.0</ele><time>2026-04-15T14:01:27.151Z</time></trkpt><trkpt lat="45.776845" lon="8.9733233"><ele>403.0</ele><time>2026-04-15T14:01:28.15Z</time></trkpt><trkpt lat="45.776735" lon="8.973245"><ele>403.0</ele><time>2026-04-15T14:01:30.15Z</time></trkpt><trkpt lat="45.7766717" lon="8.9732067"><ele>403.0</ele><time>2026-04-15T14:01:31.15Z</time></trkpt><trkpt lat="45.7766083" lon="8.9731733"><ele>403.0</ele><time>2026-04-15T14:01:32.15Z</time></trkpt><trkpt lat="45.77654" lon="8.9731483"><ele>402.7142857142857</ele><time>2026-04-15T14:01:33.15Z</time></trkpt><trkpt lat="45.7764717" lon="8.973125"><ele>402.4285714285714</ele><time>2026-04-15T14:01:34.15Z</time></trkpt><trkpt lat="45.7764033" lon="8.9731"><ele>402.1428571428571</ele><time>2026-04-15T14:01:35.15Z</time></trkpt><trkpt lat="45.7763317" lon="8.97308"><ele>401.8571428571429</ele><time>2026-04-15T14:01:36.15Z</time></trkpt><trkpt lat="45.7762617" lon="8.973065"><ele>401.57142857142856</ele><time>2026-04-15T14:01:37.149Z</time></trkpt><trkpt lat="45.7761917" lon="8.9730483"><ele>401.2857142857143</ele><time>2026-04-15T14:01:38.151Z</time></trkpt><trkpt lat="45.7761233" lon="8.9730233"><ele>401.0</ele><time>2026-04-15T14:01:39.151Z</time></trkpt><trkpt lat="45.7760533" lon="8.9729967"><ele>400.7142857142857</ele><time>2026-04-15T14:01:40.149Z</time></trkpt><trkpt lat="45.7759883" lon="8.972975"><ele>400.42857142857144</ele><time>2026-04-15T14:01:41.149Z</time></trkpt><trkpt lat="45.7759267" lon="8.9729483"><ele>400.1428571428571</ele><time>2026-04-15T14:01:42.15Z</time></trkpt><trkpt lat="45.7758633" lon="8.9729233"><ele>399.8571428571429</ele><time>2026-04-15T14:01:43.151Z</time></trkpt><trkpt lat="45.7757983" lon="8.9728983"><ele>399.57142857142856</ele><time>2026-04-15T14:01:44.15Z</time></trkpt><trkpt lat="45.7757333" lon="8.972865"><ele>399.2857142857143</ele><time>2026-04-15T14:01:45.149Z</time></trkpt><trkpt lat="45.7756717" lon="8.97283"><ele>399.0</ele><time>2026-04-15T14:01:46.149Z</time></trkpt><trkpt lat="45.77561" lon="8.9727867"><ele>399.0</ele><time>2026-04-15T14:01:47.151Z</time></trkpt><trkpt lat="45.7755483" lon="8.9727383"><ele>399.0</ele><time>2026-04-15T14:01:48.149Z</time></trkpt><trkpt lat="45.7754883" lon="8.9726833"><ele>399.0</ele><time>2026-04-15T14:01:49.15Z</time></trkpt><trkpt lat="45.7754317" lon="8.972625"><ele>399.0</ele><time>2026-04-15T14:01:50.15Z</time></trkpt><trkpt lat="45.7753767" lon="8.9725633"><ele>399.0</ele><time>2026-04-15T14:01:51.15Z</time></trkpt><trkpt lat="45.7753267" lon="8.9724933"><ele>399.0</ele><time>2026-04-15T14:01:52.148Z</time></trkpt><trkpt lat="45.7752783" lon="8.9724167"><ele>399.0</ele><time>2026-04-15T14:01:53.148Z</time></trkpt><trkpt lat="45.77523" lon="8.9723417"><ele>400.6666666666667</ele><time>2026-04-15T14:01:54.148Z</time></trkpt><trkpt lat="45.7751817" lon="8.9722683"><ele>402.33333333333337</ele><time>2026-04-15T14:01:55.149Z</time></trkpt><trkpt lat="45.775135" lon="8.9721983"><ele>404.0</ele><time>2026-04-15T14:01:56.148Z</time></trkpt><trkpt lat="45.775085" lon="8.9721283"><ele>405.6666666666667</ele><time>2026-04-15T14:01:57.151Z</time></trkpt><trkpt lat="45.77504" lon="8.9720633"><ele>407.33333333333337</ele><time>2026-04-15T14:01:58.15Z</time></trkpt><trkpt lat="45.7749983" lon="8.971995"><ele>409.0</ele><time>2026-04-15T14:01:59.149Z</time></trkpt><trkpt lat="45.7749283" lon="8.9718517"><ele>409.0</ele><time>2026-04-15T14:02:01.149Z</time></trkpt><trkpt lat="45.7748783" lon="8.971705"><ele>409.0</ele><time>2026-04-15T14:02:03.15Z</time></trkpt><trkpt lat="45.77484" lon="8.9715383"><ele>409.0</ele><time>2026-04-15T14:02:05.151Z</time></trkpt><trkpt lat="45.7747783" lon="8.9713833"><ele>409.0</ele><time>2026-04-15T14:02:07.15Z</time></trkpt><trkpt lat="45.77474" lon="8.97131"><ele>409.0</ele><time>2026-04-15T14:02:08.151Z</time></trkpt><trkpt lat="45.7747033" lon="8.971235"><ele>407.50000000000006</ele><time>2026-04-15T14:02:09.15Z</time></trkpt><trkpt lat="45.7746667" lon="8.9711567"><ele>406.0</ele><time>2026-04-15T14:02:10.15Z</time></trkpt><trkpt lat="45.77463" lon="8.9710833"><ele>404.5</ele><time>2026-04-15T14:02:11.151Z</time></trkpt><trkpt lat="45.7745467" lon="8.970955"><ele>403.0</ele><time>2026-04-15T14:02:13.151Z</time></trkpt><trkpt lat="45.7745" lon="8.9708833"><ele>401.50000000000006</ele><time>2026-04-15T14:02:14.152Z</time></trkpt><trkpt lat="45.7744467" lon="8.970815"><ele>400.0</ele><time>2026-04-15T14:02:15.151Z</time></trkpt><trkpt lat="45.77439" lon="8.97075"><ele>399.33333333333337</ele><time>2026-04-15T14:02:16.15Z</time></trkpt><trkpt lat="45.774335" lon="8.9706883"><ele>398.6666666666667</ele><time>2026-04-15T14:02:17.15Z</time></trkpt><trkpt lat="45.774285" lon="8.9706283"><ele>398.0</ele><time>2026-04-15T14:02:18.15Z</time></trkpt><trkpt lat="45.7741967" lon="8.9705283"><ele>397.33333333333337</ele><time>2026-04-15T14:02:20.15Z</time></trkpt><trkpt lat="45.7741117" lon="8.9704583"><ele>396.6666666666667</ele><time>2026-04-15T14:02:22.151Z</time></trkpt><trkpt lat="45.774025" lon="8.970415"><ele>396.0</ele><time>2026-04-15T14:02:24.15Z</time></trkpt><trkpt lat="45.7739467" lon="8.9703717"><ele>396.0</ele><time>2026-04-15T14:02:26.151Z</time></trkpt><trkpt lat="45.7738767" lon="8.9703383"><ele>396.0</ele><time>2026-04-15T14:02:28.15Z</time></trkpt><trkpt lat="45.7738167" lon="8.9702833"><ele>396.0</ele><time>2026-04-15T14:02:30.15Z</time></trkpt><trkpt lat="45.7737467" lon="8.97025"><ele>396.0</ele><time>2026-04-15T14:02:32.151Z</time></trkpt><trkpt lat="45.7736667" lon="8.97022"><ele>396.0</ele><time>2026-04-15T14:02:34.15Z</time></trkpt><trkpt lat="45.7735817" lon="8.9701767"><ele>396.0</ele><time>2026-04-15T14:02:36.15Z</time></trkpt><trkpt lat="45.77349" lon="8.97015"><ele>396.0</ele><time>2026-04-15T14:02:38.151Z</time></trkpt><trkpt lat="45.7734083" lon="8.9701033"><ele>396.0</ele><time>2026-04-15T14:02:40.15Z</time></trkpt><trkpt lat="45.773325" lon="8.970045"><ele>396.0</ele><time>2026-04-15T14:02:42.15Z</time></trkpt><trkpt lat="45.77324" lon="8.9699817"><ele>396.0</ele><time>2026-04-15T14:02:44.15Z</time></trkpt><trkpt lat="45.7731467" lon="8.9699567"><ele>396.0</ele><time>2026-04-15T14:02:46.15Z</time></trkpt><trkpt lat="45.7730583" lon="8.96995"><ele>395.20000000000005</ele><time>2026-04-15T14:02:48.15Z</time></trkpt><trkpt lat="45.7729883" lon="8.9698817"><ele>394.40000000000003</ele><time>2026-04-15T14:02:50.149Z</time></trkpt><trkpt lat="45.7729267" lon="8.969785"><ele>393.6</ele><time>2026-04-15T14:02:52.148Z</time></trkpt><trkpt lat="45.7728467" lon="8.9696967"><ele>392.8</ele><time>2026-04-15T14:02:54.148Z</time></trkpt><trkpt lat="45.7727617" lon="8.9696033"><ele>392.0</ele><time>2026-04-15T14:02:56.149Z</time></trkpt><trkpt lat="45.77267" lon="8.9695167"><ele>391.5</ele><time>2026-04-15T14:02:58.149Z</time></trkpt><trkpt lat="45.7725733" lon="8.9694083"><ele>391.0</ele><time>2026-04-15T14:03:00.148Z</time></trkpt><trkpt lat="45.7724917" lon="8.9692767"><ele>390.5</ele><time>2026-04-15T14:03:02.149Z</time></trkpt><trkpt lat="45.77241" lon="8.96914"><ele>390.0</ele><time>2026-04-15T14:03:04.15Z</time></trkpt><trkpt lat="45.772335" lon="8.969"><ele>390.0</ele><time>2026-04-15T14:03:06.15Z</time></trkpt><trkpt lat="45.7722583" lon="8.968895"><ele>390.0</ele><time>2026-04-15T14:03:08.15Z</time></trkpt><trkpt lat="45.7721667" lon="8.968865"><ele>390.0</ele><time>2026-04-15T14:03:10.151Z</time></trkpt><trkpt lat="45.7720683" lon="8.9689017"><ele>390.0</ele><time>2026-04-15T14:03:12.151Z</time></trkpt><trkpt lat="45.7719717" lon="8.9689433"><ele>390.0</ele><time>2026-04-15T14:03:14.151Z</time></trkpt><trkpt lat="45.7718767" lon="8.9689817"><ele>389.6</ele><time>2026-04-15T14:03:16.15Z</time></trkpt><trkpt lat="45.7717833" lon="8.9690317"><ele>389.2</ele><time>2026-04-15T14:03:18.151Z</time></trkpt><trkpt lat="45.771685" lon="8.9690883"><ele>388.79999999999995</ele><time>2026-04-15T14:03:20.151Z</time></trkpt><trkpt lat="45.7715833" lon="8.9691517"><ele>388.4</ele><time>2026-04-15T14:03:22.152Z</time></trkpt><trkpt lat="45.7714883" lon="8.9692067"><ele>388.0</ele><time>2026-04-15T14:03:24.152Z</time></trkpt><trkpt lat="45.7713967" lon="8.96926"><ele>388.0</ele><time>2026-04-15T14:03:26.152Z</time></trkpt><trkpt lat="45.7713033" lon="8.969305"><ele>388.0</ele><time>2026-04-15T14:03:28.15Z</time></trkpt><trkpt lat="45.771205" lon="8.96932"><ele>388.0</ele><time>2026-04-15T14:03:30.15Z</time></trkpt><trkpt lat="45.7711083" lon="8.96933"><ele>388.0</ele><time>2026-04-15T14:03:32.15Z</time></trkpt><trkpt lat="45.77104" lon="8.9693733"><ele>388.0</ele><time>2026-04-15T14:03:34.15Z</time></trkpt><trkpt lat="45.77096" lon="8.9694517"><ele>389.59999999999997</ele><time>2026-04-15T14:03:36.15Z</time></trkpt><trkpt lat="45.7708783" lon="8.9695367"><ele>391.2</ele><time>2026-04-15T14:03:38.152Z</time></trkpt><trkpt lat="45.77081" lon="8.9696267"><ele>392.8</ele><time>2026-04-15T14:03:40.15Z</time></trkpt><trkpt lat="45.7707333" lon="8.9697317"><ele>394.4</ele><time>2026-04-15T14:03:42.15Z</time></trkpt><trkpt lat="45.7706583" lon="8.9698317"><ele>396.0</ele><time>2026-04-15T14:03:44.15Z</time></trkpt><trkpt lat="45.7705817" lon="8.969935"><ele>396.0</ele><time>2026-04-15T14:03:46.153Z</time></trkpt><trkpt lat="45.7705" lon="8.97004"><ele>396.0</ele><time>2026-04-15T14:03:48.151Z</time></trkpt><trkpt lat="45.7704217" lon="8.9701317"><ele>396.0</ele><time>2026-04-15T14:03:50.152Z</time></trkpt><trkpt lat="45.7703383" lon="8.97022"><ele>396.0</ele><time>2026-04-15T14:03:52.15Z</time></trkpt><trkpt lat="45.7702467" lon="8.9703117"><ele>396.0</ele><time>2026-04-15T14:03:54.152Z</time></trkpt><trkpt lat="45.7701683" lon="8.970385"><ele>396.0</ele><time>2026-04-15T14:03:56.151Z</time></trkpt><trkpt lat="45.7700883" lon="8.9704483"><ele>396.0</ele><time>2026-04-15T14:03:58.149Z</time></trkpt><trkpt lat="45.77001" lon="8.9705617"><ele>396.0</ele><time>2026-04-15T14:04:00.151Z</time></trkpt><trkpt lat="45.7699283" lon="8.9706833"><ele>396.0</ele><time>2026-04-15T14:04:02.151Z</time></trkpt><trkpt lat="45.7698383" lon="8.9707567"><ele>396.0</ele><time>2026-04-15T14:04:04.15Z</time></trkpt><trkpt lat="45.7697483" lon="8.97081"><ele>396.0</ele><time>2026-04-15T14:04:06.151Z</time></trkpt><trkpt lat="45.7696583" lon="8.9708467"><ele>396.0</ele><time>2026-04-15T14:04:08.15Z</time></trkpt><trkpt lat="45.7695767" lon="8.9708783"><ele>396.0</ele><time>2026-04-15T14:04:10.15Z</time></trkpt><trkpt lat="45.7694933" lon="8.9708933"><ele>396.0</ele><time>2026-04-15T14:04:12.149Z</time></trkpt><trkpt lat="45.769405" lon="8.97094"><ele>396.0</ele><time>2026-04-15T14:04:14.151Z</time></trkpt><trkpt lat="45.7693233" lon="8.97097"><ele>396.0</ele><time>2026-04-15T14:04:16.15Z</time></trkpt><trkpt lat="45.7692517" lon="8.9709683"><ele>395.42857142857144</ele><time>2026-04-15T14:04:18.152Z</time></trkpt><trkpt lat="45.7691567" lon="8.9709917"><ele>394.85714285714283</ele><time>2026-04-15T14:04:21.151Z</time></trkpt><trkpt lat="45.76909" lon="8.9710283"><ele>394.2857142857143</ele><time>2026-04-15T14:04:23.151Z</time></trkpt><trkpt lat="45.769025" lon="8.97106"><ele>393.7142857142857</ele><time>2026-04-15T14:04:25.151Z</time></trkpt><trkpt lat="45.7689583" lon="8.9710883"><ele>393.1428571428571</ele><time>2026-04-15T14:04:27.15Z</time></trkpt><trkpt lat="45.768895" lon="8.9711267"><ele>392.57142857142856</ele><time>2026-04-15T14:04:29.15Z</time></trkpt><trkpt lat="45.76883" lon="8.97115"><ele>392.0</ele><time>2026-04-15T14:04:31.151Z</time></trkpt><trkpt lat="45.768765" lon="8.9711833"><ele>391.99999999999994</ele><time>2026-04-15T14:04:33.15Z</time></trkpt><trkpt lat="45.7687017" lon="8.9712317"><ele>392.0</ele><time>2026-04-15T14:04:35.151Z</time></trkpt><trkpt lat="45.7686383" lon="8.9712867"><ele>392.0</ele><time>2026-04-15T14:04:37.151Z</time></trkpt><trkpt lat="45.768555" lon="8.971285"><ele>392.0</ele><time>2026-04-15T14:04:39.15Z</time></trkpt><trkpt lat="45.7684817" lon="8.9712833"><ele>391.99999999999994</ele><time>2026-04-15T14:04:41.149Z</time></trkpt><trkpt lat="45.7684" lon="8.9713033"><ele>392.0</ele><time>2026-04-15T14:04:43.15Z</time></trkpt><trkpt lat="45.7683233" lon="8.9713033"><ele>392.3333333333333</ele><time>2026-04-15T14:04:45.15Z</time></trkpt><trkpt lat="45.7682467" lon="8.97131"><ele>392.66666666666663</ele><time>2026-04-15T14:04:47.151Z</time></trkpt><trkpt lat="45.7681667" lon="8.97131"><ele>393.0</ele><time>2026-04-15T14:04:49.151Z</time></trkpt><trkpt lat="45.7680933" lon="8.97134"><ele>393.33333333333337</ele><time>2026-04-15T14:04:51.15Z</time></trkpt><trkpt lat="45.7680183" lon="8.9713717"><ele>393.6666666666667</ele><time>2026-04-15T14:04:53.151Z</time></trkpt><trkpt lat="45.7679433" lon="8.9713767"><ele>394.0</ele><time>2026-04-15T14:04:55.15Z</time></trkpt><trkpt lat="45.7678683" lon="8.97139"><ele>394.0</ele><time>2026-04-15T14:04:57.151Z</time></trkpt><trkpt lat="45.767795" lon="8.9713883"><ele>394.0</ele><time>2026-04-15T14:04:59.151Z</time></trkpt><trkpt lat="45.76772" lon="8.9713917"><ele>394.0</ele><time>2026-04-15T14:05:01.15Z</time></trkpt><trkpt lat="45.7676433" lon="8.97139"><ele>394.0</ele><time>2026-04-15T14:05:03.151Z</time></trkpt><trkpt lat="45.7675717" lon="8.97138"><ele>394.0</ele><time>2026-04-15T14:05:05.15Z</time></trkpt><trkpt lat="45.7675033" lon="8.9713683"><ele>394.0</ele><time>2026-04-15T14:05:07.15Z</time></trkpt><trkpt lat="45.76743" lon="8.97136"><ele>394.0</ele><time>2026-04-15T14:05:09.149Z</time></trkpt><trkpt lat="45.7673633" lon="8.9713683"><ele>394.83333333333337</ele><time>2026-04-15T14:05:11.149Z</time></trkpt><trkpt lat="45.7673" lon="8.9713467"><ele>395.6666666666667</ele><time>2026-04-15T14:05:13.15Z</time></trkpt><trkpt lat="45.7672183" lon="8.9712883"><ele>396.5</ele><time>2026-04-15T14:05:16.15Z</time></trkpt><trkpt lat="45.7671317" lon="8.9712883"><ele>397.33333333333337</ele><time>2026-04-15T14:05:19.15Z</time></trkpt><trkpt lat="45.7670617" lon="8.9712983"><ele>398.1666666666667</ele><time>2026-04-15T14:05:22.15Z</time></trkpt><trkpt lat="45.7669833" lon="8.9713067"><ele>399.0</ele><time>2026-04-15T14:05:26.15Z</time></trkpt><trkpt lat="45.76691" lon="8.9713433"><ele>400.2857142857143</ele><time>2026-04-15T14:05:30.15Z</time></trkpt><trkpt lat="45.766845" lon="8.9713517"><ele>401.57142857142856</ele><time>2026-04-15T14:05:34.151Z</time></trkpt><trkpt lat="45.76677" lon="8.971365"><ele>402.8571428571429</ele><time>2026-04-15T14:05:40.15Z</time></trkpt><trkpt lat="45.766705" lon="8.9714"><ele>404.1428571428571</ele><time>2026-04-15T14:05:45.15Z</time></trkpt><trkpt lat="45.7666367" lon="8.9714"><ele>405.42857142857144</ele><time>2026-04-15T14:05:49.151Z</time></trkpt><trkpt lat="45.7665733" lon="8.9713967"><ele>406.7142857142857</ele><time>2026-04-15T14:05:52.15Z</time></trkpt><trkpt lat="45.766495" lon="8.9714033"><ele>408.0</ele><time>2026-04-15T14:05:55.15Z</time></trkpt><trkpt lat="45.7664217" lon="8.97138"><ele>408.0</ele><time>2026-04-15T14:05:58.151Z</time></trkpt><trkpt lat="45.766335" lon="8.9713667"><ele>408.0</ele><time>2026-04-15T14:06:01.15Z</time></trkpt><trkpt lat="45.766245" lon="8.97136"><ele>408.0</ele><time>2026-04-15T14:06:04.149Z</time></trkpt><trkpt lat="45.7661767" lon="8.971335"><ele>408.0</ele><time>2026-04-15T14:06:06.15Z</time></trkpt><trkpt lat="45.7661017" lon="8.971295"><ele>408.0</ele><time>2026-04-15T14:06:08.15Z</time></trkpt><trkpt lat="45.7660383" lon="8.9712417"><ele>408.0</ele><time>2026-04-15T14:06:10.15Z</time></trkpt><trkpt lat="45.7659617" lon="8.971165"><ele>408.1666666666667</ele><time>2026-04-15T14:06:13.151Z</time></trkpt><trkpt lat="45.765895" lon="8.9711167"><ele>408.33333333333337</ele><time>2026-04-15T14:06:15.15Z</time></trkpt><trkpt lat="45.7658217" lon="8.9710767"><ele>408.5</ele><time>2026-04-15T14:06:17.15Z</time></trkpt><trkpt lat="45.7657483" lon="8.9710133"><ele>408.6666666666667</ele><time>2026-04-15T14:06:19.15Z</time></trkpt><trkpt lat="45.765675" lon="8.970945"><ele>408.83333333333337</ele><time>2026-04-15T14:06:21.149Z</time></trkpt><trkpt lat="45.7656117" lon="8.9708667"><ele>409.0</ele><time>2026-04-15T14:06:23.151Z</time></trkpt><trkpt lat="45.76558" lon="8.97077"><ele>409.2</ele><time>2026-04-15T14:06:25.152Z</time></trkpt><trkpt lat="45.76556" lon="8.9706533"><ele>409.4</ele><time>2026-04-15T14:06:27.151Z</time></trkpt><trkpt lat="45.7655233" lon="8.9705217"><ele>409.6</ele><time>2026-04-15T14:06:29.15Z</time></trkpt><trkpt lat="45.7654933" lon="8.9703833"><ele>409.8</ele><time>2026-04-15T14:06:31.151Z</time></trkpt><trkpt lat="45.7654767" lon="8.97026"><ele>410.0</ele><time>2026-04-15T14:06:33.15Z</time></trkpt><trkpt lat="45.7654533" lon="8.9701417"><ele>409.8</ele><time>2026-04-15T14:06:35.15Z</time></trkpt><trkpt lat="45.7654233" lon="8.9700233"><ele>409.6</ele><time>2026-04-15T14:06:37.15Z</time></trkpt><trkpt lat="45.7653783" lon="8.969905"><ele>409.4</ele><time>2026-04-15T14:06:39.15Z</time></trkpt><trkpt lat="45.7653117" lon="8.9697817"><ele>409.2</ele><time>2026-04-15T14:06:41.15Z</time></trkpt><trkpt lat="45.7652433" lon="8.9696817"><ele>409.0</ele><time>2026-04-15T14:06:43.149Z</time></trkpt><trkpt lat="45.7651733" lon="8.9695833"><ele>409.0</ele><time>2026-04-15T14:06:45.15Z</time></trkpt><trkpt lat="45.7651167" lon="8.9694767"><ele>409.0</ele><time>2026-04-15T14:06:47.151Z</time></trkpt><trkpt lat="45.7650417" lon="8.9693767"><ele>409.0</ele><time>2026-04-15T14:06:49.149Z</time></trkpt><trkpt lat="45.7649583" lon="8.9693067"><ele>409.0</ele><time>2026-04-15T14:06:51.15Z</time></trkpt><trkpt lat="45.7648733" lon="8.9692283"><ele>409.0</ele><time>2026-04-15T14:06:53.151Z</time></trkpt><trkpt lat="45.7648" lon="8.9691283"><ele>407.4</ele><time>2026-04-15T14:06:55.15Z</time></trkpt><trkpt lat="45.7647383" lon="8.9690067"><ele>405.79999999999995</ele><time>2026-04-15T14:06:57.15Z</time></trkpt><trkpt lat="45.7646667" lon="8.9688833"><ele>404.20000000000005</ele><time>2026-04-15T14:06:59.15Z</time></trkpt><trkpt lat="45.7646067" lon="8.968745"><ele>402.6</ele><time>2026-04-15T14:07:01.15Z</time></trkpt><trkpt lat="45.7645683" lon="8.9686733"><ele>401.0</ele><time>2026-04-15T14:07:02.151Z</time></trkpt><trkpt lat="45.7645083" lon="8.9685583"><ele>400.99999999999994</ele><time>2026-04-15T14:07:04.15Z</time></trkpt><trkpt lat="45.764435" lon="8.9684617"><ele>401.0</ele><time>2026-04-15T14:07:06.151Z</time></trkpt><trkpt lat="45.764375" lon="8.96841"><ele>401.0</ele><time>2026-04-15T14:07:08.151Z</time></trkpt><trkpt lat="45.7643133" lon="8.9682967"><ele>401.0</ele><time>2026-04-15T14:07:11.151Z</time></trkpt><trkpt lat="45.7642483" lon="8.96826"><ele>400.99999999999994</ele><time>2026-04-15T14:07:13.149Z</time></trkpt><trkpt lat="45.7641633" lon="8.9682717"><ele>401.0</ele><time>2026-04-15T14:07:16.15Z</time></trkpt><trkpt lat="45.764095" lon="8.9682817"><ele>400.8333333333333</ele><time>2026-04-15T14:07:19.152Z</time></trkpt><trkpt lat="45.7640283" lon="8.9683117"><ele>400.66666666666663</ele><time>2026-04-15T14:07:22.151Z</time></trkpt><trkpt lat="45.7639717" lon="8.9683633"><ele>400.5</ele><time>2026-04-15T14:07:24.149Z</time></trkpt><trkpt lat="45.76389" lon="8.9683733"><ele>400.33333333333337</ele><time>2026-04-15T14:07:28.15Z</time></trkpt><trkpt lat="45.7638267" lon="8.968445"><ele>400.1666666666667</ele><time>2026-04-15T14:07:31.151Z</time></trkpt><trkpt lat="45.7637683" lon="8.968545"><ele>400.0</ele><time>2026-04-15T14:07:34.151Z</time></trkpt><trkpt lat="45.763705" lon="8.9685867"><ele>400.00000000000006</ele><time>2026-04-15T14:07:36.149Z</time></trkpt><trkpt lat="45.7636433" lon="8.9686417"><ele>400.0</ele><time>2026-04-15T14:07:38.151Z</time></trkpt><trkpt lat="45.7635733" lon="8.9687033"><ele>400.0</ele><time>2026-04-15T14:07:41.151Z</time></trkpt><trkpt lat="45.76348" lon="8.9687883"><ele>400.0</ele><time>2026-04-15T14:07:46.15Z</time></trkpt><trkpt lat="45.763415" lon="8.9688233"><ele>400.00000000000006</ele><time>2026-04-15T14:07:48.152Z</time></trkpt><trkpt lat="45.7633433" lon="8.96885"><ele>400.0</ele><time>2026-04-15T14:07:50.152Z</time></trkpt><trkpt lat="45.7632833" lon="8.96888"><ele>398.83333333333337</ele><time>2026-04-15T14:07:52.15Z</time></trkpt><trkpt lat="45.7632283" lon="8.9689617"><ele>397.6666666666667</ele><time>2026-04-15T14:07:54.15Z</time></trkpt><trkpt lat="45.7631333" lon="8.96902"><ele>396.5</ele><time>2026-04-15T14:07:57.15Z</time></trkpt><trkpt lat="45.7630633" lon="8.9690467"><ele>395.33333333333337</ele><time>2026-04-15T14:07:59.15Z</time></trkpt><trkpt lat="45.7629767" lon="8.96907"><ele>394.1666666666667</ele><time>2026-04-15T14:08:01.148Z</time></trkpt><trkpt lat="45.762895" lon="8.9690767"><ele>393.0</ele><time>2026-04-15T14:08:03.15Z</time></trkpt><trkpt lat="45.76281" lon="8.9690683"><ele>393.0</ele><time>2026-04-15T14:08:05.151Z</time></trkpt><trkpt lat="45.76272" lon="8.9690517"><ele>393.0</ele><time>2026-04-15T14:08:07.148Z</time></trkpt><trkpt lat="45.7626467" lon="8.9690967"><ele>393.0</ele><time>2026-04-15T14:08:09.149Z</time></trkpt><trkpt lat="45.7625767" lon="8.9691367"><ele>393.0</ele><time>2026-04-15T14:08:11.15Z</time></trkpt><trkpt lat="45.76252" lon="8.9691817"><ele>393.0</ele><time>2026-04-15T14:08:13.151Z</time></trkpt><trkpt lat="45.7624583" lon="8.96926"><ele>393.0</ele><time>2026-04-15T14:08:15.151Z</time></trkpt><trkpt lat="45.7624217" lon="8.9693583"><ele>392.3333333333333</ele><time>2026-04-15T14:08:17.15Z</time></trkpt><trkpt lat="45.7623683" lon="8.9694583"><ele>391.66666666666663</ele><time>2026-04-15T14:08:19.15Z</time></trkpt><trkpt lat="45.7623133" lon="8.9695383"><ele>391.0</ele><time>2026-04-15T14:08:22.149Z</time></trkpt><trkpt lat="45.7622033" lon="8.96964"><ele>390.3333333333333</ele><time>2026-04-15T14:08:33.15Z</time></trkpt><trkpt lat="45.7621317" lon="8.9696933"><ele>389.66666666666663</ele><time>2026-04-15T14:08:40.15Z</time></trkpt><trkpt lat="45.7620683" lon="8.9697083"><ele>389.0</ele><time>2026-04-15T14:08:43.151Z</time></trkpt><trkpt lat="45.76202" lon="8.969635"><ele>389.0</ele><time>2026-04-15T14:08:46.15Z</time></trkpt><trkpt lat="45.7619683" lon="8.9695633"><ele>389.0</ele><time>2026-04-15T14:08:50.152Z</time></trkpt><trkpt lat="45.7619033" lon="8.9695317"><ele>389.0</ele><time>2026-04-15T14:08:54.15Z</time></trkpt><trkpt lat="45.761825" lon="8.9695233"><ele>389.0</ele><time>2026-04-15T14:08:59.15Z</time></trkpt><trkpt lat="45.7617633" lon="8.9694917"><ele>389.0</ele><time>2026-04-15T14:09:03.151Z</time></trkpt><trkpt lat="45.76169" lon="8.9694833"><ele>389.0</ele><time>2026-04-15T14:09:07.148Z</time></trkpt><trkpt lat="45.761625" lon="8.9695"><ele>389.0</ele><time>2026-04-15T14:09:10.15Z</time></trkpt><trkpt lat="45.7615467" lon="8.9695067"><ele>388.16666666666663</ele><time>2026-04-15T14:09:15.15Z</time></trkpt><trkpt lat="45.7614817" lon="8.9695017"><ele>387.3333333333333</ele><time>2026-04-15T14:09:18.15Z</time></trkpt><trkpt lat="45.7614067" lon="8.9694933"><ele>386.5</ele><time>2026-04-15T14:09:22.15Z</time></trkpt><trkpt lat="45.7613233" lon="8.9694917"><ele>385.66666666666663</ele><time>2026-04-15T14:09:25.15Z</time></trkpt><trkpt lat="45.7612433" lon="8.9695117"><ele>384.8333333333333</ele><time>2026-04-15T14:09:27.15Z</time></trkpt><trkpt lat="45.7611617" lon="8.96954"><ele>384.0</ele><time>2026-04-15T14:09:29.15Z</time></trkpt><trkpt lat="45.761085" lon="8.9695883"><ele>383.75</ele><time>2026-04-15T14:09:31.15Z</time></trkpt><trkpt lat="45.76099" lon="8.969665"><ele>383.5</ele><time>2026-04-15T14:09:33.151Z</time></trkpt><trkpt lat="45.7608917" lon="8.96978"><ele>383.25</ele><time>2026-04-15T14:09:35.15Z</time></trkpt><trkpt lat="45.7607817" lon="8.969835"><ele>383.0</ele><time>2026-04-15T14:09:37.15Z</time></trkpt><trkpt lat="45.7606633" lon="8.969855"><ele>383.0</ele><time>2026-04-15T14:09:39.149Z</time></trkpt><trkpt lat="45.7605533" lon="8.9698983"><ele>383.0</ele><time>2026-04-15T14:09:41.151Z</time></trkpt><trkpt lat="45.76045" lon="8.9699783"><ele>383.0</ele><time>2026-04-15T14:09:43.15Z</time></trkpt><trkpt lat="45.76039" lon="8.9700067"><ele>383.0</ele><time>2026-04-15T14:09:44.149Z</time></trkpt><trkpt lat="45.76033" lon="8.9700383"><ele>383.0</ele><time>2026-04-15T14:09:45.149Z</time></trkpt><trkpt lat="45.7602167" lon="8.9700483"><ele>380.79999999999995</ele><time>2026-04-15T14:09:47.149Z</time></trkpt><trkpt lat="45.760105" lon="8.9700733"><ele>378.6</ele><time>2026-04-15T14:09:49.149Z</time></trkpt><trkpt lat="45.7600033" lon="8.9700817"><ele>376.4</ele><time>2026-04-15T14:09:51.15Z</time></trkpt><trkpt lat="45.7599183" lon="8.9700817"><ele>374.20000000000005</ele><time>2026-04-15T14:09:53.15Z</time></trkpt><trkpt lat="45.7598333" lon="8.9700983"><ele>372.0</ele><time>2026-04-15T14:09:55.149Z</time></trkpt><trkpt lat="45.7597317" lon="8.9701433"><ele>372.0</ele><time>2026-04-15T14:09:57.149Z</time></trkpt><trkpt lat="45.759645" lon="8.970165"><ele>372.0</ele><time>2026-04-15T14:09:59.151Z</time></trkpt><trkpt lat="45.759515" lon="8.9702083"><ele>372.0</ele><time>2026-04-15T14:10:02.15Z</time></trkpt><trkpt lat="45.75942" lon="8.9702317"><ele>372.0</ele><time>2026-04-15T14:10:04.15Z</time></trkpt><trkpt lat="45.75933" lon="8.970235"><ele>372.0</ele><time>2026-04-15T14:10:06.149Z</time></trkpt><trkpt lat="45.759235" lon="8.9702333"><ele>372.14285714285717</ele><time>2026-04-15T14:10:08.149Z</time></trkpt><trkpt lat="45.75916" lon="8.9702017"><ele>372.2857142857143</ele><time>2026-04-15T14:10:10.149Z</time></trkpt><trkpt lat="45.7591" lon="8.970135"><ele>372.42857142857144</ele><time>2026-04-15T14:10:13.149Z</time></trkpt><trkpt lat="45.7591283" lon="8.9700333"><ele>372.57142857142856</ele><time>2026-04-15T14:10:18.15Z</time></trkpt><trkpt lat="45.7592" lon="8.9699917"><ele>372.7142857142857</ele><time>2026-04-15T14:10:21.149Z</time></trkpt><trkpt lat="45.7592417" lon="8.9699133"><ele>372.8571428571429</ele><time>2026-04-15T14:10:24.15Z</time></trkpt><trkpt lat="45.7592317" lon="8.96982"><ele>373.0</ele><time>2026-04-15T14:10:28.149Z</time></trkpt><trkpt lat="45.7593" lon="8.9697833"><ele>373.66666666666663</ele><time>2026-04-15T14:10:52.15Z</time></trkpt><trkpt lat="45.7592683" lon="8.9696783"><ele>374.3333333333333</ele><time>2026-04-15T14:10:56.149Z</time></trkpt><trkpt lat="45.7593067" lon="8.969595"><ele>375.0</ele><time>2026-04-15T14:11:02.151Z</time></trkpt><trkpt lat="45.7593733" lon="8.9695867"><ele>375.6666666666667</ele><time>2026-04-15T14:11:05.15Z</time></trkpt><trkpt lat="45.759445" lon="8.9695883"><ele>376.33333333333337</ele><time>2026-04-15T14:11:08.15Z</time></trkpt><trkpt lat="45.7595267" lon="8.9695717"><ele>377.0</ele><time>2026-04-15T14:11:12.149Z</time></trkpt><trkpt lat="45.7596083" lon="8.96956"><ele>377.5</ele><time>2026-04-15T14:11:16.149Z</time></trkpt><trkpt lat="45.75969" lon="8.969545"><ele>378.0</ele><time>2026-04-15T14:11:19.15Z</time></trkpt><trkpt lat="45.7597817" lon="8.9695033"><ele>378.5</ele><time>2026-04-15T14:11:24.149Z</time></trkpt><trkpt lat="45.7598483" lon="8.9694517"><ele>379.0</ele><time>2026-04-15T14:11:28.15Z</time></trkpt><trkpt lat="45.7599083" lon="8.96942"><ele>379.5</ele><time>2026-04-15T14:11:31.15Z</time></trkpt><trkpt lat="45.7599617" lon="8.9693567"><ele>380.0</ele><time>2026-04-15T14:11:34.149Z</time></trkpt><trkpt lat="45.7599667" lon="8.96925"><ele>380.2857142857143</ele><time>2026-04-15T14:11:38.149Z</time></trkpt><trkpt lat="45.759945" lon="8.9691567"><ele>380.57142857142856</ele><time>2026-04-15T14:11:41.149Z</time></trkpt><trkpt lat="45.75993" lon="8.9690583"><ele>380.8571428571429</ele><time>2026-04-15T14:11:44.15Z</time></trkpt><trkpt lat="45.7599117" lon="8.96896"><ele>381.1428571428571</ele><time>2026-04-15T14:11:47.149Z</time></trkpt><trkpt lat="45.75989" lon="8.96887"><ele>381.4285714285714</ele><time>2026-04-15T14:11:50.15Z</time></trkpt><trkpt lat="45.759855" lon="8.9687783"><ele>381.7142857142857</ele><time>2026-04-15T14:11:53.148Z</time></trkpt><trkpt lat="45.7598233" lon="8.9686783"><ele>382.0</ele><time>2026-04-15T14:11:56.149Z</time></trkpt><trkpt lat="45.759805" lon="8.9685717"><ele>382.0</ele><time>2026-04-15T14:11:59.149Z</time></trkpt><trkpt lat="45.7597767" lon="8.96846"><ele>382.0</ele><time>2026-04-15T14:12:02.149Z</time></trkpt><trkpt lat="45.7597483" lon="8.9683483"><ele>382.0</ele><time>2026-04-15T14:12:05.149Z</time></trkpt><trkpt lat="45.75974" lon="8.9682517"><ele>382.0</ele><time>2026-04-15T14:12:08.15Z</time></trkpt><trkpt lat="45.7597333" lon="8.9681517"><ele>382.0</ele><time>2026-04-15T14:12:13.15Z</time></trkpt><trkpt lat="45.7596933" lon="8.968065"><ele>382.0</ele><time>2026-04-15T14:14:29.151Z</time></trkpt><trkpt lat="45.75963" lon="8.9680683"><ele>382.0</ele><time>2026-04-15T14:14:34.149Z</time></trkpt><trkpt lat="45.7595483" lon="8.9681083"><ele>382.0</ele><time>2026-04-15T14:14:37.148Z</time></trkpt><trkpt lat="45.759485" lon="8.968185"><ele>382.0</ele><time>2026-04-15T14:14:40.15Z</time></trkpt><trkpt lat="45.7595167" lon="8.968275"><ele>382.0</ele><time>2026-04-15T14:14:43.15Z</time></trkpt><trkpt lat="45.7595233" lon="8.96841"><ele>382.0</ele><time>2026-04-15T14:17:21.152Z</time></trkpt><trkpt lat="45.7595017" lon="8.9685017"><ele>382.0</ele><time>2026-04-15T14:17:26.149Z</time></trkpt><trkpt lat="45.7594333" lon="8.968505"><ele>382.0</ele><time>2026-04-15T14:17:33.149Z</time></trkpt><trkpt lat="45.7597117" lon="8.9685633"><ele>382.0</ele><time>2026-04-15T14:21:24.147Z</time></trkpt></trkseg></trk></gpx>